<?xml version="1.0" encoding="UTF-8" standalone="no" ?>
<gpx xmlns="http://www.topografix.com/GPX/1/1" xmlns:xsi="http://www.w3.org/2001/XMLSchema-instance" xsi:schemaLocation="http://www.topografix.com/GPX/1/1 http://www.topografix.com/GPX/1/1/gpx.xsd" version="1.1" creator="VisuGPX - https://www.visugpx.com">
  <metadata>
    <name>VTT du mercredi 29 aout 2018 (à 2 de Coulevon)</name>
    <desc><![CDATA[Chris et moi avons décidé de partir avant la pluie annoncée pour midi. On s'est envoyé 3 côtes sérieuses dès le début (montée de la Vierge km 0,3, rue de Fanicamp à la sortie de Villeparois km 2,5, et montée de Fanicamp km 4,5) et j'ai parfois distancé Chris de quelques mètres ...  La suite étant sans problème, mais nous étions  quand même fourbus à l'arrivée. ]]></desc>
  </metadata>
  <wpt lat="47.6444" lon="6.18304">
    <ele>234.75</ele>
    <name><![CDATA[0000016]]></name>
    <type><![CDATA[Point de départ]]></type>
  </wpt>
  <wpt lat="47.6444" lon="6.18304">
    <ele>234.75</ele>
    <name><![CDATA[0000016]]></name>
    <type><![CDATA[Point de départ]]></type>
  </wpt>
  <wpt lat="47.64436" lon="6.18319">
    <ele>239.73</ele>
    <name><![CDATA[0000018]]></name>
    <desc><![CDATA[<p><br /><h3>Nom: Segment: 1</h3><br />Heure de départ: 08/29/2018 09:51<br/>Heure d'arrivée: 08/29/2018 11:33<br/>Distance: 15,5km (01:41)<br/>Temps déplacement: 01:34<br/>Vitesse moyenne: 9,12 km/h<br/>Vitesse moyenne mouv.: 9,79 km/h<br/>Vitesse Max.: 34,3 km/h<br/>Altitude minimale: 233 m<br/>Altitude maximale: 344 m<br/>Vitesse de montée: 186,3 m/h<br/>Vitesse de descente: -177,5 m/h<br/>Gain d'altitude: 149 m<br/>Perte d'altitude: -144 m<br/>Temps de montée: 00:48<br/>Temps de descente: 00:48<br/></p>]]></desc>
    <type><![CDATA[Point d'arrivée]]></type>
  </wpt>
  <trk>
    <name><![CDATA[2018-08-29 09:51]]></name>
    <desc><![CDATA[<p>Heure de départ: 08/29/2018 09:51<br/>Heure d'arrivée: 08/29/2018 11:33<br/>Distance: 15,5 km (01:41)<br/>Temps déplacement: 01:34<br/>Vitesse moyenne: 9,12 km/h<br/>Vitesse moyenne mouv.: 9,8 km/h<br/>Vitesse Max.: 34,3 km/h<br/>Altitude minimale: 233 m<br/>Altitude maximale: 344 m<br/>Vitesse de montée: 176,1 m/h<br/>Vitesse de descente: -175,2 m/h<br/>Gain d'altitude: 146 m<br/>Perte d'altitude: -141 m<br/>Temps de montée: 00:49<br/>Temps de descente: 00:48<br/></p><hr align="center" width="480" style="height: 2px; width: 517px"/>]]></desc>
    <trkseg>
      <trkpt lat="47.6444" lon="6.18304">
        <ele>234.75</ele>
        <time>2018-08-29T07:51:14Z</time>
      </trkpt>
      <trkpt lat="47.64445" lon="6.18299">
        <ele>234.51</ele>
        <time>2018-08-29T07:51:26Z</time>
      </trkpt>
      <trkpt lat="47.6445" lon="6.18293">
        <ele>234.43</ele>
        <time>2018-08-29T07:51:29Z</time>
      </trkpt>
      <trkpt lat="47.64455" lon="6.18287">
        <ele>234.36</ele>
        <time>2018-08-29T07:51:32Z</time>
      </trkpt>
      <trkpt lat="47.6446" lon="6.1828">
        <ele>234.29</ele>
        <time>2018-08-29T07:51:35Z</time>
      </trkpt>
      <trkpt lat="47.64463" lon="6.18275">
        <ele>234.26</ele>
        <time>2018-08-29T07:51:37Z</time>
      </trkpt>
      <trkpt lat="47.64467" lon="6.1827">
        <ele>234.22</ele>
        <time>2018-08-29T07:51:39Z</time>
      </trkpt>
      <trkpt lat="47.64472" lon="6.18263">
        <ele>234.09</ele>
        <time>2018-08-29T07:51:41Z</time>
      </trkpt>
      <trkpt lat="47.64476" lon="6.18254">
        <ele>233.84</ele>
        <time>2018-08-29T07:51:43Z</time>
      </trkpt>
      <trkpt lat="47.64481" lon="6.18245">
        <ele>233.78</ele>
        <time>2018-08-29T07:51:45Z</time>
      </trkpt>
      <trkpt lat="47.64484" lon="6.18236">
        <ele>233.77</ele>
        <time>2018-08-29T07:51:47Z</time>
      </trkpt>
      <trkpt lat="47.64487" lon="6.18229">
        <ele>233.75</ele>
        <time>2018-08-29T07:51:49Z</time>
      </trkpt>
      <trkpt lat="47.64491" lon="6.18224">
        <ele>233.74</ele>
        <time>2018-08-29T07:51:51Z</time>
      </trkpt>
      <trkpt lat="47.64493" lon="6.18218">
        <ele>233.73</ele>
        <time>2018-08-29T07:51:53Z</time>
      </trkpt>
      <trkpt lat="47.64496" lon="6.18211">
        <ele>233.71</ele>
        <time>2018-08-29T07:51:55Z</time>
      </trkpt>
      <trkpt lat="47.64499" lon="6.18204">
        <ele>233.7</ele>
        <time>2018-08-29T07:51:57Z</time>
      </trkpt>
      <trkpt lat="47.645" lon="6.18196">
        <ele>233.68</ele>
        <time>2018-08-29T07:51:59Z</time>
      </trkpt>
      <trkpt lat="47.64501" lon="6.18186">
        <ele>233.59</ele>
        <time>2018-08-29T07:52:01Z</time>
      </trkpt>
      <trkpt lat="47.64499" lon="6.18176">
        <ele>233.57</ele>
        <time>2018-08-29T07:52:03Z</time>
      </trkpt>
      <trkpt lat="47.64497" lon="6.18166">
        <ele>233.57</ele>
        <time>2018-08-29T07:52:05Z</time>
      </trkpt>
      <trkpt lat="47.64495" lon="6.18155">
        <ele>233.54</ele>
        <time>2018-08-29T07:52:07Z</time>
      </trkpt>
      <trkpt lat="47.64494" lon="6.18144">
        <ele>233.53</ele>
        <time>2018-08-29T07:52:09Z</time>
      </trkpt>
      <trkpt lat="47.64495" lon="6.18133">
        <ele>233.53</ele>
        <time>2018-08-29T07:52:11Z</time>
      </trkpt>
      <trkpt lat="47.64495" lon="6.18123">
        <ele>233.52</ele>
        <time>2018-08-29T07:52:13Z</time>
      </trkpt>
      <trkpt lat="47.64497" lon="6.18114">
        <ele>233.52</ele>
        <time>2018-08-29T07:52:15Z</time>
      </trkpt>
      <trkpt lat="47.645" lon="6.18104">
        <ele>233.52</ele>
        <time>2018-08-29T07:52:17Z</time>
      </trkpt>
      <trkpt lat="47.64502" lon="6.18095">
        <ele>233.51</ele>
        <time>2018-08-29T07:52:19Z</time>
      </trkpt>
      <trkpt lat="47.64504" lon="6.18086">
        <ele>233.51</ele>
        <time>2018-08-29T07:52:21Z</time>
      </trkpt>
      <trkpt lat="47.64506" lon="6.18077">
        <ele>233.51</ele>
        <time>2018-08-29T07:52:23Z</time>
      </trkpt>
      <trkpt lat="47.64509" lon="6.18068">
        <ele>233.52</ele>
        <time>2018-08-29T07:52:25Z</time>
      </trkpt>
      <trkpt lat="47.6451" lon="6.1806">
        <ele>233.52</ele>
        <time>2018-08-29T07:52:27Z</time>
      </trkpt>
      <trkpt lat="47.64513" lon="6.18054">
        <ele>233.53</ele>
        <time>2018-08-29T07:52:29Z</time>
      </trkpt>
      <trkpt lat="47.64518" lon="6.18047">
        <ele>233.54</ele>
        <time>2018-08-29T07:52:32Z</time>
      </trkpt>
      <trkpt lat="47.64524" lon="6.18042">
        <ele>233.57</ele>
        <time>2018-08-29T07:52:35Z</time>
      </trkpt>
      <trkpt lat="47.6453" lon="6.18038">
        <ele>233.59</ele>
        <time>2018-08-29T07:52:38Z</time>
      </trkpt>
      <trkpt lat="47.64534" lon="6.18037">
        <ele>233.62</ele>
        <time>2018-08-29T07:52:41Z</time>
      </trkpt>
      <trkpt lat="47.64538" lon="6.18043">
        <ele>233.66</ele>
        <time>2018-08-29T07:52:47Z</time>
      </trkpt>
      <trkpt lat="47.6454" lon="6.18049">
        <ele>233.67</ele>
        <time>2018-08-29T07:52:51Z</time>
      </trkpt>
      <trkpt lat="47.64541" lon="6.18057">
        <ele>233.68</ele>
        <time>2018-08-29T07:52:55Z</time>
      </trkpt>
      <trkpt lat="47.64542" lon="6.18065">
        <ele>233.68</ele>
        <time>2018-08-29T07:52:59Z</time>
      </trkpt>
      <trkpt lat="47.64542" lon="6.18073">
        <ele>233.67</ele>
        <time>2018-08-29T07:53:04Z</time>
      </trkpt>
      <trkpt lat="47.64542" lon="6.1808">
        <ele>233.67</ele>
        <time>2018-08-29T07:53:07Z</time>
      </trkpt>
      <trkpt lat="47.64542" lon="6.18089">
        <ele>233.68</ele>
        <time>2018-08-29T07:53:11Z</time>
      </trkpt>
      <trkpt lat="47.64543" lon="6.18096">
        <ele>233.7</ele>
        <time>2018-08-29T07:53:15Z</time>
      </trkpt>
      <trkpt lat="47.64543" lon="6.18103">
        <ele>233.73</ele>
        <time>2018-08-29T07:53:18Z</time>
      </trkpt>
      <trkpt lat="47.64545" lon="6.18109">
        <ele>233.78</ele>
        <time>2018-08-29T07:53:23Z</time>
      </trkpt>
      <trkpt lat="47.6455" lon="6.18113">
        <ele>233.83</ele>
        <time>2018-08-29T07:53:28Z</time>
      </trkpt>
      <trkpt lat="47.64552" lon="6.1812">
        <ele>233.93</ele>
        <time>2018-08-29T07:53:33Z</time>
      </trkpt>
      <trkpt lat="47.64556" lon="6.18124">
        <ele>234.06</ele>
        <time>2018-08-29T07:53:38Z</time>
      </trkpt>
      <trkpt lat="47.64557" lon="6.18131">
        <ele>234.25</ele>
        <time>2018-08-29T07:53:44Z</time>
      </trkpt>
      <trkpt lat="47.64558" lon="6.18139">
        <ele>234.45</ele>
        <time>2018-08-29T07:53:49Z</time>
      </trkpt>
      <trkpt lat="47.64558" lon="6.18145">
        <ele>234.71</ele>
        <time>2018-08-29T07:53:55Z</time>
      </trkpt>
      <trkpt lat="47.64558" lon="6.18153">
        <ele>234.94</ele>
        <time>2018-08-29T07:54:00Z</time>
      </trkpt>
      <trkpt lat="47.64558" lon="6.1816">
        <ele>235.23</ele>
        <time>2018-08-29T07:54:06Z</time>
      </trkpt>
      <trkpt lat="47.64558" lon="6.18167">
        <ele>235.48</ele>
        <time>2018-08-29T07:54:11Z</time>
      </trkpt>
      <trkpt lat="47.64556" lon="6.18175">
        <ele>235.7</ele>
        <time>2018-08-29T07:54:15Z</time>
      </trkpt>
      <trkpt lat="47.64555" lon="6.18182">
        <ele>235.87</ele>
        <time>2018-08-29T07:54:18Z</time>
      </trkpt>
      <trkpt lat="47.64553" lon="6.18189">
        <ele>236.13</ele>
        <time>2018-08-29T07:54:22Z</time>
      </trkpt>
      <trkpt lat="47.64551" lon="6.18196">
        <ele>236.41</ele>
        <time>2018-08-29T07:54:26Z</time>
      </trkpt>
      <trkpt lat="47.64549" lon="6.18203">
        <ele>236.77</ele>
        <time>2018-08-29T07:54:31Z</time>
      </trkpt>
      <trkpt lat="47.64549" lon="6.18211">
        <ele>237.22</ele>
        <time>2018-08-29T07:54:37Z</time>
      </trkpt>
      <trkpt lat="47.64548" lon="6.18219">
        <ele>237.6</ele>
        <time>2018-08-29T07:54:42Z</time>
      </trkpt>
      <trkpt lat="47.64548" lon="6.18226">
        <ele>237.98</ele>
        <time>2018-08-29T07:54:47Z</time>
      </trkpt>
      <trkpt lat="47.64547" lon="6.18234">
        <ele>238.35</ele>
        <time>2018-08-29T07:54:52Z</time>
      </trkpt>
      <trkpt lat="47.64546" lon="6.18241">
        <ele>238.57</ele>
        <time>2018-08-29T07:54:55Z</time>
      </trkpt>
      <trkpt lat="47.64546" lon="6.18249">
        <ele>238.87</ele>
        <time>2018-08-29T07:54:59Z</time>
      </trkpt>
      <trkpt lat="47.64547" lon="6.18257">
        <ele>239.16</ele>
        <time>2018-08-29T07:55:03Z</time>
      </trkpt>
      <trkpt lat="47.64549" lon="6.18264">
        <ele>239.46</ele>
        <time>2018-08-29T07:55:07Z</time>
      </trkpt>
      <trkpt lat="47.64551" lon="6.1827">
        <ele>239.76</ele>
        <time>2018-08-29T07:55:11Z</time>
      </trkpt>
      <trkpt lat="47.64552" lon="6.18277">
        <ele>240.07</ele>
        <time>2018-08-29T07:55:15Z</time>
      </trkpt>
      <trkpt lat="47.64555" lon="6.18282">
        <ele>240.38</ele>
        <time>2018-08-29T07:55:19Z</time>
      </trkpt>
      <trkpt lat="47.64559" lon="6.18288">
        <ele>240.69</ele>
        <time>2018-08-29T07:55:23Z</time>
      </trkpt>
      <trkpt lat="47.64561" lon="6.18295">
        <ele>241.02</ele>
        <time>2018-08-29T07:55:27Z</time>
      </trkpt>
      <trkpt lat="47.64564" lon="6.18301">
        <ele>241.36</ele>
        <time>2018-08-29T07:55:31Z</time>
      </trkpt>
      <trkpt lat="47.64567" lon="6.18307">
        <ele>241.8</ele>
        <time>2018-08-29T07:55:36Z</time>
      </trkpt>
      <trkpt lat="47.6457" lon="6.18312">
        <ele>242.07</ele>
        <time>2018-08-29T07:55:39Z</time>
      </trkpt>
      <trkpt lat="47.64574" lon="6.18318">
        <ele>242.45</ele>
        <time>2018-08-29T07:55:43Z</time>
      </trkpt>
      <trkpt lat="47.64577" lon="6.18323">
        <ele>242.84</ele>
        <time>2018-08-29T07:55:47Z</time>
      </trkpt>
      <trkpt lat="47.64579" lon="6.18329">
        <ele>243.34</ele>
        <time>2018-08-29T07:55:52Z</time>
      </trkpt>
      <trkpt lat="47.64581" lon="6.18336">
        <ele>243.85</ele>
        <time>2018-08-29T07:55:57Z</time>
      </trkpt>
      <trkpt lat="47.64584" lon="6.18343">
        <ele>244.37</ele>
        <time>2018-08-29T07:56:02Z</time>
      </trkpt>
      <trkpt lat="47.64587" lon="6.18349">
        <ele>244.79</ele>
        <time>2018-08-29T07:56:06Z</time>
      </trkpt>
      <trkpt lat="47.6459" lon="6.18356">
        <ele>245.2</ele>
        <time>2018-08-29T07:56:10Z</time>
      </trkpt>
      <trkpt lat="47.64592" lon="6.18362">
        <ele>245.54</ele>
        <time>2018-08-29T07:56:14Z</time>
      </trkpt>
      <trkpt lat="47.64592" lon="6.18369">
        <ele>246.29</ele>
        <time>2018-08-29T07:56:38Z</time>
      </trkpt>
      <trkpt lat="47.64595" lon="6.18374">
        <ele>246.57</ele>
        <time>2018-08-29T07:56:41Z</time>
      </trkpt>
      <trkpt lat="47.646" lon="6.1838">
        <ele>246.85</ele>
        <time>2018-08-29T07:56:44Z</time>
      </trkpt>
      <trkpt lat="47.64605" lon="6.18385">
        <ele>247.11</ele>
        <time>2018-08-29T07:56:47Z</time>
      </trkpt>
      <trkpt lat="47.6461" lon="6.18389">
        <ele>247.37</ele>
        <time>2018-08-29T07:56:50Z</time>
      </trkpt>
      <trkpt lat="47.64615" lon="6.18395">
        <ele>247.61</ele>
        <time>2018-08-29T07:56:53Z</time>
      </trkpt>
      <trkpt lat="47.6462" lon="6.184">
        <ele>247.85</ele>
        <time>2018-08-29T07:56:56Z</time>
      </trkpt>
      <trkpt lat="47.64625" lon="6.18405">
        <ele>248.08</ele>
        <time>2018-08-29T07:56:59Z</time>
      </trkpt>
      <trkpt lat="47.6463" lon="6.18411">
        <ele>248.29</ele>
        <time>2018-08-29T07:57:02Z</time>
      </trkpt>
      <trkpt lat="47.64634" lon="6.18415">
        <ele>248.43</ele>
        <time>2018-08-29T07:57:04Z</time>
      </trkpt>
      <trkpt lat="47.64639" lon="6.18421">
        <ele>248.63</ele>
        <time>2018-08-29T07:57:07Z</time>
      </trkpt>
      <trkpt lat="47.64644" lon="6.18427">
        <ele>248.82</ele>
        <time>2018-08-29T07:57:10Z</time>
      </trkpt>
      <trkpt lat="47.64648" lon="6.18432">
        <ele>248.95</ele>
        <time>2018-08-29T07:57:12Z</time>
      </trkpt>
      <trkpt lat="47.64651" lon="6.18437">
        <ele>249.06</ele>
        <time>2018-08-29T07:57:14Z</time>
      </trkpt>
      <trkpt lat="47.64655" lon="6.18442">
        <ele>249.18</ele>
        <time>2018-08-29T07:57:16Z</time>
      </trkpt>
      <trkpt lat="47.64659" lon="6.18448">
        <ele>249.29</ele>
        <time>2018-08-29T07:57:18Z</time>
      </trkpt>
      <trkpt lat="47.64664" lon="6.18453">
        <ele>249.4</ele>
        <time>2018-08-29T07:57:20Z</time>
      </trkpt>
      <trkpt lat="47.64668" lon="6.18458">
        <ele>249.52</ele>
        <time>2018-08-29T07:57:22Z</time>
      </trkpt>
      <trkpt lat="47.64672" lon="6.18464">
        <ele>249.64</ele>
        <time>2018-08-29T07:57:24Z</time>
      </trkpt>
      <trkpt lat="47.64676" lon="6.1847">
        <ele>249.76</ele>
        <time>2018-08-29T07:57:26Z</time>
      </trkpt>
      <trkpt lat="47.6468" lon="6.18476">
        <ele>249.88</ele>
        <time>2018-08-29T07:57:28Z</time>
      </trkpt>
      <trkpt lat="47.64685" lon="6.18482">
        <ele>250.01</ele>
        <time>2018-08-29T07:57:30Z</time>
      </trkpt>
      <trkpt lat="47.64689" lon="6.18489">
        <ele>250.14</ele>
        <time>2018-08-29T07:57:32Z</time>
      </trkpt>
      <trkpt lat="47.64693" lon="6.18495">
        <ele>250.27</ele>
        <time>2018-08-29T07:57:34Z</time>
      </trkpt>
      <trkpt lat="47.64697" lon="6.18503">
        <ele>250.41</ele>
        <time>2018-08-29T07:57:36Z</time>
      </trkpt>
      <trkpt lat="47.64701" lon="6.18509">
        <ele>250.56</ele>
        <time>2018-08-29T07:57:38Z</time>
      </trkpt>
      <trkpt lat="47.64705" lon="6.18516">
        <ele>250.71</ele>
        <time>2018-08-29T07:57:40Z</time>
      </trkpt>
      <trkpt lat="47.64709" lon="6.18523">
        <ele>250.86</ele>
        <time>2018-08-29T07:57:42Z</time>
      </trkpt>
      <trkpt lat="47.64711" lon="6.18529">
        <ele>251.03</ele>
        <time>2018-08-29T07:57:44Z</time>
      </trkpt>
      <trkpt lat="47.64714" lon="6.18536">
        <ele>251.19</ele>
        <time>2018-08-29T07:57:46Z</time>
      </trkpt>
      <trkpt lat="47.64718" lon="6.18544">
        <ele>251.37</ele>
        <time>2018-08-29T07:57:48Z</time>
      </trkpt>
      <trkpt lat="47.64721" lon="6.18552">
        <ele>251.55</ele>
        <time>2018-08-29T07:57:50Z</time>
      </trkpt>
      <trkpt lat="47.64725" lon="6.1856">
        <ele>251.75</ele>
        <time>2018-08-29T07:57:52Z</time>
      </trkpt>
      <trkpt lat="47.64728" lon="6.18568">
        <ele>251.94</ele>
        <time>2018-08-29T07:57:54Z</time>
      </trkpt>
      <trkpt lat="47.64733" lon="6.18575">
        <ele>252.15</ele>
        <time>2018-08-29T07:57:56Z</time>
      </trkpt>
      <trkpt lat="47.64737" lon="6.18583">
        <ele>252.36</ele>
        <time>2018-08-29T07:57:58Z</time>
      </trkpt>
      <trkpt lat="47.6474" lon="6.1859">
        <ele>252.59</ele>
        <time>2018-08-29T07:58:00Z</time>
      </trkpt>
      <trkpt lat="47.64745" lon="6.18596">
        <ele>252.82</ele>
        <time>2018-08-29T07:58:02Z</time>
      </trkpt>
      <trkpt lat="47.64749" lon="6.18603">
        <ele>253.06</ele>
        <time>2018-08-29T07:58:04Z</time>
      </trkpt>
      <trkpt lat="47.64753" lon="6.1861">
        <ele>253.3</ele>
        <time>2018-08-29T07:58:06Z</time>
      </trkpt>
      <trkpt lat="47.64757" lon="6.18616">
        <ele>253.56</ele>
        <time>2018-08-29T07:58:08Z</time>
      </trkpt>
      <trkpt lat="47.64761" lon="6.18622">
        <ele>253.81</ele>
        <time>2018-08-29T07:58:10Z</time>
      </trkpt>
      <trkpt lat="47.64765" lon="6.18628">
        <ele>254.07</ele>
        <time>2018-08-29T07:58:12Z</time>
      </trkpt>
      <trkpt lat="47.64769" lon="6.18634">
        <ele>254.33</ele>
        <time>2018-08-29T07:58:14Z</time>
      </trkpt>
      <trkpt lat="47.64772" lon="6.18641">
        <ele>254.59</ele>
        <time>2018-08-29T07:58:16Z</time>
      </trkpt>
      <trkpt lat="47.64775" lon="6.18648">
        <ele>254.85</ele>
        <time>2018-08-29T07:58:18Z</time>
      </trkpt>
      <trkpt lat="47.64779" lon="6.18654">
        <ele>255.11</ele>
        <time>2018-08-29T07:58:20Z</time>
      </trkpt>
      <trkpt lat="47.64782" lon="6.1866">
        <ele>255.38</ele>
        <time>2018-08-29T07:58:22Z</time>
      </trkpt>
      <trkpt lat="47.64785" lon="6.18666">
        <ele>255.65</ele>
        <time>2018-08-29T07:58:24Z</time>
      </trkpt>
      <trkpt lat="47.64789" lon="6.18672">
        <ele>255.92</ele>
        <time>2018-08-29T07:58:26Z</time>
      </trkpt>
      <trkpt lat="47.64792" lon="6.18678">
        <ele>256.18</ele>
        <time>2018-08-29T07:58:28Z</time>
      </trkpt>
      <trkpt lat="47.64796" lon="6.18685">
        <ele>256.45</ele>
        <time>2018-08-29T07:58:30Z</time>
      </trkpt>
      <trkpt lat="47.64799" lon="6.18692">
        <ele>256.7</ele>
        <time>2018-08-29T07:58:32Z</time>
      </trkpt>
      <trkpt lat="47.64802" lon="6.18698">
        <ele>256.95</ele>
        <time>2018-08-29T07:58:34Z</time>
      </trkpt>
      <trkpt lat="47.64805" lon="6.18703">
        <ele>257.2</ele>
        <time>2018-08-29T07:58:36Z</time>
      </trkpt>
      <trkpt lat="47.64808" lon="6.18709">
        <ele>257.44</ele>
        <time>2018-08-29T07:58:38Z</time>
      </trkpt>
      <trkpt lat="47.64811" lon="6.18716">
        <ele>257.79</ele>
        <time>2018-08-29T07:58:41Z</time>
      </trkpt>
      <trkpt lat="47.64814" lon="6.18721">
        <ele>258.12</ele>
        <time>2018-08-29T07:58:44Z</time>
      </trkpt>
      <trkpt lat="47.64818" lon="6.18728">
        <ele>258.44</ele>
        <time>2018-08-29T07:58:47Z</time>
      </trkpt>
      <trkpt lat="47.64821" lon="6.18735">
        <ele>258.74</ele>
        <time>2018-08-29T07:58:50Z</time>
      </trkpt>
      <trkpt lat="47.64825" lon="6.18742">
        <ele>259.03</ele>
        <time>2018-08-29T07:58:53Z</time>
      </trkpt>
      <trkpt lat="47.64828" lon="6.1875">
        <ele>259.3</ele>
        <time>2018-08-29T07:58:56Z</time>
      </trkpt>
      <trkpt lat="47.6483" lon="6.18758">
        <ele>259.57</ele>
        <time>2018-08-29T07:58:59Z</time>
      </trkpt>
      <trkpt lat="47.64834" lon="6.18766">
        <ele>259.82</ele>
        <time>2018-08-29T07:59:02Z</time>
      </trkpt>
      <trkpt lat="47.64836" lon="6.18772">
        <ele>259.98</ele>
        <time>2018-08-29T07:59:04Z</time>
      </trkpt>
      <trkpt lat="47.64839" lon="6.1878">
        <ele>260.22</ele>
        <time>2018-08-29T07:59:07Z</time>
      </trkpt>
      <trkpt lat="47.64842" lon="6.18786">
        <ele>260.38</ele>
        <time>2018-08-29T07:59:09Z</time>
      </trkpt>
      <trkpt lat="47.64846" lon="6.1879">
        <ele>260.53</ele>
        <time>2018-08-29T07:59:11Z</time>
      </trkpt>
      <trkpt lat="47.64849" lon="6.18796">
        <ele>260.68</ele>
        <time>2018-08-29T07:59:13Z</time>
      </trkpt>
      <trkpt lat="47.64851" lon="6.18804">
        <ele>260.82</ele>
        <time>2018-08-29T07:59:15Z</time>
      </trkpt>
      <trkpt lat="47.64855" lon="6.1881">
        <ele>260.96</ele>
        <time>2018-08-29T07:59:17Z</time>
      </trkpt>
      <trkpt lat="47.64858" lon="6.18816">
        <ele>261.1</ele>
        <time>2018-08-29T07:59:19Z</time>
      </trkpt>
      <trkpt lat="47.6486" lon="6.18822">
        <ele>261.24</ele>
        <time>2018-08-29T07:59:21Z</time>
      </trkpt>
      <trkpt lat="47.64864" lon="6.18827">
        <ele>261.37</ele>
        <time>2018-08-29T07:59:23Z</time>
      </trkpt>
      <trkpt lat="47.64867" lon="6.18833">
        <ele>261.51</ele>
        <time>2018-08-29T07:59:25Z</time>
      </trkpt>
      <trkpt lat="47.6487" lon="6.1884">
        <ele>261.7</ele>
        <time>2018-08-29T07:59:28Z</time>
      </trkpt>
      <trkpt lat="47.64873" lon="6.18847">
        <ele>261.89</ele>
        <time>2018-08-29T07:59:31Z</time>
      </trkpt>
      <trkpt lat="47.64875" lon="6.18854">
        <ele>262.08</ele>
        <time>2018-08-29T07:59:34Z</time>
      </trkpt>
      <trkpt lat="47.64878" lon="6.18862">
        <ele>262.26</ele>
        <time>2018-08-29T07:59:37Z</time>
      </trkpt>
      <trkpt lat="47.64881" lon="6.18869">
        <ele>262.44</ele>
        <time>2018-08-29T07:59:40Z</time>
      </trkpt>
      <trkpt lat="47.64885" lon="6.18876">
        <ele>262.62</ele>
        <time>2018-08-29T07:59:43Z</time>
      </trkpt>
      <trkpt lat="47.64888" lon="6.18884">
        <ele>262.8</ele>
        <time>2018-08-29T07:59:46Z</time>
      </trkpt>
      <trkpt lat="47.64892" lon="6.18892">
        <ele>262.97</ele>
        <time>2018-08-29T07:59:49Z</time>
      </trkpt>
      <trkpt lat="47.64895" lon="6.18899">
        <ele>263.13</ele>
        <time>2018-08-29T07:59:52Z</time>
      </trkpt>
      <trkpt lat="47.64899" lon="6.18905">
        <ele>263.29</ele>
        <time>2018-08-29T07:59:55Z</time>
      </trkpt>
      <trkpt lat="47.64903" lon="6.18911">
        <ele>263.45</ele>
        <time>2018-08-29T07:59:58Z</time>
      </trkpt>
      <trkpt lat="47.64909" lon="6.18916">
        <ele>263.61</ele>
        <time>2018-08-29T08:00:01Z</time>
      </trkpt>
      <trkpt lat="47.64914" lon="6.1892">
        <ele>263.71</ele>
        <time>2018-08-29T08:00:03Z</time>
      </trkpt>
      <trkpt lat="47.64918" lon="6.18925">
        <ele>263.81</ele>
        <time>2018-08-29T08:00:05Z</time>
      </trkpt>
      <trkpt lat="47.64922" lon="6.18932">
        <ele>263.97</ele>
        <time>2018-08-29T08:00:08Z</time>
      </trkpt>
      <trkpt lat="47.64926" lon="6.18938">
        <ele>264.11</ele>
        <time>2018-08-29T08:00:11Z</time>
      </trkpt>
      <trkpt lat="47.6493" lon="6.18944">
        <ele>264.26</ele>
        <time>2018-08-29T08:00:14Z</time>
      </trkpt>
      <trkpt lat="47.64934" lon="6.1895">
        <ele>264.4</ele>
        <time>2018-08-29T08:00:17Z</time>
      </trkpt>
      <trkpt lat="47.64939" lon="6.18955">
        <ele>264.54</ele>
        <time>2018-08-29T08:00:20Z</time>
      </trkpt>
      <trkpt lat="47.64944" lon="6.18962">
        <ele>264.68</ele>
        <time>2018-08-29T08:00:23Z</time>
      </trkpt>
      <trkpt lat="47.64947" lon="6.18968">
        <ele>264.76</ele>
        <time>2018-08-29T08:00:25Z</time>
      </trkpt>
      <trkpt lat="47.6495" lon="6.18974">
        <ele>264.85</ele>
        <time>2018-08-29T08:00:27Z</time>
      </trkpt>
      <trkpt lat="47.64954" lon="6.18981">
        <ele>264.93</ele>
        <time>2018-08-29T08:00:29Z</time>
      </trkpt>
      <trkpt lat="47.64957" lon="6.18987">
        <ele>265.02</ele>
        <time>2018-08-29T08:00:31Z</time>
      </trkpt>
      <trkpt lat="47.6496" lon="6.18993">
        <ele>265.1</ele>
        <time>2018-08-29T08:00:33Z</time>
      </trkpt>
      <trkpt lat="47.64964" lon="6.18999">
        <ele>265.18</ele>
        <time>2018-08-29T08:00:35Z</time>
      </trkpt>
      <trkpt lat="47.64967" lon="6.19004">
        <ele>265.25</ele>
        <time>2018-08-29T08:00:37Z</time>
      </trkpt>
      <trkpt lat="47.6497" lon="6.1901">
        <ele>265.33</ele>
        <time>2018-08-29T08:00:39Z</time>
      </trkpt>
      <trkpt lat="47.64973" lon="6.19017">
        <ele>265.4</ele>
        <time>2018-08-29T08:00:41Z</time>
      </trkpt>
      <trkpt lat="47.64977" lon="6.19024">
        <ele>265.51</ele>
        <time>2018-08-29T08:00:44Z</time>
      </trkpt>
      <trkpt lat="47.6498" lon="6.1903">
        <ele>265.58</ele>
        <time>2018-08-29T08:00:46Z</time>
      </trkpt>
      <trkpt lat="47.64982" lon="6.19035">
        <ele>265.65</ele>
        <time>2018-08-29T08:00:48Z</time>
      </trkpt>
      <trkpt lat="47.64985" lon="6.19041">
        <ele>265.73</ele>
        <time>2018-08-29T08:00:50Z</time>
      </trkpt>
      <trkpt lat="47.64989" lon="6.19049">
        <ele>265.83</ele>
        <time>2018-08-29T08:00:53Z</time>
      </trkpt>
      <trkpt lat="47.64994" lon="6.19054">
        <ele>265.94</ele>
        <time>2018-08-29T08:00:56Z</time>
      </trkpt>
      <trkpt lat="47.65" lon="6.19052">
        <ele>266.05</ele>
        <time>2018-08-29T08:00:59Z</time>
      </trkpt>
      <trkpt lat="47.65004" lon="6.19046">
        <ele>266.16</ele>
        <time>2018-08-29T08:01:02Z</time>
      </trkpt>
      <trkpt lat="47.65008" lon="6.19041">
        <ele>266.24</ele>
        <time>2018-08-29T08:01:04Z</time>
      </trkpt>
      <trkpt lat="47.65011" lon="6.19036">
        <ele>266.31</ele>
        <time>2018-08-29T08:01:06Z</time>
      </trkpt>
      <trkpt lat="47.65016" lon="6.1903">
        <ele>266.43</ele>
        <time>2018-08-29T08:01:09Z</time>
      </trkpt>
      <trkpt lat="47.65021" lon="6.19025">
        <ele>266.55</ele>
        <time>2018-08-29T08:01:12Z</time>
      </trkpt>
      <trkpt lat="47.65026" lon="6.19019">
        <ele>266.67</ele>
        <time>2018-08-29T08:01:15Z</time>
      </trkpt>
      <trkpt lat="47.6503" lon="6.19014">
        <ele>266.79</ele>
        <time>2018-08-29T08:01:18Z</time>
      </trkpt>
      <trkpt lat="47.65036" lon="6.1901">
        <ele>266.91</ele>
        <time>2018-08-29T08:01:21Z</time>
      </trkpt>
      <trkpt lat="47.6504" lon="6.19005">
        <ele>267.04</ele>
        <time>2018-08-29T08:01:24Z</time>
      </trkpt>
      <trkpt lat="47.65045" lon="6.19001">
        <ele>267.16</ele>
        <time>2018-08-29T08:01:27Z</time>
      </trkpt>
      <trkpt lat="47.65049" lon="6.18997">
        <ele>267.29</ele>
        <time>2018-08-29T08:01:30Z</time>
      </trkpt>
      <trkpt lat="47.65054" lon="6.18991">
        <ele>267.42</ele>
        <time>2018-08-29T08:01:33Z</time>
      </trkpt>
      <trkpt lat="47.65058" lon="6.18986">
        <ele>267.55</ele>
        <time>2018-08-29T08:01:36Z</time>
      </trkpt>
      <trkpt lat="47.65062" lon="6.18979">
        <ele>267.68</ele>
        <time>2018-08-29T08:01:39Z</time>
      </trkpt>
      <trkpt lat="47.65066" lon="6.18973">
        <ele>267.81</ele>
        <time>2018-08-29T08:01:42Z</time>
      </trkpt>
      <trkpt lat="47.6507" lon="6.18968">
        <ele>267.95</ele>
        <time>2018-08-29T08:01:45Z</time>
      </trkpt>
      <trkpt lat="47.65074" lon="6.18963">
        <ele>268.04</ele>
        <time>2018-08-29T08:01:47Z</time>
      </trkpt>
      <trkpt lat="47.65079" lon="6.18957">
        <ele>268.17</ele>
        <time>2018-08-29T08:01:50Z</time>
      </trkpt>
      <trkpt lat="47.65084" lon="6.1895">
        <ele>268.3</ele>
        <time>2018-08-29T08:01:53Z</time>
      </trkpt>
      <trkpt lat="47.65089" lon="6.18944">
        <ele>268.44</ele>
        <time>2018-08-29T08:01:56Z</time>
      </trkpt>
      <trkpt lat="47.65093" lon="6.18939">
        <ele>268.8</ele>
        <time>2018-08-29T08:01:58Z</time>
      </trkpt>
      <trkpt lat="47.65099" lon="6.18933">
        <ele>269.44</ele>
        <time>2018-08-29T08:02:00Z</time>
      </trkpt>
      <trkpt lat="47.65105" lon="6.18927">
        <ele>269.89</ele>
        <time>2018-08-29T08:02:02Z</time>
      </trkpt>
      <trkpt lat="47.65112" lon="6.18919">
        <ele>270.19</ele>
        <time>2018-08-29T08:02:04Z</time>
      </trkpt>
      <trkpt lat="47.65124" lon="6.18907">
        <ele>270.3</ele>
        <time>2018-08-29T08:02:05Z</time>
      </trkpt>
      <trkpt lat="47.65127" lon="6.18903">
        <ele>270.39</ele>
        <time>2018-08-29T08:02:06Z</time>
      </trkpt>
      <trkpt lat="47.65134" lon="6.18895">
        <ele>270.5</ele>
        <time>2018-08-29T08:02:08Z</time>
      </trkpt>
      <trkpt lat="47.65139" lon="6.18889">
        <ele>270.52</ele>
        <time>2018-08-29T08:02:10Z</time>
      </trkpt>
      <trkpt lat="47.65143" lon="6.18884">
        <ele>270.54</ele>
        <time>2018-08-29T08:02:13Z</time>
      </trkpt>
      <trkpt lat="47.65148" lon="6.18879">
        <ele>270.57</ele>
        <time>2018-08-29T08:02:16Z</time>
      </trkpt>
      <trkpt lat="47.65153" lon="6.18873">
        <ele>270.6</ele>
        <time>2018-08-29T08:02:19Z</time>
      </trkpt>
      <trkpt lat="47.65158" lon="6.18867">
        <ele>270.63</ele>
        <time>2018-08-29T08:02:22Z</time>
      </trkpt>
      <trkpt lat="47.65161" lon="6.18863">
        <ele>270.66</ele>
        <time>2018-08-29T08:02:24Z</time>
      </trkpt>
      <trkpt lat="47.65165" lon="6.18858">
        <ele>270.69</ele>
        <time>2018-08-29T08:02:26Z</time>
      </trkpt>
      <trkpt lat="47.6517" lon="6.18854">
        <ele>270.72</ele>
        <time>2018-08-29T08:02:28Z</time>
      </trkpt>
      <trkpt lat="47.65174" lon="6.18849">
        <ele>270.75</ele>
        <time>2018-08-29T08:02:30Z</time>
      </trkpt>
      <trkpt lat="47.6518" lon="6.18844">
        <ele>270.78</ele>
        <time>2018-08-29T08:02:32Z</time>
      </trkpt>
      <trkpt lat="47.65185" lon="6.1884">
        <ele>270.81</ele>
        <time>2018-08-29T08:02:34Z</time>
      </trkpt>
      <trkpt lat="47.6519" lon="6.18836">
        <ele>270.85</ele>
        <time>2018-08-29T08:02:36Z</time>
      </trkpt>
      <trkpt lat="47.65195" lon="6.18831">
        <ele>270.88</ele>
        <time>2018-08-29T08:02:38Z</time>
      </trkpt>
      <trkpt lat="47.65199" lon="6.18826">
        <ele>270.91</ele>
        <time>2018-08-29T08:02:40Z</time>
      </trkpt>
      <trkpt lat="47.65203" lon="6.1882">
        <ele>270.95</ele>
        <time>2018-08-29T08:02:42Z</time>
      </trkpt>
      <trkpt lat="47.65207" lon="6.18815">
        <ele>270.99</ele>
        <time>2018-08-29T08:02:44Z</time>
      </trkpt>
      <trkpt lat="47.6521" lon="6.1881">
        <ele>271.03</ele>
        <time>2018-08-29T08:02:46Z</time>
      </trkpt>
      <trkpt lat="47.65213" lon="6.18804">
        <ele>271.06</ele>
        <time>2018-08-29T08:02:48Z</time>
      </trkpt>
      <trkpt lat="47.65218" lon="6.18798">
        <ele>271.1</ele>
        <time>2018-08-29T08:02:50Z</time>
      </trkpt>
      <trkpt lat="47.65222" lon="6.18793">
        <ele>271.14</ele>
        <time>2018-08-29T08:02:52Z</time>
      </trkpt>
      <trkpt lat="47.65226" lon="6.18788">
        <ele>271.17</ele>
        <time>2018-08-29T08:02:54Z</time>
      </trkpt>
      <trkpt lat="47.6523" lon="6.18784">
        <ele>271.21</ele>
        <time>2018-08-29T08:02:56Z</time>
      </trkpt>
      <trkpt lat="47.65234" lon="6.18779">
        <ele>271.25</ele>
        <time>2018-08-29T08:02:58Z</time>
      </trkpt>
      <trkpt lat="47.65238" lon="6.18775">
        <ele>271.28</ele>
        <time>2018-08-29T08:03:00Z</time>
      </trkpt>
      <trkpt lat="47.65242" lon="6.18771">
        <ele>271.32</ele>
        <time>2018-08-29T08:03:02Z</time>
      </trkpt>
      <trkpt lat="47.65246" lon="6.18766">
        <ele>271.36</ele>
        <time>2018-08-29T08:03:04Z</time>
      </trkpt>
      <trkpt lat="47.6525" lon="6.18762">
        <ele>271.39</ele>
        <time>2018-08-29T08:03:06Z</time>
      </trkpt>
      <trkpt lat="47.65254" lon="6.18757">
        <ele>271.43</ele>
        <time>2018-08-29T08:03:08Z</time>
      </trkpt>
      <trkpt lat="47.65257" lon="6.18753">
        <ele>271.47</ele>
        <time>2018-08-29T08:03:10Z</time>
      </trkpt>
      <trkpt lat="47.65262" lon="6.18747">
        <ele>271.53</ele>
        <time>2018-08-29T08:03:13Z</time>
      </trkpt>
      <trkpt lat="47.65267" lon="6.18742">
        <ele>271.58</ele>
        <time>2018-08-29T08:03:16Z</time>
      </trkpt>
      <trkpt lat="47.65272" lon="6.18736">
        <ele>271.64</ele>
        <time>2018-08-29T08:03:19Z</time>
      </trkpt>
      <trkpt lat="47.65277" lon="6.1873">
        <ele>271.71</ele>
        <time>2018-08-29T08:03:22Z</time>
      </trkpt>
      <trkpt lat="47.65282" lon="6.18724">
        <ele>271.77</ele>
        <time>2018-08-29T08:03:25Z</time>
      </trkpt>
      <trkpt lat="47.65286" lon="6.18719">
        <ele>271.83</ele>
        <time>2018-08-29T08:03:28Z</time>
      </trkpt>
      <trkpt lat="47.65291" lon="6.18713">
        <ele>271.9</ele>
        <time>2018-08-29T08:03:31Z</time>
      </trkpt>
      <trkpt lat="47.65296" lon="6.18707">
        <ele>271.96</ele>
        <time>2018-08-29T08:03:34Z</time>
      </trkpt>
      <trkpt lat="47.653" lon="6.18701">
        <ele>272.03</ele>
        <time>2018-08-29T08:03:37Z</time>
      </trkpt>
      <trkpt lat="47.65304" lon="6.18696">
        <ele>272.08</ele>
        <time>2018-08-29T08:03:39Z</time>
      </trkpt>
      <trkpt lat="47.65308" lon="6.18692">
        <ele>272.12</ele>
        <time>2018-08-29T08:03:41Z</time>
      </trkpt>
      <trkpt lat="47.65313" lon="6.18686">
        <ele>272.17</ele>
        <time>2018-08-29T08:03:43Z</time>
      </trkpt>
      <trkpt lat="47.65317" lon="6.18682">
        <ele>272.22</ele>
        <time>2018-08-29T08:03:45Z</time>
      </trkpt>
      <trkpt lat="47.6532" lon="6.18677">
        <ele>272.26</ele>
        <time>2018-08-29T08:03:47Z</time>
      </trkpt>
      <trkpt lat="47.65325" lon="6.1867">
        <ele>272.34</ele>
        <time>2018-08-29T08:03:50Z</time>
      </trkpt>
      <trkpt lat="47.65329" lon="6.18664">
        <ele>272.41</ele>
        <time>2018-08-29T08:03:53Z</time>
      </trkpt>
      <trkpt lat="47.65334" lon="6.18658">
        <ele>272.49</ele>
        <time>2018-08-29T08:03:56Z</time>
      </trkpt>
      <trkpt lat="47.65338" lon="6.18652">
        <ele>272.56</ele>
        <time>2018-08-29T08:03:59Z</time>
      </trkpt>
      <trkpt lat="47.65343" lon="6.18644">
        <ele>272.63</ele>
        <time>2018-08-29T08:04:02Z</time>
      </trkpt>
      <trkpt lat="47.65346" lon="6.18639">
        <ele>272.68</ele>
        <time>2018-08-29T08:04:04Z</time>
      </trkpt>
      <trkpt lat="47.6535" lon="6.18633">
        <ele>272.73</ele>
        <time>2018-08-29T08:04:06Z</time>
      </trkpt>
      <trkpt lat="47.65355" lon="6.18626">
        <ele>273.09</ele>
        <time>2018-08-29T08:04:08Z</time>
      </trkpt>
      <trkpt lat="47.6536" lon="6.18618">
        <ele>273.4</ele>
        <time>2018-08-29T08:04:10Z</time>
      </trkpt>
      <trkpt lat="47.65367" lon="6.18609">
        <ele>273.61</ele>
        <time>2018-08-29T08:04:12Z</time>
      </trkpt>
      <trkpt lat="47.65373" lon="6.186">
        <ele>273.75</ele>
        <time>2018-08-29T08:04:14Z</time>
      </trkpt>
      <trkpt lat="47.65378" lon="6.18591">
        <ele>273.86</ele>
        <time>2018-08-29T08:04:16Z</time>
      </trkpt>
      <trkpt lat="47.65384" lon="6.18582">
        <ele>273.88</ele>
        <time>2018-08-29T08:04:18Z</time>
      </trkpt>
      <trkpt lat="47.65389" lon="6.18574">
        <ele>273.89</ele>
        <time>2018-08-29T08:04:20Z</time>
      </trkpt>
      <trkpt lat="47.65393" lon="6.18567">
        <ele>273.9</ele>
        <time>2018-08-29T08:04:22Z</time>
      </trkpt>
      <trkpt lat="47.65397" lon="6.18561">
        <ele>273.91</ele>
        <time>2018-08-29T08:04:24Z</time>
      </trkpt>
      <trkpt lat="47.654" lon="6.18556">
        <ele>273.92</ele>
        <time>2018-08-29T08:04:26Z</time>
      </trkpt>
      <trkpt lat="47.65403" lon="6.18551">
        <ele>273.93</ele>
        <time>2018-08-29T08:04:28Z</time>
      </trkpt>
      <trkpt lat="47.65407" lon="6.18546">
        <ele>273.95</ele>
        <time>2018-08-29T08:04:30Z</time>
      </trkpt>
      <trkpt lat="47.6541" lon="6.1854">
        <ele>273.96</ele>
        <time>2018-08-29T08:04:32Z</time>
      </trkpt>
      <trkpt lat="47.65413" lon="6.18535">
        <ele>273.97</ele>
        <time>2018-08-29T08:04:34Z</time>
      </trkpt>
      <trkpt lat="47.65416" lon="6.1853">
        <ele>273.99</ele>
        <time>2018-08-29T08:04:36Z</time>
      </trkpt>
      <trkpt lat="47.6542" lon="6.18525">
        <ele>274.01</ele>
        <time>2018-08-29T08:04:38Z</time>
      </trkpt>
      <trkpt lat="47.65423" lon="6.1852">
        <ele>274.02</ele>
        <time>2018-08-29T08:04:40Z</time>
      </trkpt>
      <trkpt lat="47.65427" lon="6.18514">
        <ele>274.04</ele>
        <time>2018-08-29T08:04:42Z</time>
      </trkpt>
      <trkpt lat="47.65431" lon="6.18509">
        <ele>274.05</ele>
        <time>2018-08-29T08:04:44Z</time>
      </trkpt>
      <trkpt lat="47.65435" lon="6.18504">
        <ele>274.07</ele>
        <time>2018-08-29T08:04:46Z</time>
      </trkpt>
      <trkpt lat="47.65439" lon="6.18498">
        <ele>274.09</ele>
        <time>2018-08-29T08:04:48Z</time>
      </trkpt>
      <trkpt lat="47.65444" lon="6.18493">
        <ele>274.1</ele>
        <time>2018-08-29T08:04:50Z</time>
      </trkpt>
      <trkpt lat="47.65448" lon="6.18489">
        <ele>274.12</ele>
        <time>2018-08-29T08:04:52Z</time>
      </trkpt>
      <trkpt lat="47.65452" lon="6.18485">
        <ele>274.13</ele>
        <time>2018-08-29T08:04:54Z</time>
      </trkpt>
      <trkpt lat="47.65456" lon="6.18481">
        <ele>274.15</ele>
        <time>2018-08-29T08:04:56Z</time>
      </trkpt>
      <trkpt lat="47.6546" lon="6.18478">
        <ele>274.17</ele>
        <time>2018-08-29T08:04:58Z</time>
      </trkpt>
      <trkpt lat="47.65466" lon="6.18474">
        <ele>274.19</ele>
        <time>2018-08-29T08:05:01Z</time>
      </trkpt>
      <trkpt lat="47.65471" lon="6.18471">
        <ele>274.21</ele>
        <time>2018-08-29T08:05:04Z</time>
      </trkpt>
      <trkpt lat="47.65476" lon="6.18467">
        <ele>274.23</ele>
        <time>2018-08-29T08:05:07Z</time>
      </trkpt>
      <trkpt lat="47.65481" lon="6.18463">
        <ele>274.25</ele>
        <time>2018-08-29T08:05:10Z</time>
      </trkpt>
      <trkpt lat="47.65487" lon="6.1846">
        <ele>274.26</ele>
        <time>2018-08-29T08:05:13Z</time>
      </trkpt>
      <trkpt lat="47.65491" lon="6.18457">
        <ele>274.27</ele>
        <time>2018-08-29T08:05:15Z</time>
      </trkpt>
      <trkpt lat="47.65496" lon="6.18453">
        <ele>274.28</ele>
        <time>2018-08-29T08:05:18Z</time>
      </trkpt>
      <trkpt lat="47.65502" lon="6.18447">
        <ele>274.29</ele>
        <time>2018-08-29T08:05:21Z</time>
      </trkpt>
      <trkpt lat="47.65506" lon="6.18443">
        <ele>274.29</ele>
        <time>2018-08-29T08:05:23Z</time>
      </trkpt>
      <trkpt lat="47.6551" lon="6.18439">
        <ele>274.3</ele>
        <time>2018-08-29T08:05:25Z</time>
      </trkpt>
      <trkpt lat="47.65513" lon="6.18434">
        <ele>274.31</ele>
        <time>2018-08-29T08:05:27Z</time>
      </trkpt>
      <trkpt lat="47.65519" lon="6.18429">
        <ele>274.32</ele>
        <time>2018-08-29T08:05:30Z</time>
      </trkpt>
      <trkpt lat="47.65524" lon="6.18424">
        <ele>274.33</ele>
        <time>2018-08-29T08:05:33Z</time>
      </trkpt>
      <trkpt lat="47.65529" lon="6.18421">
        <ele>274.34</ele>
        <time>2018-08-29T08:05:36Z</time>
      </trkpt>
      <trkpt lat="47.65534" lon="6.1842">
        <ele>274.36</ele>
        <time>2018-08-29T08:05:39Z</time>
      </trkpt>
      <trkpt lat="47.65539" lon="6.18417">
        <ele>274.37</ele>
        <time>2018-08-29T08:05:42Z</time>
      </trkpt>
      <trkpt lat="47.65545" lon="6.18416">
        <ele>274.39</ele>
        <time>2018-08-29T08:05:45Z</time>
      </trkpt>
      <trkpt lat="47.65552" lon="6.18417">
        <ele>274.4</ele>
        <time>2018-08-29T08:05:47Z</time>
      </trkpt>
      <trkpt lat="47.65559" lon="6.18416">
        <ele>274.41</ele>
        <time>2018-08-29T08:05:49Z</time>
      </trkpt>
      <trkpt lat="47.65565" lon="6.18416">
        <ele>274.42</ele>
        <time>2018-08-29T08:05:51Z</time>
      </trkpt>
      <trkpt lat="47.65569" lon="6.18414">
        <ele>274.45</ele>
        <time>2018-08-29T08:05:53Z</time>
      </trkpt>
      <trkpt lat="47.65575" lon="6.18411">
        <ele>274.48</ele>
        <time>2018-08-29T08:05:56Z</time>
      </trkpt>
      <trkpt lat="47.6558" lon="6.18408">
        <ele>274.53</ele>
        <time>2018-08-29T08:05:59Z</time>
      </trkpt>
      <trkpt lat="47.65586" lon="6.18404">
        <ele>274.58</ele>
        <time>2018-08-29T08:06:02Z</time>
      </trkpt>
      <trkpt lat="47.65591" lon="6.184">
        <ele>274.63</ele>
        <time>2018-08-29T08:06:05Z</time>
      </trkpt>
      <trkpt lat="47.65596" lon="6.18397">
        <ele>274.69</ele>
        <time>2018-08-29T08:06:08Z</time>
      </trkpt>
      <trkpt lat="47.65601" lon="6.18394">
        <ele>274.72</ele>
        <time>2018-08-29T08:06:10Z</time>
      </trkpt>
      <trkpt lat="47.65607" lon="6.18391">
        <ele>274.76</ele>
        <time>2018-08-29T08:06:12Z</time>
      </trkpt>
      <trkpt lat="47.65612" lon="6.18388">
        <ele>274.8</ele>
        <time>2018-08-29T08:06:14Z</time>
      </trkpt>
      <trkpt lat="47.65617" lon="6.18385">
        <ele>274.83</ele>
        <time>2018-08-29T08:06:16Z</time>
      </trkpt>
      <trkpt lat="47.65624" lon="6.18381">
        <ele>274.87</ele>
        <time>2018-08-29T08:06:18Z</time>
      </trkpt>
      <trkpt lat="47.6563" lon="6.18379">
        <ele>274.9</ele>
        <time>2018-08-29T08:06:20Z</time>
      </trkpt>
      <trkpt lat="47.65636" lon="6.18377">
        <ele>274.93</ele>
        <time>2018-08-29T08:06:22Z</time>
      </trkpt>
      <trkpt lat="47.65643" lon="6.18376">
        <ele>274.97</ele>
        <time>2018-08-29T08:06:24Z</time>
      </trkpt>
      <trkpt lat="47.65648" lon="6.18375">
        <ele>275</ele>
        <time>2018-08-29T08:06:26Z</time>
      </trkpt>
      <trkpt lat="47.65653" lon="6.18375">
        <ele>275.03</ele>
        <time>2018-08-29T08:06:28Z</time>
      </trkpt>
      <trkpt lat="47.65659" lon="6.18374">
        <ele>275.08</ele>
        <time>2018-08-29T08:06:31Z</time>
      </trkpt>
      <trkpt lat="47.65665" lon="6.18374">
        <ele>275.13</ele>
        <time>2018-08-29T08:06:34Z</time>
      </trkpt>
      <trkpt lat="47.6567" lon="6.18374">
        <ele>275.17</ele>
        <time>2018-08-29T08:06:37Z</time>
      </trkpt>
      <trkpt lat="47.65675" lon="6.18373">
        <ele>275.23</ele>
        <time>2018-08-29T08:06:41Z</time>
      </trkpt>
      <trkpt lat="47.6568" lon="6.18372">
        <ele>275.26</ele>
        <time>2018-08-29T08:06:44Z</time>
      </trkpt>
      <trkpt lat="47.65685" lon="6.1837">
        <ele>275.29</ele>
        <time>2018-08-29T08:06:46Z</time>
      </trkpt>
      <trkpt lat="47.65691" lon="6.18369">
        <ele>275.31</ele>
        <time>2018-08-29T08:06:48Z</time>
      </trkpt>
      <trkpt lat="47.65696" lon="6.18366">
        <ele>275.33</ele>
        <time>2018-08-29T08:06:50Z</time>
      </trkpt>
      <trkpt lat="47.65701" lon="6.18362">
        <ele>275.35</ele>
        <time>2018-08-29T08:06:52Z</time>
      </trkpt>
      <trkpt lat="47.65706" lon="6.18357">
        <ele>275.39</ele>
        <time>2018-08-29T08:06:55Z</time>
      </trkpt>
      <trkpt lat="47.65711" lon="6.18352">
        <ele>275.41</ele>
        <time>2018-08-29T08:06:57Z</time>
      </trkpt>
      <trkpt lat="47.65716" lon="6.18346">
        <ele>275.43</ele>
        <time>2018-08-29T08:06:59Z</time>
      </trkpt>
      <trkpt lat="47.65721" lon="6.18337">
        <ele>275.59</ele>
        <time>2018-08-29T08:07:01Z</time>
      </trkpt>
      <trkpt lat="47.65725" lon="6.18332">
        <ele>275.65</ele>
        <time>2018-08-29T08:07:02Z</time>
      </trkpt>
      <trkpt lat="47.65728" lon="6.18327">
        <ele>275.71</ele>
        <time>2018-08-29T08:07:03Z</time>
      </trkpt>
      <trkpt lat="47.65733" lon="6.18322">
        <ele>275.76</ele>
        <time>2018-08-29T08:07:04Z</time>
      </trkpt>
      <trkpt lat="47.65737" lon="6.18317">
        <ele>275.8</ele>
        <time>2018-08-29T08:07:05Z</time>
      </trkpt>
      <trkpt lat="47.65741" lon="6.18313">
        <ele>275.83</ele>
        <time>2018-08-29T08:07:06Z</time>
      </trkpt>
      <trkpt lat="47.65745" lon="6.18308">
        <ele>275.84</ele>
        <time>2018-08-29T08:07:07Z</time>
      </trkpt>
      <trkpt lat="47.65748" lon="6.18304">
        <ele>275.84</ele>
        <time>2018-08-29T08:07:08Z</time>
      </trkpt>
      <trkpt lat="47.65755" lon="6.18297">
        <ele>275.85</ele>
        <time>2018-08-29T08:07:10Z</time>
      </trkpt>
      <trkpt lat="47.65762" lon="6.18291">
        <ele>275.85</ele>
        <time>2018-08-29T08:07:12Z</time>
      </trkpt>
      <trkpt lat="47.65768" lon="6.18287">
        <ele>275.86</ele>
        <time>2018-08-29T08:07:14Z</time>
      </trkpt>
      <trkpt lat="47.65773" lon="6.18282">
        <ele>275.86</ele>
        <time>2018-08-29T08:07:16Z</time>
      </trkpt>
      <trkpt lat="47.65778" lon="6.18278">
        <ele>275.87</ele>
        <time>2018-08-29T08:07:18Z</time>
      </trkpt>
      <trkpt lat="47.65784" lon="6.18274">
        <ele>275.87</ele>
        <time>2018-08-29T08:07:20Z</time>
      </trkpt>
      <trkpt lat="47.65789" lon="6.18271">
        <ele>275.88</ele>
        <time>2018-08-29T08:07:22Z</time>
      </trkpt>
      <trkpt lat="47.65794" lon="6.18268">
        <ele>275.88</ele>
        <time>2018-08-29T08:07:24Z</time>
      </trkpt>
      <trkpt lat="47.65798" lon="6.18264">
        <ele>275.88</ele>
        <time>2018-08-29T08:07:26Z</time>
      </trkpt>
      <trkpt lat="47.65804" lon="6.1826">
        <ele>275.89</ele>
        <time>2018-08-29T08:07:29Z</time>
      </trkpt>
      <trkpt lat="47.65809" lon="6.18256">
        <ele>275.89</ele>
        <time>2018-08-29T08:07:31Z</time>
      </trkpt>
      <trkpt lat="47.65814" lon="6.18253">
        <ele>275.89</ele>
        <time>2018-08-29T08:07:33Z</time>
      </trkpt>
      <trkpt lat="47.65818" lon="6.1825">
        <ele>275.89</ele>
        <time>2018-08-29T08:07:35Z</time>
      </trkpt>
      <trkpt lat="47.65822" lon="6.18247">
        <ele>275.9</ele>
        <time>2018-08-29T08:07:37Z</time>
      </trkpt>
      <trkpt lat="47.65827" lon="6.18243">
        <ele>275.9</ele>
        <time>2018-08-29T08:07:39Z</time>
      </trkpt>
      <trkpt lat="47.65831" lon="6.1824">
        <ele>275.9</ele>
        <time>2018-08-29T08:07:41Z</time>
      </trkpt>
      <trkpt lat="47.65837" lon="6.18237">
        <ele>275.9</ele>
        <time>2018-08-29T08:07:43Z</time>
      </trkpt>
      <trkpt lat="47.65842" lon="6.18233">
        <ele>275.9</ele>
        <time>2018-08-29T08:07:45Z</time>
      </trkpt>
      <trkpt lat="47.65847" lon="6.18234">
        <ele>275.91</ele>
        <time>2018-08-29T08:07:47Z</time>
      </trkpt>
      <trkpt lat="47.6585" lon="6.18239">
        <ele>275.91</ele>
        <time>2018-08-29T08:07:50Z</time>
      </trkpt>
      <trkpt lat="47.6585" lon="6.18247">
        <ele>275.9</ele>
        <time>2018-08-29T08:07:54Z</time>
      </trkpt>
      <trkpt lat="47.65849" lon="6.18253">
        <ele>275.9</ele>
        <time>2018-08-29T08:07:57Z</time>
      </trkpt>
      <trkpt lat="47.65848" lon="6.18261">
        <ele>275.9</ele>
        <time>2018-08-29T08:08:01Z</time>
      </trkpt>
      <trkpt lat="47.65847" lon="6.18269">
        <ele>275.9</ele>
        <time>2018-08-29T08:08:04Z</time>
      </trkpt>
      <trkpt lat="47.65847" lon="6.18277">
        <ele>275.91</ele>
        <time>2018-08-29T08:08:08Z</time>
      </trkpt>
      <trkpt lat="47.65847" lon="6.18285">
        <ele>275.91</ele>
        <time>2018-08-29T08:08:12Z</time>
      </trkpt>
      <trkpt lat="47.65847" lon="6.18293">
        <ele>275.92</ele>
        <time>2018-08-29T08:08:16Z</time>
      </trkpt>
      <trkpt lat="47.65847" lon="6.18302">
        <ele>275.94</ele>
        <time>2018-08-29T08:08:20Z</time>
      </trkpt>
      <trkpt lat="47.65847" lon="6.1831">
        <ele>275.96</ele>
        <time>2018-08-29T08:08:24Z</time>
      </trkpt>
      <trkpt lat="47.65848" lon="6.18318">
        <ele>275.99</ele>
        <time>2018-08-29T08:08:28Z</time>
      </trkpt>
      <trkpt lat="47.65849" lon="6.18326">
        <ele>276.01</ele>
        <time>2018-08-29T08:08:32Z</time>
      </trkpt>
      <trkpt lat="47.6585" lon="6.18334">
        <ele>276.04</ele>
        <time>2018-08-29T08:08:36Z</time>
      </trkpt>
      <trkpt lat="47.65851" lon="6.18341">
        <ele>276.07</ele>
        <time>2018-08-29T08:08:39Z</time>
      </trkpt>
      <trkpt lat="47.65853" lon="6.18349">
        <ele>276.11</ele>
        <time>2018-08-29T08:08:43Z</time>
      </trkpt>
      <trkpt lat="47.65854" lon="6.18355">
        <ele>276.15</ele>
        <time>2018-08-29T08:08:47Z</time>
      </trkpt>
      <trkpt lat="47.65854" lon="6.18363">
        <ele>276.19</ele>
        <time>2018-08-29T08:08:51Z</time>
      </trkpt>
      <trkpt lat="47.65855" lon="6.18371">
        <ele>276.24</ele>
        <time>2018-08-29T08:08:55Z</time>
      </trkpt>
      <trkpt lat="47.65856" lon="6.18378">
        <ele>276.28</ele>
        <time>2018-08-29T08:08:59Z</time>
      </trkpt>
      <trkpt lat="47.65857" lon="6.18386">
        <ele>276.34</ele>
        <time>2018-08-29T08:09:03Z</time>
      </trkpt>
      <trkpt lat="47.65857" lon="6.18393">
        <ele>276.4</ele>
        <time>2018-08-29T08:09:07Z</time>
      </trkpt>
      <trkpt lat="47.6586" lon="6.184">
        <ele>276.48</ele>
        <time>2018-08-29T08:09:12Z</time>
      </trkpt>
      <trkpt lat="47.65864" lon="6.18406">
        <ele>276.54</ele>
        <time>2018-08-29T08:09:16Z</time>
      </trkpt>
      <trkpt lat="47.65866" lon="6.18412">
        <ele>276.6</ele>
        <time>2018-08-29T08:09:19Z</time>
      </trkpt>
      <trkpt lat="47.65869" lon="6.18418">
        <ele>276.69</ele>
        <time>2018-08-29T08:09:24Z</time>
      </trkpt>
      <trkpt lat="47.65873" lon="6.18425">
        <ele>276.76</ele>
        <time>2018-08-29T08:09:28Z</time>
      </trkpt>
      <trkpt lat="47.65875" lon="6.18431">
        <ele>276.84</ele>
        <time>2018-08-29T08:09:32Z</time>
      </trkpt>
      <trkpt lat="47.65878" lon="6.18439">
        <ele>276.93</ele>
        <time>2018-08-29T08:09:36Z</time>
      </trkpt>
      <trkpt lat="47.6588" lon="6.18445">
        <ele>277.03</ele>
        <time>2018-08-29T08:09:41Z</time>
      </trkpt>
      <trkpt lat="47.65883" lon="6.1845">
        <ele>277.12</ele>
        <time>2018-08-29T08:09:45Z</time>
      </trkpt>
      <trkpt lat="47.65885" lon="6.18457">
        <ele>277.22</ele>
        <time>2018-08-29T08:09:50Z</time>
      </trkpt>
      <trkpt lat="47.65889" lon="6.18464">
        <ele>277.33</ele>
        <time>2018-08-29T08:09:55Z</time>
      </trkpt>
      <trkpt lat="47.65892" lon="6.1847">
        <ele>277.42</ele>
        <time>2018-08-29T08:09:59Z</time>
      </trkpt>
      <trkpt lat="47.65895" lon="6.18475">
        <ele>277.52</ele>
        <time>2018-08-29T08:10:03Z</time>
      </trkpt>
      <trkpt lat="47.65897" lon="6.18482">
        <ele>277.61</ele>
        <time>2018-08-29T08:10:07Z</time>
      </trkpt>
      <trkpt lat="47.659" lon="6.18489">
        <ele>277.73</ele>
        <time>2018-08-29T08:10:12Z</time>
      </trkpt>
      <trkpt lat="47.65903" lon="6.18496">
        <ele>277.85</ele>
        <time>2018-08-29T08:10:17Z</time>
      </trkpt>
      <trkpt lat="47.65905" lon="6.18503">
        <ele>277.94</ele>
        <time>2018-08-29T08:10:21Z</time>
      </trkpt>
      <trkpt lat="47.65908" lon="6.18509">
        <ele>278.04</ele>
        <time>2018-08-29T08:10:25Z</time>
      </trkpt>
      <trkpt lat="47.6591" lon="6.18515">
        <ele>278.15</ele>
        <time>2018-08-29T08:10:29Z</time>
      </trkpt>
      <trkpt lat="47.65913" lon="6.18521">
        <ele>278.26</ele>
        <time>2018-08-29T08:10:33Z</time>
      </trkpt>
      <trkpt lat="47.65915" lon="6.18527">
        <ele>278.39</ele>
        <time>2018-08-29T08:10:37Z</time>
      </trkpt>
      <trkpt lat="47.65917" lon="6.18534">
        <ele>278.54</ele>
        <time>2018-08-29T08:10:42Z</time>
      </trkpt>
      <trkpt lat="47.6592" lon="6.1854">
        <ele>278.65</ele>
        <time>2018-08-29T08:10:46Z</time>
      </trkpt>
      <trkpt lat="47.65922" lon="6.18546">
        <ele>278.79</ele>
        <time>2018-08-29T08:10:51Z</time>
      </trkpt>
      <trkpt lat="47.65925" lon="6.18552">
        <ele>278.87</ele>
        <time>2018-08-29T08:10:54Z</time>
      </trkpt>
      <trkpt lat="47.65927" lon="6.18559">
        <ele>279</ele>
        <time>2018-08-29T08:10:59Z</time>
      </trkpt>
      <trkpt lat="47.65929" lon="6.18568">
        <ele>279.14</ele>
        <time>2018-08-29T08:11:05Z</time>
      </trkpt>
      <trkpt lat="47.65927" lon="6.18574">
        <ele>279.25</ele>
        <time>2018-08-29T08:11:10Z</time>
      </trkpt>
      <trkpt lat="47.65926" lon="6.18581">
        <ele>279.36</ele>
        <time>2018-08-29T08:11:15Z</time>
      </trkpt>
      <trkpt lat="47.65923" lon="6.18587">
        <ele>279.48</ele>
        <time>2018-08-29T08:11:21Z</time>
      </trkpt>
      <trkpt lat="47.6592" lon="6.18592">
        <ele>279.58</ele>
        <time>2018-08-29T08:11:26Z</time>
      </trkpt>
      <trkpt lat="47.65916" lon="6.18597">
        <ele>279.68</ele>
        <time>2018-08-29T08:11:31Z</time>
      </trkpt>
      <trkpt lat="47.65911" lon="6.18601">
        <ele>279.78</ele>
        <time>2018-08-29T08:11:36Z</time>
      </trkpt>
      <trkpt lat="47.65907" lon="6.18605">
        <ele>279.85</ele>
        <time>2018-08-29T08:11:40Z</time>
      </trkpt>
      <trkpt lat="47.65904" lon="6.1861">
        <ele>279.94</ele>
        <time>2018-08-29T08:11:45Z</time>
      </trkpt>
      <trkpt lat="47.659" lon="6.18615">
        <ele>280.03</ele>
        <time>2018-08-29T08:11:50Z</time>
      </trkpt>
      <trkpt lat="47.65897" lon="6.18622">
        <ele>280.12</ele>
        <time>2018-08-29T08:11:55Z</time>
      </trkpt>
      <trkpt lat="47.65894" lon="6.18629">
        <ele>280.21</ele>
        <time>2018-08-29T08:12:00Z</time>
      </trkpt>
      <trkpt lat="47.65892" lon="6.18635">
        <ele>280.28</ele>
        <time>2018-08-29T08:12:04Z</time>
      </trkpt>
      <trkpt lat="47.65892" lon="6.18642">
        <ele>280.38</ele>
        <time>2018-08-29T08:12:09Z</time>
      </trkpt>
      <trkpt lat="47.65891" lon="6.18649">
        <ele>280.48</ele>
        <time>2018-08-29T08:12:14Z</time>
      </trkpt>
      <trkpt lat="47.65888" lon="6.18655">
        <ele>280.56</ele>
        <time>2018-08-29T08:12:18Z</time>
      </trkpt>
      <trkpt lat="47.65885" lon="6.18661">
        <ele>280.64</ele>
        <time>2018-08-29T08:12:22Z</time>
      </trkpt>
      <trkpt lat="47.65885" lon="6.18668">
        <ele>280.74</ele>
        <time>2018-08-29T08:12:26Z</time>
      </trkpt>
      <trkpt lat="47.65882" lon="6.18675">
        <ele>280.87</ele>
        <time>2018-08-29T08:12:31Z</time>
      </trkpt>
      <trkpt lat="47.6588" lon="6.18683">
        <ele>281.03</ele>
        <time>2018-08-29T08:12:36Z</time>
      </trkpt>
      <trkpt lat="47.65879" lon="6.18689">
        <ele>281.17</ele>
        <time>2018-08-29T08:12:40Z</time>
      </trkpt>
      <trkpt lat="47.65877" lon="6.18697">
        <ele>281.33</ele>
        <time>2018-08-29T08:12:44Z</time>
      </trkpt>
      <trkpt lat="47.65874" lon="6.18704">
        <ele>281.5</ele>
        <time>2018-08-29T08:12:48Z</time>
      </trkpt>
      <trkpt lat="47.65873" lon="6.18711">
        <ele>281.68</ele>
        <time>2018-08-29T08:12:52Z</time>
      </trkpt>
      <trkpt lat="47.65872" lon="6.18718">
        <ele>281.94</ele>
        <time>2018-08-29T08:12:57Z</time>
      </trkpt>
      <trkpt lat="47.65873" lon="6.18725">
        <ele>282.27</ele>
        <time>2018-08-29T08:13:03Z</time>
      </trkpt>
      <trkpt lat="47.65873" lon="6.18733">
        <ele>282.57</ele>
        <time>2018-08-29T08:13:08Z</time>
      </trkpt>
      <trkpt lat="47.65872" lon="6.1874">
        <ele>282.84</ele>
        <time>2018-08-29T08:13:12Z</time>
      </trkpt>
      <trkpt lat="47.65873" lon="6.18748">
        <ele>283.21</ele>
        <time>2018-08-29T08:13:17Z</time>
      </trkpt>
      <trkpt lat="47.65876" lon="6.18754">
        <ele>283.62</ele>
        <time>2018-08-29T08:13:22Z</time>
      </trkpt>
      <trkpt lat="47.65876" lon="6.18762">
        <ele>284.06</ele>
        <time>2018-08-29T08:13:27Z</time>
      </trkpt>
      <trkpt lat="47.65877" lon="6.18769">
        <ele>284.42</ele>
        <time>2018-08-29T08:13:31Z</time>
      </trkpt>
      <trkpt lat="47.65879" lon="6.18776">
        <ele>284.88</ele>
        <time>2018-08-29T08:13:36Z</time>
      </trkpt>
      <trkpt lat="47.65882" lon="6.18783">
        <ele>285.36</ele>
        <time>2018-08-29T08:13:41Z</time>
      </trkpt>
      <trkpt lat="47.65884" lon="6.1879">
        <ele>285.75</ele>
        <time>2018-08-29T08:13:45Z</time>
      </trkpt>
      <trkpt lat="47.65886" lon="6.18798">
        <ele>286.15</ele>
        <time>2018-08-29T08:13:49Z</time>
      </trkpt>
      <trkpt lat="47.65887" lon="6.18805">
        <ele>286.46</ele>
        <time>2018-08-29T08:13:52Z</time>
      </trkpt>
      <trkpt lat="47.6589" lon="6.18812">
        <ele>286.76</ele>
        <time>2018-08-29T08:13:55Z</time>
      </trkpt>
      <trkpt lat="47.65892" lon="6.18819">
        <ele>287.18</ele>
        <time>2018-08-29T08:13:59Z</time>
      </trkpt>
      <trkpt lat="47.65895" lon="6.18827">
        <ele>287.59</ele>
        <time>2018-08-29T08:14:03Z</time>
      </trkpt>
      <trkpt lat="47.65897" lon="6.18835">
        <ele>288.01</ele>
        <time>2018-08-29T08:14:07Z</time>
      </trkpt>
      <trkpt lat="47.659" lon="6.18842">
        <ele>288.44</ele>
        <time>2018-08-29T08:14:11Z</time>
      </trkpt>
      <trkpt lat="47.65902" lon="6.1885">
        <ele>288.87</ele>
        <time>2018-08-29T08:14:15Z</time>
      </trkpt>
      <trkpt lat="47.65903" lon="6.18857">
        <ele>289.19</ele>
        <time>2018-08-29T08:14:18Z</time>
      </trkpt>
      <trkpt lat="47.65905" lon="6.18865">
        <ele>289.5</ele>
        <time>2018-08-29T08:14:21Z</time>
      </trkpt>
      <trkpt lat="47.65906" lon="6.18871">
        <ele>289.81</ele>
        <time>2018-08-29T08:14:24Z</time>
      </trkpt>
      <trkpt lat="47.65907" lon="6.1888">
        <ele>290.23</ele>
        <time>2018-08-29T08:14:28Z</time>
      </trkpt>
      <trkpt lat="47.65908" lon="6.18888">
        <ele>290.54</ele>
        <time>2018-08-29T08:14:31Z</time>
      </trkpt>
      <trkpt lat="47.65909" lon="6.18897">
        <ele>290.85</ele>
        <time>2018-08-29T08:14:34Z</time>
      </trkpt>
      <trkpt lat="47.6591" lon="6.18904">
        <ele>291.06</ele>
        <time>2018-08-29T08:14:36Z</time>
      </trkpt>
      <trkpt lat="47.6591" lon="6.18911">
        <ele>291.27</ele>
        <time>2018-08-29T08:14:38Z</time>
      </trkpt>
      <trkpt lat="47.65911" lon="6.18919">
        <ele>291.47</ele>
        <time>2018-08-29T08:14:40Z</time>
      </trkpt>
      <trkpt lat="47.65912" lon="6.18927">
        <ele>291.67</ele>
        <time>2018-08-29T08:14:42Z</time>
      </trkpt>
      <trkpt lat="47.65912" lon="6.18935">
        <ele>291.87</ele>
        <time>2018-08-29T08:14:44Z</time>
      </trkpt>
      <trkpt lat="47.65913" lon="6.18942">
        <ele>292.07</ele>
        <time>2018-08-29T08:14:46Z</time>
      </trkpt>
      <trkpt lat="47.65913" lon="6.18949">
        <ele>292.28</ele>
        <time>2018-08-29T08:14:48Z</time>
      </trkpt>
      <trkpt lat="47.65913" lon="6.18957">
        <ele>292.49</ele>
        <time>2018-08-29T08:14:50Z</time>
      </trkpt>
      <trkpt lat="47.65913" lon="6.18966">
        <ele>292.71</ele>
        <time>2018-08-29T08:14:52Z</time>
      </trkpt>
      <trkpt lat="47.65913" lon="6.18977">
        <ele>292.92</ele>
        <time>2018-08-29T08:14:54Z</time>
      </trkpt>
      <trkpt lat="47.65913" lon="6.18986">
        <ele>293.14</ele>
        <time>2018-08-29T08:14:56Z</time>
      </trkpt>
      <trkpt lat="47.65912" lon="6.18995">
        <ele>293.36</ele>
        <time>2018-08-29T08:14:58Z</time>
      </trkpt>
      <trkpt lat="47.65911" lon="6.19005">
        <ele>293.59</ele>
        <time>2018-08-29T08:15:00Z</time>
      </trkpt>
      <trkpt lat="47.65911" lon="6.19013">
        <ele>293.82</ele>
        <time>2018-08-29T08:15:02Z</time>
      </trkpt>
      <trkpt lat="47.65911" lon="6.19021">
        <ele>294.05</ele>
        <time>2018-08-29T08:15:04Z</time>
      </trkpt>
      <trkpt lat="47.6591" lon="6.19028">
        <ele>294.28</ele>
        <time>2018-08-29T08:15:06Z</time>
      </trkpt>
      <trkpt lat="47.65907" lon="6.19035">
        <ele>294.64</ele>
        <time>2018-08-29T08:15:09Z</time>
      </trkpt>
      <trkpt lat="47.65903" lon="6.19038">
        <ele>295.64</ele>
        <time>2018-08-29T08:15:11Z</time>
      </trkpt>
      <trkpt lat="47.65896" lon="6.19044">
        <ele>297.44</ele>
        <time>2018-08-29T08:15:13Z</time>
      </trkpt>
      <trkpt lat="47.65891" lon="6.19048">
        <ele>298.16</ele>
        <time>2018-08-29T08:15:14Z</time>
      </trkpt>
      <trkpt lat="47.65887" lon="6.19052">
        <ele>298.77</ele>
        <time>2018-08-29T08:15:15Z</time>
      </trkpt>
      <trkpt lat="47.65876" lon="6.19067">
        <ele>299.27</ele>
        <time>2018-08-29T08:15:16Z</time>
      </trkpt>
      <trkpt lat="47.65872" lon="6.19074">
        <ele>299.69</ele>
        <time>2018-08-29T08:15:17Z</time>
      </trkpt>
      <trkpt lat="47.65869" lon="6.19081">
        <ele>300.05</ele>
        <time>2018-08-29T08:15:18Z</time>
      </trkpt>
      <trkpt lat="47.65865" lon="6.19089">
        <ele>300.37</ele>
        <time>2018-08-29T08:15:19Z</time>
      </trkpt>
      <trkpt lat="47.65861" lon="6.19097">
        <ele>300.65</ele>
        <time>2018-08-29T08:15:20Z</time>
      </trkpt>
      <trkpt lat="47.65858" lon="6.19104">
        <ele>300.93</ele>
        <time>2018-08-29T08:15:21Z</time>
      </trkpt>
      <trkpt lat="47.65854" lon="6.19112">
        <ele>301.2</ele>
        <time>2018-08-29T08:15:22Z</time>
      </trkpt>
      <trkpt lat="47.65851" lon="6.19121">
        <ele>301.49</ele>
        <time>2018-08-29T08:15:23Z</time>
      </trkpt>
      <trkpt lat="47.65848" lon="6.19129">
        <ele>301.77</ele>
        <time>2018-08-29T08:15:24Z</time>
      </trkpt>
      <trkpt lat="47.65844" lon="6.19137">
        <ele>302.05</ele>
        <time>2018-08-29T08:15:25Z</time>
      </trkpt>
      <trkpt lat="47.65841" lon="6.19146">
        <ele>302.32</ele>
        <time>2018-08-29T08:15:26Z</time>
      </trkpt>
      <trkpt lat="47.65839" lon="6.19154">
        <ele>302.6</ele>
        <time>2018-08-29T08:15:27Z</time>
      </trkpt>
      <trkpt lat="47.65836" lon="6.19163">
        <ele>302.89</ele>
        <time>2018-08-29T08:15:28Z</time>
      </trkpt>
      <trkpt lat="47.65834" lon="6.1917">
        <ele>303.18</ele>
        <time>2018-08-29T08:15:29Z</time>
      </trkpt>
      <trkpt lat="47.6583" lon="6.19179">
        <ele>303.34</ele>
        <time>2018-08-29T08:15:31Z</time>
      </trkpt>
      <trkpt lat="47.65825" lon="6.19187">
        <ele>303.46</ele>
        <time>2018-08-29T08:15:34Z</time>
      </trkpt>
      <trkpt lat="47.65817" lon="6.19197">
        <ele>303.8</ele>
        <time>2018-08-29T08:15:36Z</time>
      </trkpt>
      <trkpt lat="47.65811" lon="6.19205">
        <ele>304.42</ele>
        <time>2018-08-29T08:15:38Z</time>
      </trkpt>
      <trkpt lat="47.65804" lon="6.19213">
        <ele>304.84</ele>
        <time>2018-08-29T08:15:40Z</time>
      </trkpt>
      <trkpt lat="47.65801" lon="6.19217">
        <ele>304.98</ele>
        <time>2018-08-29T08:15:41Z</time>
      </trkpt>
      <trkpt lat="47.65794" lon="6.19224">
        <ele>305.04</ele>
        <time>2018-08-29T08:15:43Z</time>
      </trkpt>
      <trkpt lat="47.65788" lon="6.19229">
        <ele>305.08</ele>
        <time>2018-08-29T08:15:45Z</time>
      </trkpt>
      <trkpt lat="47.65783" lon="6.19231">
        <ele>305.1</ele>
        <time>2018-08-29T08:15:47Z</time>
      </trkpt>
      <trkpt lat="47.65778" lon="6.19233">
        <ele>305.09</ele>
        <time>2018-08-29T08:15:49Z</time>
      </trkpt>
      <trkpt lat="47.65773" lon="6.19234">
        <ele>305.08</ele>
        <time>2018-08-29T08:15:51Z</time>
      </trkpt>
      <trkpt lat="47.65768" lon="6.19238">
        <ele>305.04</ele>
        <time>2018-08-29T08:15:54Z</time>
      </trkpt>
      <trkpt lat="47.65763" lon="6.19241">
        <ele>304.99</ele>
        <time>2018-08-29T08:15:57Z</time>
      </trkpt>
      <trkpt lat="47.65758" lon="6.19245">
        <ele>304.91</ele>
        <time>2018-08-29T08:16:00Z</time>
      </trkpt>
      <trkpt lat="47.65753" lon="6.19248">
        <ele>304.85</ele>
        <time>2018-08-29T08:16:02Z</time>
      </trkpt>
      <trkpt lat="47.65747" lon="6.19253">
        <ele>304.75</ele>
        <time>2018-08-29T08:16:05Z</time>
      </trkpt>
      <trkpt lat="47.65743" lon="6.19257">
        <ele>304.67</ele>
        <time>2018-08-29T08:16:07Z</time>
      </trkpt>
      <trkpt lat="47.65738" lon="6.19262">
        <ele>304.59</ele>
        <time>2018-08-29T08:16:09Z</time>
      </trkpt>
      <trkpt lat="47.65734" lon="6.19268">
        <ele>304.49</ele>
        <time>2018-08-29T08:16:11Z</time>
      </trkpt>
      <trkpt lat="47.65729" lon="6.19272">
        <ele>304.4</ele>
        <time>2018-08-29T08:16:13Z</time>
      </trkpt>
      <trkpt lat="47.65724" lon="6.19276">
        <ele>304.3</ele>
        <time>2018-08-29T08:16:15Z</time>
      </trkpt>
      <trkpt lat="47.6572" lon="6.19281">
        <ele>304.2</ele>
        <time>2018-08-29T08:16:17Z</time>
      </trkpt>
      <trkpt lat="47.65716" lon="6.19284">
        <ele>304.09</ele>
        <time>2018-08-29T08:16:19Z</time>
      </trkpt>
      <trkpt lat="47.65711" lon="6.19287">
        <ele>303.98</ele>
        <time>2018-08-29T08:16:21Z</time>
      </trkpt>
      <trkpt lat="47.65706" lon="6.19292">
        <ele>303.82</ele>
        <time>2018-08-29T08:16:24Z</time>
      </trkpt>
      <trkpt lat="47.657" lon="6.19295">
        <ele>303.71</ele>
        <time>2018-08-29T08:16:26Z</time>
      </trkpt>
      <trkpt lat="47.65696" lon="6.19298">
        <ele>303.61</ele>
        <time>2018-08-29T08:16:28Z</time>
      </trkpt>
      <trkpt lat="47.65691" lon="6.19301">
        <ele>303.5</ele>
        <time>2018-08-29T08:16:30Z</time>
      </trkpt>
      <trkpt lat="47.65686" lon="6.19304">
        <ele>303.39</ele>
        <time>2018-08-29T08:16:32Z</time>
      </trkpt>
      <trkpt lat="47.65681" lon="6.19309">
        <ele>303.22</ele>
        <time>2018-08-29T08:16:35Z</time>
      </trkpt>
      <trkpt lat="47.65677" lon="6.19312">
        <ele>303.12</ele>
        <time>2018-08-29T08:16:37Z</time>
      </trkpt>
      <trkpt lat="47.65672" lon="6.19315">
        <ele>303.01</ele>
        <time>2018-08-29T08:16:39Z</time>
      </trkpt>
      <trkpt lat="47.65666" lon="6.19319">
        <ele>302.84</ele>
        <time>2018-08-29T08:16:42Z</time>
      </trkpt>
      <trkpt lat="47.6566" lon="6.19323">
        <ele>302.68</ele>
        <time>2018-08-29T08:16:45Z</time>
      </trkpt>
      <trkpt lat="47.65655" lon="6.19328">
        <ele>302.52</ele>
        <time>2018-08-29T08:16:48Z</time>
      </trkpt>
      <trkpt lat="47.65651" lon="6.19331">
        <ele>302.36</ele>
        <time>2018-08-29T08:16:51Z</time>
      </trkpt>
      <trkpt lat="47.65647" lon="6.19335">
        <ele>302.2</ele>
        <time>2018-08-29T08:16:54Z</time>
      </trkpt>
      <trkpt lat="47.65643" lon="6.19339">
        <ele>302.04</ele>
        <time>2018-08-29T08:16:57Z</time>
      </trkpt>
      <trkpt lat="47.65638" lon="6.19343">
        <ele>301.89</ele>
        <time>2018-08-29T08:17:00Z</time>
      </trkpt>
      <trkpt lat="47.65632" lon="6.19347">
        <ele>301.73</ele>
        <time>2018-08-29T08:17:03Z</time>
      </trkpt>
      <trkpt lat="47.65628" lon="6.19351">
        <ele>301.63</ele>
        <time>2018-08-29T08:17:05Z</time>
      </trkpt>
      <trkpt lat="47.65623" lon="6.19354">
        <ele>301.53</ele>
        <time>2018-08-29T08:17:07Z</time>
      </trkpt>
      <trkpt lat="47.65619" lon="6.19358">
        <ele>301.43</ele>
        <time>2018-08-29T08:17:09Z</time>
      </trkpt>
      <trkpt lat="47.65613" lon="6.19362">
        <ele>301.27</ele>
        <time>2018-08-29T08:17:12Z</time>
      </trkpt>
      <trkpt lat="47.65608" lon="6.19366">
        <ele>301.12</ele>
        <time>2018-08-29T08:17:15Z</time>
      </trkpt>
      <trkpt lat="47.65604" lon="6.1937">
        <ele>300.96</ele>
        <time>2018-08-29T08:17:18Z</time>
      </trkpt>
      <trkpt lat="47.656" lon="6.19373">
        <ele>300.81</ele>
        <time>2018-08-29T08:17:21Z</time>
      </trkpt>
      <trkpt lat="47.65595" lon="6.19376">
        <ele>300.65</ele>
        <time>2018-08-29T08:17:24Z</time>
      </trkpt>
      <trkpt lat="47.6559" lon="6.19379">
        <ele>300.5</ele>
        <time>2018-08-29T08:17:27Z</time>
      </trkpt>
      <trkpt lat="47.65586" lon="6.19384">
        <ele>300.35</ele>
        <time>2018-08-29T08:17:30Z</time>
      </trkpt>
      <trkpt lat="47.65583" lon="6.1939">
        <ele>300.2</ele>
        <time>2018-08-29T08:17:33Z</time>
      </trkpt>
      <trkpt lat="47.65581" lon="6.19398">
        <ele>300.05</ele>
        <time>2018-08-29T08:17:36Z</time>
      </trkpt>
      <trkpt lat="47.65581" lon="6.19405">
        <ele>299.91</ele>
        <time>2018-08-29T08:17:39Z</time>
      </trkpt>
      <trkpt lat="47.65582" lon="6.19413">
        <ele>299.76</ele>
        <time>2018-08-29T08:17:42Z</time>
      </trkpt>
      <trkpt lat="47.65585" lon="6.1942">
        <ele>299.63</ele>
        <time>2018-08-29T08:17:45Z</time>
      </trkpt>
      <trkpt lat="47.65588" lon="6.19425">
        <ele>299.49</ele>
        <time>2018-08-29T08:17:48Z</time>
      </trkpt>
      <trkpt lat="47.65592" lon="6.19432">
        <ele>299.37</ele>
        <time>2018-08-29T08:17:51Z</time>
      </trkpt>
      <trkpt lat="47.65594" lon="6.1944">
        <ele>299.25</ele>
        <time>2018-08-29T08:17:54Z</time>
      </trkpt>
      <trkpt lat="47.65593" lon="6.19447">
        <ele>299.11</ele>
        <time>2018-08-29T08:17:58Z</time>
      </trkpt>
      <trkpt lat="47.6559" lon="6.19454">
        <ele>299.01</ele>
        <time>2018-08-29T08:18:01Z</time>
      </trkpt>
      <trkpt lat="47.65589" lon="6.19463">
        <ele>298.86</ele>
        <time>2018-08-29T08:18:06Z</time>
      </trkpt>
      <trkpt lat="47.65586" lon="6.19468">
        <ele>298.71</ele>
        <time>2018-08-29T08:18:17Z</time>
      </trkpt>
      <trkpt lat="47.65582" lon="6.19468">
        <ele>298.58</ele>
        <time>2018-08-29T08:18:28Z</time>
      </trkpt>
      <trkpt lat="47.65576" lon="6.19468">
        <ele>298.5</ele>
        <time>2018-08-29T08:18:36Z</time>
      </trkpt>
      <trkpt lat="47.65571" lon="6.19469">
        <ele>298.44</ele>
        <time>2018-08-29T08:18:40Z</time>
      </trkpt>
      <trkpt lat="47.65567" lon="6.19472">
        <ele>298.39</ele>
        <time>2018-08-29T08:18:44Z</time>
      </trkpt>
      <trkpt lat="47.65562" lon="6.19474">
        <ele>298.34</ele>
        <time>2018-08-29T08:18:49Z</time>
      </trkpt>
      <trkpt lat="47.65558" lon="6.19476">
        <ele>298.32</ele>
        <time>2018-08-29T08:18:51Z</time>
      </trkpt>
      <trkpt lat="47.65553" lon="6.19481">
        <ele>298.3</ele>
        <time>2018-08-29T08:18:54Z</time>
      </trkpt>
      <trkpt lat="47.65548" lon="6.19487">
        <ele>298.28</ele>
        <time>2018-08-29T08:18:57Z</time>
      </trkpt>
      <trkpt lat="47.65543" lon="6.19491">
        <ele>298.27</ele>
        <time>2018-08-29T08:19:00Z</time>
      </trkpt>
      <trkpt lat="47.65538" lon="6.19497">
        <ele>298.25</ele>
        <time>2018-08-29T08:19:04Z</time>
      </trkpt>
      <trkpt lat="47.65535" lon="6.19502">
        <ele>298.25</ele>
        <time>2018-08-29T08:19:06Z</time>
      </trkpt>
      <trkpt lat="47.65531" lon="6.19508">
        <ele>298.24</ele>
        <time>2018-08-29T08:19:09Z</time>
      </trkpt>
      <trkpt lat="47.65526" lon="6.19514">
        <ele>298.24</ele>
        <time>2018-08-29T08:19:12Z</time>
      </trkpt>
      <trkpt lat="47.65522" lon="6.19521">
        <ele>298.23</ele>
        <time>2018-08-29T08:19:14Z</time>
      </trkpt>
      <trkpt lat="47.6552" lon="6.19526">
        <ele>298.23</ele>
        <time>2018-08-29T08:19:16Z</time>
      </trkpt>
      <trkpt lat="47.65517" lon="6.19533">
        <ele>298.24</ele>
        <time>2018-08-29T08:19:19Z</time>
      </trkpt>
      <trkpt lat="47.65514" lon="6.19539">
        <ele>298.24</ele>
        <time>2018-08-29T08:19:22Z</time>
      </trkpt>
      <trkpt lat="47.6551" lon="6.19542">
        <ele>298.25</ele>
        <time>2018-08-29T08:19:26Z</time>
      </trkpt>
      <trkpt lat="47.65504" lon="6.19544">
        <ele>298.26</ele>
        <time>2018-08-29T08:19:28Z</time>
      </trkpt>
      <trkpt lat="47.65497" lon="6.19546">
        <ele>298.27</ele>
        <time>2018-08-29T08:19:30Z</time>
      </trkpt>
      <trkpt lat="47.6549" lon="6.1955">
        <ele>298.28</ele>
        <time>2018-08-29T08:19:32Z</time>
      </trkpt>
      <trkpt lat="47.65484" lon="6.19554">
        <ele>298.28</ele>
        <time>2018-08-29T08:19:34Z</time>
      </trkpt>
      <trkpt lat="47.65481" lon="6.19559">
        <ele>298.29</ele>
        <time>2018-08-29T08:19:36Z</time>
      </trkpt>
      <trkpt lat="47.65479" lon="6.19566">
        <ele>298.3</ele>
        <time>2018-08-29T08:19:39Z</time>
      </trkpt>
      <trkpt lat="47.65481" lon="6.19574">
        <ele>298.31</ele>
        <time>2018-08-29T08:19:44Z</time>
      </trkpt>
      <trkpt lat="47.6548" lon="6.19583">
        <ele>298.33</ele>
        <time>2018-08-29T08:19:48Z</time>
      </trkpt>
      <trkpt lat="47.65479" lon="6.1959">
        <ele>298.35</ele>
        <time>2018-08-29T08:19:52Z</time>
      </trkpt>
      <trkpt lat="47.65479" lon="6.19598">
        <ele>298.37</ele>
        <time>2018-08-29T08:19:58Z</time>
      </trkpt>
      <trkpt lat="47.65475" lon="6.19605">
        <ele>298.37</ele>
        <time>2018-08-29T08:20:02Z</time>
      </trkpt>
      <trkpt lat="47.65471" lon="6.19611">
        <ele>298.37</ele>
        <time>2018-08-29T08:20:05Z</time>
      </trkpt>
      <trkpt lat="47.65467" lon="6.19617">
        <ele>298.37</ele>
        <time>2018-08-29T08:20:08Z</time>
      </trkpt>
      <trkpt lat="47.65463" lon="6.19623">
        <ele>298.36</ele>
        <time>2018-08-29T08:20:11Z</time>
      </trkpt>
      <trkpt lat="47.65459" lon="6.1963">
        <ele>298.36</ele>
        <time>2018-08-29T08:20:14Z</time>
      </trkpt>
      <trkpt lat="47.65454" lon="6.19634">
        <ele>298.35</ele>
        <time>2018-08-29T08:20:16Z</time>
      </trkpt>
      <trkpt lat="47.65449" lon="6.1964">
        <ele>298.35</ele>
        <time>2018-08-29T08:20:18Z</time>
      </trkpt>
      <trkpt lat="47.65444" lon="6.19645">
        <ele>298.34</ele>
        <time>2018-08-29T08:20:20Z</time>
      </trkpt>
      <trkpt lat="47.6544" lon="6.1965">
        <ele>298.33</ele>
        <time>2018-08-29T08:20:24Z</time>
      </trkpt>
      <trkpt lat="47.65436" lon="6.19655">
        <ele>298.33</ele>
        <time>2018-08-29T08:20:28Z</time>
      </trkpt>
      <trkpt lat="47.65431" lon="6.19655">
        <ele>298.32</ele>
        <time>2018-08-29T08:20:31Z</time>
      </trkpt>
      <trkpt lat="47.65427" lon="6.19653">
        <ele>298.32</ele>
        <time>2018-08-29T08:20:33Z</time>
      </trkpt>
      <trkpt lat="47.65421" lon="6.1965">
        <ele>298.32</ele>
        <time>2018-08-29T08:20:35Z</time>
      </trkpt>
      <trkpt lat="47.65416" lon="6.19648">
        <ele>298.31</ele>
        <time>2018-08-29T08:20:37Z</time>
      </trkpt>
      <trkpt lat="47.65412" lon="6.19647">
        <ele>298.31</ele>
        <time>2018-08-29T08:20:39Z</time>
      </trkpt>
      <trkpt lat="47.65407" lon="6.19644">
        <ele>298.3</ele>
        <time>2018-08-29T08:20:41Z</time>
      </trkpt>
      <trkpt lat="47.65402" lon="6.19639">
        <ele>298.29</ele>
        <time>2018-08-29T08:20:43Z</time>
      </trkpt>
      <trkpt lat="47.65396" lon="6.19635">
        <ele>298.28</ele>
        <time>2018-08-29T08:20:45Z</time>
      </trkpt>
      <trkpt lat="47.65388" lon="6.19632">
        <ele>298.28</ele>
        <time>2018-08-29T08:20:47Z</time>
      </trkpt>
      <trkpt lat="47.65381" lon="6.19629">
        <ele>298.27</ele>
        <time>2018-08-29T08:20:49Z</time>
      </trkpt>
      <trkpt lat="47.65373" lon="6.19627">
        <ele>298.26</ele>
        <time>2018-08-29T08:20:51Z</time>
      </trkpt>
      <trkpt lat="47.65367" lon="6.19626">
        <ele>298.26</ele>
        <time>2018-08-29T08:20:53Z</time>
      </trkpt>
      <trkpt lat="47.6536" lon="6.19624">
        <ele>298.25</ele>
        <time>2018-08-29T08:20:55Z</time>
      </trkpt>
      <trkpt lat="47.65353" lon="6.19623">
        <ele>298.25</ele>
        <time>2018-08-29T08:20:57Z</time>
      </trkpt>
      <trkpt lat="47.65348" lon="6.19621">
        <ele>298.25</ele>
        <time>2018-08-29T08:20:59Z</time>
      </trkpt>
      <trkpt lat="47.65342" lon="6.1962">
        <ele>298.24</ele>
        <time>2018-08-29T08:21:01Z</time>
      </trkpt>
      <trkpt lat="47.65337" lon="6.19619">
        <ele>298.24</ele>
        <time>2018-08-29T08:21:03Z</time>
      </trkpt>
      <trkpt lat="47.65332" lon="6.19617">
        <ele>298.23</ele>
        <time>2018-08-29T08:21:05Z</time>
      </trkpt>
      <trkpt lat="47.65327" lon="6.19616">
        <ele>298.22</ele>
        <time>2018-08-29T08:21:08Z</time>
      </trkpt>
      <trkpt lat="47.65323" lon="6.1962">
        <ele>298.21</ele>
        <time>2018-08-29T08:21:11Z</time>
      </trkpt>
      <trkpt lat="47.65322" lon="6.19627">
        <ele>298.19</ele>
        <time>2018-08-29T08:21:16Z</time>
      </trkpt>
      <trkpt lat="47.65323" lon="6.19633">
        <ele>298.17</ele>
        <time>2018-08-29T08:21:19Z</time>
      </trkpt>
      <trkpt lat="47.65324" lon="6.19643">
        <ele>298.15</ele>
        <time>2018-08-29T08:21:22Z</time>
      </trkpt>
      <trkpt lat="47.65327" lon="6.19649">
        <ele>298.14</ele>
        <time>2018-08-29T08:21:24Z</time>
      </trkpt>
      <trkpt lat="47.6533" lon="6.19656">
        <ele>298.12</ele>
        <time>2018-08-29T08:21:26Z</time>
      </trkpt>
      <trkpt lat="47.65334" lon="6.19663">
        <ele>298.11</ele>
        <time>2018-08-29T08:21:28Z</time>
      </trkpt>
      <trkpt lat="47.65337" lon="6.1967">
        <ele>298.1</ele>
        <time>2018-08-29T08:21:30Z</time>
      </trkpt>
      <trkpt lat="47.65341" lon="6.19677">
        <ele>298.08</ele>
        <time>2018-08-29T08:21:32Z</time>
      </trkpt>
      <trkpt lat="47.65345" lon="6.19683">
        <ele>298.07</ele>
        <time>2018-08-29T08:21:34Z</time>
      </trkpt>
      <trkpt lat="47.65348" lon="6.1969">
        <ele>298.06</ele>
        <time>2018-08-29T08:21:36Z</time>
      </trkpt>
      <trkpt lat="47.65351" lon="6.19697">
        <ele>298.04</ele>
        <time>2018-08-29T08:21:38Z</time>
      </trkpt>
      <trkpt lat="47.65354" lon="6.19704">
        <ele>298.03</ele>
        <time>2018-08-29T08:21:40Z</time>
      </trkpt>
      <trkpt lat="47.65358" lon="6.19712">
        <ele>298.01</ele>
        <time>2018-08-29T08:21:42Z</time>
      </trkpt>
      <trkpt lat="47.65361" lon="6.1972">
        <ele>298</ele>
        <time>2018-08-29T08:21:44Z</time>
      </trkpt>
      <trkpt lat="47.65364" lon="6.19727">
        <ele>297.98</ele>
        <time>2018-08-29T08:21:46Z</time>
      </trkpt>
      <trkpt lat="47.65367" lon="6.19733">
        <ele>297.97</ele>
        <time>2018-08-29T08:21:48Z</time>
      </trkpt>
      <trkpt lat="47.6537" lon="6.19738">
        <ele>297.95</ele>
        <time>2018-08-29T08:21:50Z</time>
      </trkpt>
      <trkpt lat="47.65374" lon="6.19746">
        <ele>297.93</ele>
        <time>2018-08-29T08:21:53Z</time>
      </trkpt>
      <trkpt lat="47.65378" lon="6.19754">
        <ele>297.91</ele>
        <time>2018-08-29T08:21:56Z</time>
      </trkpt>
      <trkpt lat="47.65381" lon="6.1976">
        <ele>297.89</ele>
        <time>2018-08-29T08:21:58Z</time>
      </trkpt>
      <trkpt lat="47.65385" lon="6.19769">
        <ele>297.86</ele>
        <time>2018-08-29T08:22:01Z</time>
      </trkpt>
      <trkpt lat="47.65389" lon="6.19776">
        <ele>297.84</ele>
        <time>2018-08-29T08:22:03Z</time>
      </trkpt>
      <trkpt lat="47.65393" lon="6.19782">
        <ele>297.81</ele>
        <time>2018-08-29T08:22:05Z</time>
      </trkpt>
      <trkpt lat="47.65397" lon="6.19788">
        <ele>297.78</ele>
        <time>2018-08-29T08:22:07Z</time>
      </trkpt>
      <trkpt lat="47.65401" lon="6.19793">
        <ele>297.74</ele>
        <time>2018-08-29T08:22:09Z</time>
      </trkpt>
      <trkpt lat="47.65404" lon="6.19798">
        <ele>297.71</ele>
        <time>2018-08-29T08:22:11Z</time>
      </trkpt>
      <trkpt lat="47.65409" lon="6.19804">
        <ele>297.65</ele>
        <time>2018-08-29T08:22:14Z</time>
      </trkpt>
      <trkpt lat="47.65413" lon="6.19811">
        <ele>297.59</ele>
        <time>2018-08-29T08:22:17Z</time>
      </trkpt>
      <trkpt lat="47.65417" lon="6.19817">
        <ele>297.53</ele>
        <time>2018-08-29T08:22:20Z</time>
      </trkpt>
      <trkpt lat="47.65421" lon="6.19823">
        <ele>297.46</ele>
        <time>2018-08-29T08:22:23Z</time>
      </trkpt>
      <trkpt lat="47.65424" lon="6.19829">
        <ele>297.41</ele>
        <time>2018-08-29T08:22:25Z</time>
      </trkpt>
      <trkpt lat="47.65427" lon="6.19834">
        <ele>297.35</ele>
        <time>2018-08-29T08:22:27Z</time>
      </trkpt>
      <trkpt lat="47.65431" lon="6.19842">
        <ele>297.27</ele>
        <time>2018-08-29T08:22:30Z</time>
      </trkpt>
      <trkpt lat="47.65434" lon="6.19849">
        <ele>297.18</ele>
        <time>2018-08-29T08:22:33Z</time>
      </trkpt>
      <trkpt lat="47.65438" lon="6.19856">
        <ele>297.09</ele>
        <time>2018-08-29T08:22:36Z</time>
      </trkpt>
      <trkpt lat="47.65441" lon="6.19863">
        <ele>296.99</ele>
        <time>2018-08-29T08:22:39Z</time>
      </trkpt>
      <trkpt lat="47.65445" lon="6.19871">
        <ele>296.89</ele>
        <time>2018-08-29T08:22:42Z</time>
      </trkpt>
      <trkpt lat="47.65447" lon="6.19878">
        <ele>296.82</ele>
        <time>2018-08-29T08:22:44Z</time>
      </trkpt>
      <trkpt lat="47.65449" lon="6.19886">
        <ele>296.75</ele>
        <time>2018-08-29T08:22:46Z</time>
      </trkpt>
      <trkpt lat="47.65452" lon="6.19895">
        <ele>296.68</ele>
        <time>2018-08-29T08:22:48Z</time>
      </trkpt>
      <trkpt lat="47.65455" lon="6.19904">
        <ele>296.61</ele>
        <time>2018-08-29T08:22:50Z</time>
      </trkpt>
      <trkpt lat="47.65457" lon="6.19911">
        <ele>296.54</ele>
        <time>2018-08-29T08:22:52Z</time>
      </trkpt>
      <trkpt lat="47.6546" lon="6.19918">
        <ele>296.47</ele>
        <time>2018-08-29T08:22:54Z</time>
      </trkpt>
      <trkpt lat="47.65463" lon="6.19925">
        <ele>296.4</ele>
        <time>2018-08-29T08:22:56Z</time>
      </trkpt>
      <trkpt lat="47.65466" lon="6.19931">
        <ele>296.34</ele>
        <time>2018-08-29T08:22:58Z</time>
      </trkpt>
      <trkpt lat="47.65469" lon="6.19937">
        <ele>296.27</ele>
        <time>2018-08-29T08:23:00Z</time>
      </trkpt>
      <trkpt lat="47.65472" lon="6.19943">
        <ele>296.21</ele>
        <time>2018-08-29T08:23:02Z</time>
      </trkpt>
      <trkpt lat="47.65474" lon="6.19949">
        <ele>296.13</ele>
        <time>2018-08-29T08:23:16Z</time>
      </trkpt>
      <trkpt lat="47.6547" lon="6.19946">
        <ele>295.49</ele>
        <time>2018-08-29T08:24:48Z</time>
      </trkpt>
      <trkpt lat="47.65468" lon="6.19939">
        <ele>294.94</ele>
        <time>2018-08-29T08:25:32Z</time>
      </trkpt>
      <trkpt lat="47.65472" lon="6.19944">
        <ele>293.45</ele>
        <time>2018-08-29T08:27:34Z</time>
      </trkpt>
      <trkpt lat="47.65474" lon="6.19952">
        <ele>293.26</ele>
        <time>2018-08-29T08:27:37Z</time>
      </trkpt>
      <trkpt lat="47.65476" lon="6.19958">
        <ele>293.14</ele>
        <time>2018-08-29T08:27:39Z</time>
      </trkpt>
      <trkpt lat="47.6548" lon="6.19965">
        <ele>292.97</ele>
        <time>2018-08-29T08:27:42Z</time>
      </trkpt>
      <trkpt lat="47.65483" lon="6.1997">
        <ele>292.8</ele>
        <time>2018-08-29T08:27:45Z</time>
      </trkpt>
      <trkpt lat="47.65486" lon="6.19975">
        <ele>292.64</ele>
        <time>2018-08-29T08:27:48Z</time>
      </trkpt>
      <trkpt lat="47.6549" lon="6.1998">
        <ele>292.49</ele>
        <time>2018-08-29T08:27:51Z</time>
      </trkpt>
      <trkpt lat="47.65493" lon="6.19985">
        <ele>292.34</ele>
        <time>2018-08-29T08:27:54Z</time>
      </trkpt>
      <trkpt lat="47.65498" lon="6.19991">
        <ele>292.21</ele>
        <time>2018-08-29T08:27:57Z</time>
      </trkpt>
      <trkpt lat="47.65503" lon="6.19998">
        <ele>292.07</ele>
        <time>2018-08-29T08:28:00Z</time>
      </trkpt>
      <trkpt lat="47.65507" lon="6.20003">
        <ele>291.99</ele>
        <time>2018-08-29T08:28:02Z</time>
      </trkpt>
      <trkpt lat="47.65511" lon="6.20009">
        <ele>291.91</ele>
        <time>2018-08-29T08:28:04Z</time>
      </trkpt>
      <trkpt lat="47.65516" lon="6.20016">
        <ele>291.82</ele>
        <time>2018-08-29T08:28:06Z</time>
      </trkpt>
      <trkpt lat="47.65521" lon="6.20022">
        <ele>291.74</ele>
        <time>2018-08-29T08:28:08Z</time>
      </trkpt>
      <trkpt lat="47.65527" lon="6.20029">
        <ele>291.66</ele>
        <time>2018-08-29T08:28:10Z</time>
      </trkpt>
      <trkpt lat="47.65531" lon="6.20034">
        <ele>291.58</ele>
        <time>2018-08-29T08:28:12Z</time>
      </trkpt>
      <trkpt lat="47.65536" lon="6.20039">
        <ele>291.5</ele>
        <time>2018-08-29T08:28:14Z</time>
      </trkpt>
      <trkpt lat="47.65539" lon="6.20044">
        <ele>291.43</ele>
        <time>2018-08-29T08:28:16Z</time>
      </trkpt>
      <trkpt lat="47.65545" lon="6.20051">
        <ele>291.32</ele>
        <time>2018-08-29T08:28:19Z</time>
      </trkpt>
      <trkpt lat="47.65549" lon="6.20056">
        <ele>291.24</ele>
        <time>2018-08-29T08:28:21Z</time>
      </trkpt>
      <trkpt lat="47.65552" lon="6.2006">
        <ele>291.17</ele>
        <time>2018-08-29T08:28:23Z</time>
      </trkpt>
      <trkpt lat="47.65556" lon="6.20065">
        <ele>291.1</ele>
        <time>2018-08-29T08:28:25Z</time>
      </trkpt>
      <trkpt lat="47.6556" lon="6.20069">
        <ele>291.02</ele>
        <time>2018-08-29T08:28:27Z</time>
      </trkpt>
      <trkpt lat="47.65565" lon="6.20075">
        <ele>290.91</ele>
        <time>2018-08-29T08:28:30Z</time>
      </trkpt>
      <trkpt lat="47.6557" lon="6.20081">
        <ele>290.8</ele>
        <time>2018-08-29T08:28:33Z</time>
      </trkpt>
      <trkpt lat="47.65576" lon="6.20087">
        <ele>290.69</ele>
        <time>2018-08-29T08:28:36Z</time>
      </trkpt>
      <trkpt lat="47.6558" lon="6.20091">
        <ele>290.57</ele>
        <time>2018-08-29T08:28:39Z</time>
      </trkpt>
      <trkpt lat="47.65586" lon="6.20097">
        <ele>290.46</ele>
        <time>2018-08-29T08:28:42Z</time>
      </trkpt>
      <trkpt lat="47.65591" lon="6.20102">
        <ele>290.35</ele>
        <time>2018-08-29T08:28:45Z</time>
      </trkpt>
      <trkpt lat="47.65596" lon="6.20108">
        <ele>290.23</ele>
        <time>2018-08-29T08:28:48Z</time>
      </trkpt>
      <trkpt lat="47.65601" lon="6.20114">
        <ele>290.12</ele>
        <time>2018-08-29T08:28:51Z</time>
      </trkpt>
      <trkpt lat="47.65606" lon="6.20118">
        <ele>290</ele>
        <time>2018-08-29T08:28:54Z</time>
      </trkpt>
      <trkpt lat="47.65609" lon="6.20122">
        <ele>289.93</ele>
        <time>2018-08-29T08:28:56Z</time>
      </trkpt>
      <trkpt lat="47.65614" lon="6.20128">
        <ele>289.81</ele>
        <time>2018-08-29T08:28:59Z</time>
      </trkpt>
      <trkpt lat="47.65619" lon="6.20134">
        <ele>289.7</ele>
        <time>2018-08-29T08:29:02Z</time>
      </trkpt>
      <trkpt lat="47.65624" lon="6.20138">
        <ele>289.59</ele>
        <time>2018-08-29T08:29:05Z</time>
      </trkpt>
      <trkpt lat="47.65628" lon="6.20141">
        <ele>289.48</ele>
        <time>2018-08-29T08:29:08Z</time>
      </trkpt>
      <trkpt lat="47.65633" lon="6.20143">
        <ele>289.37</ele>
        <time>2018-08-29T08:29:11Z</time>
      </trkpt>
      <trkpt lat="47.65638" lon="6.20145">
        <ele>289.27</ele>
        <time>2018-08-29T08:29:14Z</time>
      </trkpt>
      <trkpt lat="47.65642" lon="6.20142">
        <ele>289.17</ele>
        <time>2018-08-29T08:29:17Z</time>
      </trkpt>
      <trkpt lat="47.65645" lon="6.20137">
        <ele>289.07</ele>
        <time>2018-08-29T08:29:20Z</time>
      </trkpt>
      <trkpt lat="47.65648" lon="6.20132">
        <ele>288.98</ele>
        <time>2018-08-29T08:29:23Z</time>
      </trkpt>
      <trkpt lat="47.6565" lon="6.20125">
        <ele>288.85</ele>
        <time>2018-08-29T08:29:27Z</time>
      </trkpt>
      <trkpt lat="47.65654" lon="6.2012">
        <ele>288.71</ele>
        <time>2018-08-29T08:29:32Z</time>
      </trkpt>
      <trkpt lat="47.65657" lon="6.20115">
        <ele>288.57</ele>
        <time>2018-08-29T08:29:37Z</time>
      </trkpt>
      <trkpt lat="47.65661" lon="6.20109">
        <ele>288.47</ele>
        <time>2018-08-29T08:29:41Z</time>
      </trkpt>
      <trkpt lat="47.65664" lon="6.20104">
        <ele>288.32</ele>
        <time>2018-08-29T08:29:47Z</time>
      </trkpt>
      <trkpt lat="47.65667" lon="6.20099">
        <ele>288.21</ele>
        <time>2018-08-29T08:29:52Z</time>
      </trkpt>
      <trkpt lat="47.65669" lon="6.20093">
        <ele>288.11</ele>
        <time>2018-08-29T08:29:57Z</time>
      </trkpt>
      <trkpt lat="47.65673" lon="6.20088">
        <ele>288.02</ele>
        <time>2018-08-29T08:30:02Z</time>
      </trkpt>
      <trkpt lat="47.65676" lon="6.20083">
        <ele>287.94</ele>
        <time>2018-08-29T08:30:07Z</time>
      </trkpt>
      <trkpt lat="47.65679" lon="6.20077">
        <ele>287.87</ele>
        <time>2018-08-29T08:30:12Z</time>
      </trkpt>
      <trkpt lat="47.65683" lon="6.20071">
        <ele>287.81</ele>
        <time>2018-08-29T08:30:17Z</time>
      </trkpt>
      <trkpt lat="47.65687" lon="6.20066">
        <ele>287.77</ele>
        <time>2018-08-29T08:30:22Z</time>
      </trkpt>
      <trkpt lat="47.6569" lon="6.20061">
        <ele>287.73</ele>
        <time>2018-08-29T08:30:27Z</time>
      </trkpt>
      <trkpt lat="47.65694" lon="6.20056">
        <ele>287.7</ele>
        <time>2018-08-29T08:30:32Z</time>
      </trkpt>
      <trkpt lat="47.65697" lon="6.2005">
        <ele>287.69</ele>
        <time>2018-08-29T08:30:37Z</time>
      </trkpt>
      <trkpt lat="47.657" lon="6.20045">
        <ele>287.68</ele>
        <time>2018-08-29T08:30:42Z</time>
      </trkpt>
      <trkpt lat="47.65704" lon="6.20041">
        <ele>287.68</ele>
        <time>2018-08-29T08:30:47Z</time>
      </trkpt>
      <trkpt lat="47.65707" lon="6.20035">
        <ele>287.69</ele>
        <time>2018-08-29T08:30:52Z</time>
      </trkpt>
      <trkpt lat="47.65709" lon="6.20028">
        <ele>287.72</ele>
        <time>2018-08-29T08:30:57Z</time>
      </trkpt>
      <trkpt lat="47.65714" lon="6.20023">
        <ele>287.76</ele>
        <time>2018-08-29T08:31:03Z</time>
      </trkpt>
      <trkpt lat="47.65718" lon="6.20018">
        <ele>287.8</ele>
        <time>2018-08-29T08:31:08Z</time>
      </trkpt>
      <trkpt lat="47.65722" lon="6.20013">
        <ele>287.84</ele>
        <time>2018-08-29T08:31:13Z</time>
      </trkpt>
      <trkpt lat="47.65725" lon="6.20008">
        <ele>287.88</ele>
        <time>2018-08-29T08:31:17Z</time>
      </trkpt>
      <trkpt lat="47.65729" lon="6.20003">
        <ele>287.93</ele>
        <time>2018-08-29T08:31:21Z</time>
      </trkpt>
      <trkpt lat="47.65732" lon="6.19997">
        <ele>287.99</ele>
        <time>2018-08-29T08:31:25Z</time>
      </trkpt>
      <trkpt lat="47.65735" lon="6.19991">
        <ele>288.06</ele>
        <time>2018-08-29T08:31:30Z</time>
      </trkpt>
      <trkpt lat="47.65738" lon="6.19985">
        <ele>288.14</ele>
        <time>2018-08-29T08:31:35Z</time>
      </trkpt>
      <trkpt lat="47.6574" lon="6.19979">
        <ele>288.2</ele>
        <time>2018-08-29T08:31:39Z</time>
      </trkpt>
      <trkpt lat="47.65743" lon="6.19973">
        <ele>288.27</ele>
        <time>2018-08-29T08:31:43Z</time>
      </trkpt>
      <trkpt lat="47.65745" lon="6.19967">
        <ele>288.36</ele>
        <time>2018-08-29T08:31:48Z</time>
      </trkpt>
      <trkpt lat="47.65747" lon="6.1996">
        <ele>288.46</ele>
        <time>2018-08-29T08:31:53Z</time>
      </trkpt>
      <trkpt lat="47.6575" lon="6.19954">
        <ele>288.56</ele>
        <time>2018-08-29T08:31:58Z</time>
      </trkpt>
      <trkpt lat="47.65753" lon="6.19948">
        <ele>288.66</ele>
        <time>2018-08-29T08:32:03Z</time>
      </trkpt>
      <trkpt lat="47.65756" lon="6.19942">
        <ele>288.77</ele>
        <time>2018-08-29T08:32:08Z</time>
      </trkpt>
      <trkpt lat="47.65759" lon="6.19935">
        <ele>288.89</ele>
        <time>2018-08-29T08:32:13Z</time>
      </trkpt>
      <trkpt lat="47.65762" lon="6.19929">
        <ele>289.01</ele>
        <time>2018-08-29T08:32:18Z</time>
      </trkpt>
      <trkpt lat="47.65765" lon="6.19923">
        <ele>289.11</ele>
        <time>2018-08-29T08:32:22Z</time>
      </trkpt>
      <trkpt lat="47.65769" lon="6.19918">
        <ele>289.2</ele>
        <time>2018-08-29T08:32:26Z</time>
      </trkpt>
      <trkpt lat="47.65773" lon="6.19911">
        <ele>289.3</ele>
        <time>2018-08-29T08:32:30Z</time>
      </trkpt>
      <trkpt lat="47.65777" lon="6.19905">
        <ele>289.39</ele>
        <time>2018-08-29T08:32:34Z</time>
      </trkpt>
      <trkpt lat="47.65781" lon="6.19899">
        <ele>289.48</ele>
        <time>2018-08-29T08:32:38Z</time>
      </trkpt>
      <trkpt lat="47.65784" lon="6.19893">
        <ele>289.57</ele>
        <time>2018-08-29T08:32:42Z</time>
      </trkpt>
      <trkpt lat="47.65788" lon="6.19887">
        <ele>289.68</ele>
        <time>2018-08-29T08:32:47Z</time>
      </trkpt>
      <trkpt lat="47.6579" lon="6.1988">
        <ele>289.8</ele>
        <time>2018-08-29T08:32:52Z</time>
      </trkpt>
      <trkpt lat="47.65794" lon="6.19875">
        <ele>289.96</ele>
        <time>2018-08-29T08:32:58Z</time>
      </trkpt>
      <trkpt lat="47.65798" lon="6.19871">
        <ele>290.14</ele>
        <time>2018-08-29T08:33:04Z</time>
      </trkpt>
      <trkpt lat="47.65803" lon="6.19867">
        <ele>290.29</ele>
        <time>2018-08-29T08:33:10Z</time>
      </trkpt>
      <trkpt lat="47.65808" lon="6.19864">
        <ele>290.45</ele>
        <time>2018-08-29T08:33:15Z</time>
      </trkpt>
      <trkpt lat="47.65812" lon="6.19859">
        <ele>290.57</ele>
        <time>2018-08-29T08:33:19Z</time>
      </trkpt>
      <trkpt lat="47.65815" lon="6.19854">
        <ele>290.69</ele>
        <time>2018-08-29T08:33:23Z</time>
      </trkpt>
      <trkpt lat="47.65819" lon="6.19849">
        <ele>290.81</ele>
        <time>2018-08-29T08:33:27Z</time>
      </trkpt>
      <trkpt lat="47.65822" lon="6.19844">
        <ele>290.92</ele>
        <time>2018-08-29T08:33:31Z</time>
      </trkpt>
      <trkpt lat="47.65825" lon="6.19838">
        <ele>291.03</ele>
        <time>2018-08-29T08:33:35Z</time>
      </trkpt>
      <trkpt lat="47.65828" lon="6.19833">
        <ele>291.14</ele>
        <time>2018-08-29T08:33:39Z</time>
      </trkpt>
      <trkpt lat="47.65832" lon="6.19828">
        <ele>291.24</ele>
        <time>2018-08-29T08:33:43Z</time>
      </trkpt>
      <trkpt lat="47.65835" lon="6.19823">
        <ele>291.34</ele>
        <time>2018-08-29T08:33:47Z</time>
      </trkpt>
      <trkpt lat="47.65838" lon="6.19818">
        <ele>291.43</ele>
        <time>2018-08-29T08:33:51Z</time>
      </trkpt>
      <trkpt lat="47.65841" lon="6.19812">
        <ele>291.53</ele>
        <time>2018-08-29T08:33:55Z</time>
      </trkpt>
      <trkpt lat="47.65843" lon="6.19806">
        <ele>291.62</ele>
        <time>2018-08-29T08:33:59Z</time>
      </trkpt>
      <trkpt lat="47.65846" lon="6.198">
        <ele>291.71</ele>
        <time>2018-08-29T08:34:03Z</time>
      </trkpt>
      <trkpt lat="47.65849" lon="6.19794">
        <ele>291.81</ele>
        <time>2018-08-29T08:34:07Z</time>
      </trkpt>
      <trkpt lat="47.65853" lon="6.19788">
        <ele>291.9</ele>
        <time>2018-08-29T08:34:11Z</time>
      </trkpt>
      <trkpt lat="47.65856" lon="6.19783">
        <ele>291.98</ele>
        <time>2018-08-29T08:34:15Z</time>
      </trkpt>
      <trkpt lat="47.6586" lon="6.19777">
        <ele>292.07</ele>
        <time>2018-08-29T08:34:19Z</time>
      </trkpt>
      <trkpt lat="47.65863" lon="6.19771">
        <ele>292.16</ele>
        <time>2018-08-29T08:34:23Z</time>
      </trkpt>
      <trkpt lat="47.65866" lon="6.19765">
        <ele>292.27</ele>
        <time>2018-08-29T08:34:28Z</time>
      </trkpt>
      <trkpt lat="47.6587" lon="6.19759">
        <ele>292.38</ele>
        <time>2018-08-29T08:34:33Z</time>
      </trkpt>
      <trkpt lat="47.65873" lon="6.19753">
        <ele>292.49</ele>
        <time>2018-08-29T08:34:38Z</time>
      </trkpt>
      <trkpt lat="47.65877" lon="6.19748">
        <ele>292.6</ele>
        <time>2018-08-29T08:34:43Z</time>
      </trkpt>
      <trkpt lat="47.65881" lon="6.19743">
        <ele>292.71</ele>
        <time>2018-08-29T08:34:48Z</time>
      </trkpt>
      <trkpt lat="47.65885" lon="6.1974">
        <ele>292.8</ele>
        <time>2018-08-29T08:34:52Z</time>
      </trkpt>
      <trkpt lat="47.6589" lon="6.19736">
        <ele>292.89</ele>
        <time>2018-08-29T08:34:56Z</time>
      </trkpt>
      <trkpt lat="47.65895" lon="6.19732">
        <ele>292.98</ele>
        <time>2018-08-29T08:35:00Z</time>
      </trkpt>
      <trkpt lat="47.65899" lon="6.1973">
        <ele>293.08</ele>
        <time>2018-08-29T08:35:04Z</time>
      </trkpt>
      <trkpt lat="47.65904" lon="6.19727">
        <ele>293.18</ele>
        <time>2018-08-29T08:35:08Z</time>
      </trkpt>
      <trkpt lat="47.65909" lon="6.19724">
        <ele>293.28</ele>
        <time>2018-08-29T08:35:12Z</time>
      </trkpt>
      <trkpt lat="47.65913" lon="6.19721">
        <ele>293.38</ele>
        <time>2018-08-29T08:35:16Z</time>
      </trkpt>
      <trkpt lat="47.65918" lon="6.19719">
        <ele>293.49</ele>
        <time>2018-08-29T08:35:20Z</time>
      </trkpt>
      <trkpt lat="47.65922" lon="6.19717">
        <ele>293.57</ele>
        <time>2018-08-29T08:35:23Z</time>
      </trkpt>
      <trkpt lat="47.65928" lon="6.19715">
        <ele>293.69</ele>
        <time>2018-08-29T08:35:27Z</time>
      </trkpt>
      <trkpt lat="47.65933" lon="6.19712">
        <ele>293.81</ele>
        <time>2018-08-29T08:35:31Z</time>
      </trkpt>
      <trkpt lat="47.65938" lon="6.1971">
        <ele>293.98</ele>
        <time>2018-08-29T08:35:36Z</time>
      </trkpt>
      <trkpt lat="47.65944" lon="6.1971">
        <ele>294.21</ele>
        <time>2018-08-29T08:35:42Z</time>
      </trkpt>
      <trkpt lat="47.65948" lon="6.19708">
        <ele>294.38</ele>
        <time>2018-08-29T08:35:46Z</time>
      </trkpt>
      <trkpt lat="47.65952" lon="6.19702">
        <ele>294.57</ele>
        <time>2018-08-29T08:35:50Z</time>
      </trkpt>
      <trkpt lat="47.65955" lon="6.19697">
        <ele>294.72</ele>
        <time>2018-08-29T08:35:53Z</time>
      </trkpt>
      <trkpt lat="47.65957" lon="6.19689">
        <ele>294.93</ele>
        <time>2018-08-29T08:35:57Z</time>
      </trkpt>
      <trkpt lat="47.65959" lon="6.19682">
        <ele>295.15</ele>
        <time>2018-08-29T08:36:01Z</time>
      </trkpt>
      <trkpt lat="47.65961" lon="6.19674">
        <ele>295.38</ele>
        <time>2018-08-29T08:36:05Z</time>
      </trkpt>
      <trkpt lat="47.65962" lon="6.19666">
        <ele>295.63</ele>
        <time>2018-08-29T08:36:09Z</time>
      </trkpt>
      <trkpt lat="47.65964" lon="6.19658">
        <ele>295.88</ele>
        <time>2018-08-29T08:36:13Z</time>
      </trkpt>
      <trkpt lat="47.65966" lon="6.19651">
        <ele>296.15</ele>
        <time>2018-08-29T08:36:17Z</time>
      </trkpt>
      <trkpt lat="47.65969" lon="6.19644">
        <ele>296.42</ele>
        <time>2018-08-29T08:36:21Z</time>
      </trkpt>
      <trkpt lat="47.65972" lon="6.19637">
        <ele>296.71</ele>
        <time>2018-08-29T08:36:25Z</time>
      </trkpt>
      <trkpt lat="47.65976" lon="6.19632">
        <ele>297.01</ele>
        <time>2018-08-29T08:36:29Z</time>
      </trkpt>
      <trkpt lat="47.65981" lon="6.19629">
        <ele>297.32</ele>
        <time>2018-08-29T08:36:33Z</time>
      </trkpt>
      <trkpt lat="47.65986" lon="6.19628">
        <ele>297.57</ele>
        <time>2018-08-29T08:36:36Z</time>
      </trkpt>
      <trkpt lat="47.65991" lon="6.19627">
        <ele>297.82</ele>
        <time>2018-08-29T08:36:39Z</time>
      </trkpt>
      <trkpt lat="47.65996" lon="6.19626">
        <ele>298.16</ele>
        <time>2018-08-29T08:36:43Z</time>
      </trkpt>
      <trkpt lat="47.66002" lon="6.19625">
        <ele>298.51</ele>
        <time>2018-08-29T08:36:47Z</time>
      </trkpt>
      <trkpt lat="47.66007" lon="6.19627">
        <ele>298.97</ele>
        <time>2018-08-29T08:36:52Z</time>
      </trkpt>
      <trkpt lat="47.66012" lon="6.19629">
        <ele>299.33</ele>
        <time>2018-08-29T08:36:56Z</time>
      </trkpt>
      <trkpt lat="47.66017" lon="6.19627">
        <ele>299.8</ele>
        <time>2018-08-29T08:37:01Z</time>
      </trkpt>
      <trkpt lat="47.66022" lon="6.19627">
        <ele>300.18</ele>
        <time>2018-08-29T08:37:05Z</time>
      </trkpt>
      <trkpt lat="47.66027" lon="6.19626">
        <ele>300.58</ele>
        <time>2018-08-29T08:37:09Z</time>
      </trkpt>
      <trkpt lat="47.66032" lon="6.19625">
        <ele>300.98</ele>
        <time>2018-08-29T08:37:13Z</time>
      </trkpt>
      <trkpt lat="47.66037" lon="6.19623">
        <ele>301.4</ele>
        <time>2018-08-29T08:37:17Z</time>
      </trkpt>
      <trkpt lat="47.66041" lon="6.19618">
        <ele>301.94</ele>
        <time>2018-08-29T08:37:22Z</time>
      </trkpt>
      <trkpt lat="47.66045" lon="6.19615">
        <ele>302.72</ele>
        <time>2018-08-29T08:37:29Z</time>
      </trkpt>
      <trkpt lat="47.66049" lon="6.19612">
        <ele>303.18</ele>
        <time>2018-08-29T08:37:33Z</time>
      </trkpt>
      <trkpt lat="47.66054" lon="6.19608">
        <ele>303.9</ele>
        <time>2018-08-29T08:37:39Z</time>
      </trkpt>
      <trkpt lat="47.66058" lon="6.19604">
        <ele>304.52</ele>
        <time>2018-08-29T08:37:44Z</time>
      </trkpt>
      <trkpt lat="47.66063" lon="6.19601">
        <ele>305.29</ele>
        <time>2018-08-29T08:37:50Z</time>
      </trkpt>
      <trkpt lat="47.66068" lon="6.19597">
        <ele>306.09</ele>
        <time>2018-08-29T08:37:56Z</time>
      </trkpt>
      <trkpt lat="47.66073" lon="6.19594">
        <ele>306.63</ele>
        <time>2018-08-29T08:38:00Z</time>
      </trkpt>
      <trkpt lat="47.66078" lon="6.19592">
        <ele>307.05</ele>
        <time>2018-08-29T08:38:03Z</time>
      </trkpt>
      <trkpt lat="47.66084" lon="6.19591">
        <ele>307.48</ele>
        <time>2018-08-29T08:38:06Z</time>
      </trkpt>
      <trkpt lat="47.66089" lon="6.19591">
        <ele>307.93</ele>
        <time>2018-08-29T08:38:09Z</time>
      </trkpt>
      <trkpt lat="47.66094" lon="6.1959">
        <ele>308.39</ele>
        <time>2018-08-29T08:38:12Z</time>
      </trkpt>
      <trkpt lat="47.66098" lon="6.19587">
        <ele>309.31</ele>
        <time>2018-08-29T08:38:20Z</time>
      </trkpt>
      <trkpt lat="47.66101" lon="6.19582">
        <ele>311.51</ele>
        <time>2018-08-29T08:38:52Z</time>
      </trkpt>
      <trkpt lat="47.66104" lon="6.19576">
        <ele>312.37</ele>
        <time>2018-08-29T08:38:56Z</time>
      </trkpt>
      <trkpt lat="47.66108" lon="6.1957">
        <ele>313.22</ele>
        <time>2018-08-29T08:39:00Z</time>
      </trkpt>
      <trkpt lat="47.66111" lon="6.19563">
        <ele>313.83</ele>
        <time>2018-08-29T08:39:03Z</time>
      </trkpt>
      <trkpt lat="47.66114" lon="6.19557">
        <ele>314.44</ele>
        <time>2018-08-29T08:39:06Z</time>
      </trkpt>
      <trkpt lat="47.66117" lon="6.19551">
        <ele>315.03</ele>
        <time>2018-08-29T08:39:09Z</time>
      </trkpt>
      <trkpt lat="47.66119" lon="6.19544">
        <ele>315.6</ele>
        <time>2018-08-29T08:39:12Z</time>
      </trkpt>
      <trkpt lat="47.66122" lon="6.19537">
        <ele>316.16</ele>
        <time>2018-08-29T08:39:15Z</time>
      </trkpt>
      <trkpt lat="47.66124" lon="6.19529">
        <ele>316.69</ele>
        <time>2018-08-29T08:39:18Z</time>
      </trkpt>
      <trkpt lat="47.66127" lon="6.19523">
        <ele>317.21</ele>
        <time>2018-08-29T08:39:21Z</time>
      </trkpt>
      <trkpt lat="47.6613" lon="6.19519">
        <ele>317.87</ele>
        <time>2018-08-29T08:39:25Z</time>
      </trkpt>
      <trkpt lat="47.66135" lon="6.19516">
        <ele>318.5</ele>
        <time>2018-08-29T08:39:29Z</time>
      </trkpt>
      <trkpt lat="47.6614" lon="6.19514">
        <ele>319.26</ele>
        <time>2018-08-29T08:39:34Z</time>
      </trkpt>
      <trkpt lat="47.66146" lon="6.1951">
        <ele>319.85</ele>
        <time>2018-08-29T08:39:38Z</time>
      </trkpt>
      <trkpt lat="47.6615" lon="6.19508">
        <ele>320.26</ele>
        <time>2018-08-29T08:39:41Z</time>
      </trkpt>
      <trkpt lat="47.66156" lon="6.19505">
        <ele>320.67</ele>
        <time>2018-08-29T08:39:44Z</time>
      </trkpt>
      <trkpt lat="47.66162" lon="6.19504">
        <ele>321.08</ele>
        <time>2018-08-29T08:39:47Z</time>
      </trkpt>
      <trkpt lat="47.66167" lon="6.19503">
        <ele>321.47</ele>
        <time>2018-08-29T08:39:50Z</time>
      </trkpt>
      <trkpt lat="47.66171" lon="6.19503">
        <ele>321.86</ele>
        <time>2018-08-29T08:39:53Z</time>
      </trkpt>
      <trkpt lat="47.66172" lon="6.19497">
        <ele>322.72</ele>
        <time>2018-08-29T08:40:22Z</time>
      </trkpt>
      <trkpt lat="47.66178" lon="6.19494">
        <ele>323.87</ele>
        <time>2018-08-29T08:40:32Z</time>
      </trkpt>
      <trkpt lat="47.66184" lon="6.19492">
        <ele>324.61</ele>
        <time>2018-08-29T08:40:36Z</time>
      </trkpt>
      <trkpt lat="47.66188" lon="6.1949">
        <ele>325.14</ele>
        <time>2018-08-29T08:40:39Z</time>
      </trkpt>
      <trkpt lat="47.66194" lon="6.19489">
        <ele>325.67</ele>
        <time>2018-08-29T08:40:42Z</time>
      </trkpt>
      <trkpt lat="47.66199" lon="6.1949">
        <ele>326.19</ele>
        <time>2018-08-29T08:40:45Z</time>
      </trkpt>
      <trkpt lat="47.66205" lon="6.1949">
        <ele>326.86</ele>
        <time>2018-08-29T08:40:49Z</time>
      </trkpt>
      <trkpt lat="47.6621" lon="6.19491">
        <ele>327.36</ele>
        <time>2018-08-29T08:40:52Z</time>
      </trkpt>
      <trkpt lat="47.66216" lon="6.19492">
        <ele>327.85</ele>
        <time>2018-08-29T08:40:55Z</time>
      </trkpt>
      <trkpt lat="47.66223" lon="6.19492">
        <ele>328.33</ele>
        <time>2018-08-29T08:40:58Z</time>
      </trkpt>
      <trkpt lat="47.66227" lon="6.19493">
        <ele>328.65</ele>
        <time>2018-08-29T08:41:00Z</time>
      </trkpt>
      <trkpt lat="47.66233" lon="6.19494">
        <ele>328.95</ele>
        <time>2018-08-29T08:41:02Z</time>
      </trkpt>
      <trkpt lat="47.66239" lon="6.19495">
        <ele>329.4</ele>
        <time>2018-08-29T08:41:05Z</time>
      </trkpt>
      <trkpt lat="47.66245" lon="6.19497">
        <ele>329.84</ele>
        <time>2018-08-29T08:41:08Z</time>
      </trkpt>
      <trkpt lat="47.6625" lon="6.19499">
        <ele>330.27</ele>
        <time>2018-08-29T08:41:11Z</time>
      </trkpt>
      <trkpt lat="47.66255" lon="6.19499">
        <ele>330.69</ele>
        <time>2018-08-29T08:41:14Z</time>
      </trkpt>
      <trkpt lat="47.6626" lon="6.19501">
        <ele>331.1</ele>
        <time>2018-08-29T08:41:17Z</time>
      </trkpt>
      <trkpt lat="47.66265" lon="6.19502">
        <ele>331.49</ele>
        <time>2018-08-29T08:41:20Z</time>
      </trkpt>
      <trkpt lat="47.66271" lon="6.19505">
        <ele>331.87</ele>
        <time>2018-08-29T08:41:23Z</time>
      </trkpt>
      <trkpt lat="47.66277" lon="6.19507">
        <ele>332.25</ele>
        <time>2018-08-29T08:41:26Z</time>
      </trkpt>
      <trkpt lat="47.66283" lon="6.19508">
        <ele>332.61</ele>
        <time>2018-08-29T08:41:29Z</time>
      </trkpt>
      <trkpt lat="47.6629" lon="6.19509">
        <ele>332.96</ele>
        <time>2018-08-29T08:41:32Z</time>
      </trkpt>
      <trkpt lat="47.66295" lon="6.19511">
        <ele>333.19</ele>
        <time>2018-08-29T08:41:34Z</time>
      </trkpt>
      <trkpt lat="47.663" lon="6.19512">
        <ele>333.41</ele>
        <time>2018-08-29T08:41:36Z</time>
      </trkpt>
      <trkpt lat="47.66305" lon="6.19514">
        <ele>333.63</ele>
        <time>2018-08-29T08:41:38Z</time>
      </trkpt>
      <trkpt lat="47.66311" lon="6.19515">
        <ele>333.84</ele>
        <time>2018-08-29T08:41:40Z</time>
      </trkpt>
      <trkpt lat="47.66316" lon="6.19517">
        <ele>334.04</ele>
        <time>2018-08-29T08:41:42Z</time>
      </trkpt>
      <trkpt lat="47.66322" lon="6.19518">
        <ele>334.24</ele>
        <time>2018-08-29T08:41:44Z</time>
      </trkpt>
      <trkpt lat="47.66327" lon="6.19521">
        <ele>334.44</ele>
        <time>2018-08-29T08:41:46Z</time>
      </trkpt>
      <trkpt lat="47.66332" lon="6.19522">
        <ele>334.63</ele>
        <time>2018-08-29T08:41:48Z</time>
      </trkpt>
      <trkpt lat="47.66337" lon="6.19524">
        <ele>334.82</ele>
        <time>2018-08-29T08:41:50Z</time>
      </trkpt>
      <trkpt lat="47.66342" lon="6.19525">
        <ele>335</ele>
        <time>2018-08-29T08:41:52Z</time>
      </trkpt>
      <trkpt lat="47.66347" lon="6.19526">
        <ele>335.18</ele>
        <time>2018-08-29T08:41:54Z</time>
      </trkpt>
      <trkpt lat="47.66353" lon="6.19527">
        <ele>335.36</ele>
        <time>2018-08-29T08:41:56Z</time>
      </trkpt>
      <trkpt lat="47.66357" lon="6.19527">
        <ele>335.53</ele>
        <time>2018-08-29T08:41:58Z</time>
      </trkpt>
      <trkpt lat="47.66363" lon="6.19527">
        <ele>335.7</ele>
        <time>2018-08-29T08:42:00Z</time>
      </trkpt>
      <trkpt lat="47.66369" lon="6.19527">
        <ele>335.87</ele>
        <time>2018-08-29T08:42:02Z</time>
      </trkpt>
      <trkpt lat="47.66374" lon="6.19527">
        <ele>336.04</ele>
        <time>2018-08-29T08:42:04Z</time>
      </trkpt>
      <trkpt lat="47.66379" lon="6.19527">
        <ele>336.21</ele>
        <time>2018-08-29T08:42:06Z</time>
      </trkpt>
      <trkpt lat="47.66384" lon="6.19529">
        <ele>336.37</ele>
        <time>2018-08-29T08:42:08Z</time>
      </trkpt>
      <trkpt lat="47.6639" lon="6.1953">
        <ele>336.53</ele>
        <time>2018-08-29T08:42:10Z</time>
      </trkpt>
      <trkpt lat="47.66394" lon="6.19531">
        <ele>336.69</ele>
        <time>2018-08-29T08:42:12Z</time>
      </trkpt>
      <trkpt lat="47.664" lon="6.19533">
        <ele>336.85</ele>
        <time>2018-08-29T08:42:14Z</time>
      </trkpt>
      <trkpt lat="47.66406" lon="6.19534">
        <ele>337.63</ele>
        <time>2018-08-29T08:42:16Z</time>
      </trkpt>
      <trkpt lat="47.66412" lon="6.19535">
        <ele>338.2</ele>
        <time>2018-08-29T08:42:18Z</time>
      </trkpt>
      <trkpt lat="47.6642" lon="6.19537">
        <ele>338.46</ele>
        <time>2018-08-29T08:42:20Z</time>
      </trkpt>
      <trkpt lat="47.66428" lon="6.19539">
        <ele>339.21</ele>
        <time>2018-08-29T08:42:22Z</time>
      </trkpt>
      <trkpt lat="47.66432" lon="6.1954">
        <ele>339.55</ele>
        <time>2018-08-29T08:42:23Z</time>
      </trkpt>
      <trkpt lat="47.66437" lon="6.19541">
        <ele>339.83</ele>
        <time>2018-08-29T08:42:24Z</time>
      </trkpt>
      <trkpt lat="47.66451" lon="6.19544">
        <ele>340.06</ele>
        <time>2018-08-29T08:42:25Z</time>
      </trkpt>
      <trkpt lat="47.66456" lon="6.19546">
        <ele>340.27</ele>
        <time>2018-08-29T08:42:26Z</time>
      </trkpt>
      <trkpt lat="47.66461" lon="6.19547">
        <ele>340.45</ele>
        <time>2018-08-29T08:42:27Z</time>
      </trkpt>
      <trkpt lat="47.66466" lon="6.19548">
        <ele>340.62</ele>
        <time>2018-08-29T08:42:28Z</time>
      </trkpt>
      <trkpt lat="47.6647" lon="6.1955">
        <ele>340.79</ele>
        <time>2018-08-29T08:42:29Z</time>
      </trkpt>
      <trkpt lat="47.66478" lon="6.19554">
        <ele>341.02</ele>
        <time>2018-08-29T08:42:31Z</time>
      </trkpt>
      <trkpt lat="47.66484" lon="6.1956">
        <ele>341.08</ele>
        <time>2018-08-29T08:42:33Z</time>
      </trkpt>
      <trkpt lat="47.66489" lon="6.19565">
        <ele>341.18</ele>
        <time>2018-08-29T08:42:36Z</time>
      </trkpt>
      <trkpt lat="47.66493" lon="6.19569">
        <ele>341.27</ele>
        <time>2018-08-29T08:42:38Z</time>
      </trkpt>
      <trkpt lat="47.66498" lon="6.19573">
        <ele>341.37</ele>
        <time>2018-08-29T08:42:40Z</time>
      </trkpt>
      <trkpt lat="47.66503" lon="6.19578">
        <ele>341.47</ele>
        <time>2018-08-29T08:42:42Z</time>
      </trkpt>
      <trkpt lat="47.66508" lon="6.19583">
        <ele>341.57</ele>
        <time>2018-08-29T08:42:44Z</time>
      </trkpt>
      <trkpt lat="47.66513" lon="6.19587">
        <ele>341.68</ele>
        <time>2018-08-29T08:42:46Z</time>
      </trkpt>
      <trkpt lat="47.66517" lon="6.19591">
        <ele>341.8</ele>
        <time>2018-08-29T08:42:48Z</time>
      </trkpt>
      <trkpt lat="47.66522" lon="6.19595">
        <ele>341.91</ele>
        <time>2018-08-29T08:42:50Z</time>
      </trkpt>
      <trkpt lat="47.66526" lon="6.19599">
        <ele>342.03</ele>
        <time>2018-08-29T08:42:52Z</time>
      </trkpt>
      <trkpt lat="47.6653" lon="6.19603">
        <ele>342.15</ele>
        <time>2018-08-29T08:42:54Z</time>
      </trkpt>
      <trkpt lat="47.66534" lon="6.19606">
        <ele>342.26</ele>
        <time>2018-08-29T08:42:56Z</time>
      </trkpt>
      <trkpt lat="47.66539" lon="6.19613">
        <ele>342.4</ele>
        <time>2018-08-29T08:42:59Z</time>
      </trkpt>
      <trkpt lat="47.66544" lon="6.19617">
        <ele>342.49</ele>
        <time>2018-08-29T08:43:01Z</time>
      </trkpt>
      <trkpt lat="47.66549" lon="6.19623">
        <ele>342.55</ele>
        <time>2018-08-29T08:43:03Z</time>
      </trkpt>
      <trkpt lat="47.66555" lon="6.19628">
        <ele>342.61</ele>
        <time>2018-08-29T08:43:05Z</time>
      </trkpt>
      <trkpt lat="47.66562" lon="6.19633">
        <ele>342.66</ele>
        <time>2018-08-29T08:43:07Z</time>
      </trkpt>
      <trkpt lat="47.66569" lon="6.19637">
        <ele>342.7</ele>
        <time>2018-08-29T08:43:09Z</time>
      </trkpt>
      <trkpt lat="47.66575" lon="6.19642">
        <ele>342.74</ele>
        <time>2018-08-29T08:43:11Z</time>
      </trkpt>
      <trkpt lat="47.66582" lon="6.19647">
        <ele>343.02</ele>
        <time>2018-08-29T08:43:13Z</time>
      </trkpt>
      <trkpt lat="47.66589" lon="6.19652">
        <ele>343.16</ele>
        <time>2018-08-29T08:43:15Z</time>
      </trkpt>
      <trkpt lat="47.66596" lon="6.19657">
        <ele>343.19</ele>
        <time>2018-08-29T08:43:17Z</time>
      </trkpt>
      <trkpt lat="47.66602" lon="6.19662">
        <ele>343.2</ele>
        <time>2018-08-29T08:43:19Z</time>
      </trkpt>
      <trkpt lat="47.66608" lon="6.19668">
        <ele>343.18</ele>
        <time>2018-08-29T08:43:21Z</time>
      </trkpt>
      <trkpt lat="47.66614" lon="6.19673">
        <ele>343.08</ele>
        <time>2018-08-29T08:43:23Z</time>
      </trkpt>
      <trkpt lat="47.6662" lon="6.19681">
        <ele>342.96</ele>
        <time>2018-08-29T08:43:25Z</time>
      </trkpt>
      <trkpt lat="47.66629" lon="6.19692">
        <ele>342.89</ele>
        <time>2018-08-29T08:43:26Z</time>
      </trkpt>
      <trkpt lat="47.66634" lon="6.19701">
        <ele>342.73</ele>
        <time>2018-08-29T08:43:28Z</time>
      </trkpt>
      <trkpt lat="47.6664" lon="6.19708">
        <ele>342.57</ele>
        <time>2018-08-29T08:43:30Z</time>
      </trkpt>
      <trkpt lat="47.66647" lon="6.19718">
        <ele>342.39</ele>
        <time>2018-08-29T08:43:32Z</time>
      </trkpt>
      <trkpt lat="47.6665" lon="6.19723">
        <ele>342.3</ele>
        <time>2018-08-29T08:43:33Z</time>
      </trkpt>
      <trkpt lat="47.66654" lon="6.19728">
        <ele>342.2</ele>
        <time>2018-08-29T08:43:34Z</time>
      </trkpt>
      <trkpt lat="47.66657" lon="6.19732">
        <ele>342.11</ele>
        <time>2018-08-29T08:43:35Z</time>
      </trkpt>
      <trkpt lat="47.66661" lon="6.19738">
        <ele>342.02</ele>
        <time>2018-08-29T08:43:36Z</time>
      </trkpt>
      <trkpt lat="47.66665" lon="6.19745">
        <ele>341.94</ele>
        <time>2018-08-29T08:43:37Z</time>
      </trkpt>
      <trkpt lat="47.66669" lon="6.19751">
        <ele>341.86</ele>
        <time>2018-08-29T08:43:38Z</time>
      </trkpt>
      <trkpt lat="47.66673" lon="6.19756">
        <ele>341.78</ele>
        <time>2018-08-29T08:43:39Z</time>
      </trkpt>
      <trkpt lat="47.66676" lon="6.19762">
        <ele>341.7</ele>
        <time>2018-08-29T08:43:40Z</time>
      </trkpt>
      <trkpt lat="47.6668" lon="6.19768">
        <ele>341.63</ele>
        <time>2018-08-29T08:43:41Z</time>
      </trkpt>
      <trkpt lat="47.66684" lon="6.19773">
        <ele>341.56</ele>
        <time>2018-08-29T08:43:42Z</time>
      </trkpt>
      <trkpt lat="47.66687" lon="6.19779">
        <ele>341.49</ele>
        <time>2018-08-29T08:43:43Z</time>
      </trkpt>
      <trkpt lat="47.6669" lon="6.19784">
        <ele>341.41</ele>
        <time>2018-08-29T08:43:44Z</time>
      </trkpt>
      <trkpt lat="47.66694" lon="6.1979">
        <ele>341.34</ele>
        <time>2018-08-29T08:43:45Z</time>
      </trkpt>
      <trkpt lat="47.66698" lon="6.19795">
        <ele>341.26</ele>
        <time>2018-08-29T08:43:46Z</time>
      </trkpt>
      <trkpt lat="47.66701" lon="6.19801">
        <ele>341.18</ele>
        <time>2018-08-29T08:43:47Z</time>
      </trkpt>
      <trkpt lat="47.66705" lon="6.19806">
        <ele>341.11</ele>
        <time>2018-08-29T08:43:48Z</time>
      </trkpt>
      <trkpt lat="47.66709" lon="6.19812">
        <ele>341.03</ele>
        <time>2018-08-29T08:43:49Z</time>
      </trkpt>
      <trkpt lat="47.66713" lon="6.19818">
        <ele>340.95</ele>
        <time>2018-08-29T08:43:50Z</time>
      </trkpt>
      <trkpt lat="47.66717" lon="6.19824">
        <ele>340.87</ele>
        <time>2018-08-29T08:43:51Z</time>
      </trkpt>
      <trkpt lat="47.66721" lon="6.1983">
        <ele>340.79</ele>
        <time>2018-08-29T08:43:52Z</time>
      </trkpt>
      <trkpt lat="47.66726" lon="6.19836">
        <ele>340.71</ele>
        <time>2018-08-29T08:43:53Z</time>
      </trkpt>
      <trkpt lat="47.6673" lon="6.19842">
        <ele>340.62</ele>
        <time>2018-08-29T08:43:54Z</time>
      </trkpt>
      <trkpt lat="47.66734" lon="6.19847">
        <ele>340.53</ele>
        <time>2018-08-29T08:43:55Z</time>
      </trkpt>
      <trkpt lat="47.66738" lon="6.19852">
        <ele>340.42</ele>
        <time>2018-08-29T08:43:56Z</time>
      </trkpt>
      <trkpt lat="47.66743" lon="6.19857">
        <ele>340.32</ele>
        <time>2018-08-29T08:43:57Z</time>
      </trkpt>
      <trkpt lat="47.66747" lon="6.19863">
        <ele>340.21</ele>
        <time>2018-08-29T08:43:58Z</time>
      </trkpt>
      <trkpt lat="47.66751" lon="6.19868">
        <ele>340.09</ele>
        <time>2018-08-29T08:43:59Z</time>
      </trkpt>
      <trkpt lat="47.66755" lon="6.19874">
        <ele>339.98</ele>
        <time>2018-08-29T08:44:00Z</time>
      </trkpt>
      <trkpt lat="47.66759" lon="6.19879">
        <ele>339.87</ele>
        <time>2018-08-29T08:44:01Z</time>
      </trkpt>
      <trkpt lat="47.66763" lon="6.19883">
        <ele>339.75</ele>
        <time>2018-08-29T08:44:02Z</time>
      </trkpt>
      <trkpt lat="47.66767" lon="6.19889">
        <ele>339.64</ele>
        <time>2018-08-29T08:44:03Z</time>
      </trkpt>
      <trkpt lat="47.66772" lon="6.19894">
        <ele>339.53</ele>
        <time>2018-08-29T08:44:04Z</time>
      </trkpt>
      <trkpt lat="47.66776" lon="6.19899">
        <ele>339.42</ele>
        <time>2018-08-29T08:44:05Z</time>
      </trkpt>
      <trkpt lat="47.66781" lon="6.19904">
        <ele>339.32</ele>
        <time>2018-08-29T08:44:06Z</time>
      </trkpt>
      <trkpt lat="47.66785" lon="6.19909">
        <ele>339.22</ele>
        <time>2018-08-29T08:44:07Z</time>
      </trkpt>
      <trkpt lat="47.6679" lon="6.19914">
        <ele>339.13</ele>
        <time>2018-08-29T08:44:08Z</time>
      </trkpt>
      <trkpt lat="47.66794" lon="6.19917">
        <ele>339.03</ele>
        <time>2018-08-29T08:44:09Z</time>
      </trkpt>
      <trkpt lat="47.66799" lon="6.1992">
        <ele>338.93</ele>
        <time>2018-08-29T08:44:10Z</time>
      </trkpt>
      <trkpt lat="47.66804" lon="6.19922">
        <ele>338.82</ele>
        <time>2018-08-29T08:44:11Z</time>
      </trkpt>
      <trkpt lat="47.66809" lon="6.19924">
        <ele>338.78</ele>
        <time>2018-08-29T08:44:12Z</time>
      </trkpt>
      <trkpt lat="47.66817" lon="6.19929">
        <ele>338.6</ele>
        <time>2018-08-29T08:44:14Z</time>
      </trkpt>
      <trkpt lat="47.66821" lon="6.19931">
        <ele>338.51</ele>
        <time>2018-08-29T08:44:15Z</time>
      </trkpt>
      <trkpt lat="47.66826" lon="6.19933">
        <ele>338.47</ele>
        <time>2018-08-29T08:44:16Z</time>
      </trkpt>
      <trkpt lat="47.66833" lon="6.19936">
        <ele>338.36</ele>
        <time>2018-08-29T08:44:18Z</time>
      </trkpt>
      <trkpt lat="47.66842" lon="6.1994">
        <ele>338.12</ele>
        <time>2018-08-29T08:44:20Z</time>
      </trkpt>
      <trkpt lat="47.66851" lon="6.19943">
        <ele>337.9</ele>
        <time>2018-08-29T08:44:22Z</time>
      </trkpt>
      <trkpt lat="47.66856" lon="6.19945">
        <ele>337.8</ele>
        <time>2018-08-29T08:44:23Z</time>
      </trkpt>
      <trkpt lat="47.66862" lon="6.1995">
        <ele>337.75</ele>
        <time>2018-08-29T08:44:25Z</time>
      </trkpt>
      <trkpt lat="47.66868" lon="6.19955">
        <ele>337.7</ele>
        <time>2018-08-29T08:44:28Z</time>
      </trkpt>
      <trkpt lat="47.66872" lon="6.1996">
        <ele>337.61</ele>
        <time>2018-08-29T08:44:32Z</time>
      </trkpt>
      <trkpt lat="47.66877" lon="6.19964">
        <ele>337.56</ele>
        <time>2018-08-29T08:44:34Z</time>
      </trkpt>
      <trkpt lat="47.66883" lon="6.19967">
        <ele>337.5</ele>
        <time>2018-08-29T08:44:36Z</time>
      </trkpt>
      <trkpt lat="47.66889" lon="6.19972">
        <ele>337.43</ele>
        <time>2018-08-29T08:44:38Z</time>
      </trkpt>
      <trkpt lat="47.66894" lon="6.19977">
        <ele>337.36</ele>
        <time>2018-08-29T08:44:40Z</time>
      </trkpt>
      <trkpt lat="47.66897" lon="6.19983">
        <ele>337.29</ele>
        <time>2018-08-29T08:44:42Z</time>
      </trkpt>
      <trkpt lat="47.66902" lon="6.19989">
        <ele>337.17</ele>
        <time>2018-08-29T08:44:45Z</time>
      </trkpt>
      <trkpt lat="47.66906" lon="6.19997">
        <ele>337.1</ele>
        <time>2018-08-29T08:44:47Z</time>
      </trkpt>
      <trkpt lat="47.6691" lon="6.20005">
        <ele>337.03</ele>
        <time>2018-08-29T08:44:49Z</time>
      </trkpt>
      <trkpt lat="47.66916" lon="6.20011">
        <ele>336.96</ele>
        <time>2018-08-29T08:44:51Z</time>
      </trkpt>
      <trkpt lat="47.66922" lon="6.20017">
        <ele>336.9</ele>
        <time>2018-08-29T08:44:53Z</time>
      </trkpt>
      <trkpt lat="47.66927" lon="6.20021">
        <ele>336.83</ele>
        <time>2018-08-29T08:44:55Z</time>
      </trkpt>
      <trkpt lat="47.66933" lon="6.20025">
        <ele>336.77</ele>
        <time>2018-08-29T08:44:57Z</time>
      </trkpt>
      <trkpt lat="47.66939" lon="6.20029">
        <ele>336.7</ele>
        <time>2018-08-29T08:44:59Z</time>
      </trkpt>
      <trkpt lat="47.66943" lon="6.20033">
        <ele>336.63</ele>
        <time>2018-08-29T08:45:01Z</time>
      </trkpt>
      <trkpt lat="47.66947" lon="6.20037">
        <ele>336.56</ele>
        <time>2018-08-29T08:45:03Z</time>
      </trkpt>
      <trkpt lat="47.66953" lon="6.20045">
        <ele>336.29</ele>
        <time>2018-08-29T08:45:05Z</time>
      </trkpt>
      <trkpt lat="47.6696" lon="6.20053">
        <ele>336</ele>
        <time>2018-08-29T08:45:07Z</time>
      </trkpt>
      <trkpt lat="47.66968" lon="6.2006">
        <ele>335.89</ele>
        <time>2018-08-29T08:45:09Z</time>
      </trkpt>
      <trkpt lat="47.66971" lon="6.20064">
        <ele>335.74</ele>
        <time>2018-08-29T08:45:10Z</time>
      </trkpt>
      <trkpt lat="47.66979" lon="6.20072">
        <ele>335.65</ele>
        <time>2018-08-29T08:45:12Z</time>
      </trkpt>
      <trkpt lat="47.66986" lon="6.2008">
        <ele>335.61</ele>
        <time>2018-08-29T08:45:14Z</time>
      </trkpt>
      <trkpt lat="47.66992" lon="6.20088">
        <ele>335.45</ele>
        <time>2018-08-29T08:45:16Z</time>
      </trkpt>
      <trkpt lat="47.66999" lon="6.20097">
        <ele>335.23</ele>
        <time>2018-08-29T08:45:18Z</time>
      </trkpt>
      <trkpt lat="47.67005" lon="6.20106">
        <ele>335.04</ele>
        <time>2018-08-29T08:45:20Z</time>
      </trkpt>
      <trkpt lat="47.67009" lon="6.20111">
        <ele>334.96</ele>
        <time>2018-08-29T08:45:21Z</time>
      </trkpt>
      <trkpt lat="47.6702" lon="6.20127">
        <ele>334.89</ele>
        <time>2018-08-29T08:45:22Z</time>
      </trkpt>
      <trkpt lat="47.67025" lon="6.20133">
        <ele>334.83</ele>
        <time>2018-08-29T08:45:23Z</time>
      </trkpt>
      <trkpt lat="47.67029" lon="6.20138">
        <ele>334.78</ele>
        <time>2018-08-29T08:45:24Z</time>
      </trkpt>
      <trkpt lat="47.67033" lon="6.20143">
        <ele>334.72</ele>
        <time>2018-08-29T08:45:25Z</time>
      </trkpt>
      <trkpt lat="47.67037" lon="6.20148">
        <ele>334.67</ele>
        <time>2018-08-29T08:45:26Z</time>
      </trkpt>
      <trkpt lat="47.67041" lon="6.20154">
        <ele>334.63</ele>
        <time>2018-08-29T08:45:27Z</time>
      </trkpt>
      <trkpt lat="47.67048" lon="6.20163">
        <ele>334.54</ele>
        <time>2018-08-29T08:45:29Z</time>
      </trkpt>
      <trkpt lat="47.67055" lon="6.20171">
        <ele>334.45</ele>
        <time>2018-08-29T08:45:31Z</time>
      </trkpt>
      <trkpt lat="47.67062" lon="6.20178">
        <ele>334.39</ele>
        <time>2018-08-29T08:45:33Z</time>
      </trkpt>
      <trkpt lat="47.67068" lon="6.20183">
        <ele>334.38</ele>
        <time>2018-08-29T08:45:35Z</time>
      </trkpt>
      <trkpt lat="47.67074" lon="6.20189">
        <ele>334.36</ele>
        <time>2018-08-29T08:45:37Z</time>
      </trkpt>
      <trkpt lat="47.6708" lon="6.20195">
        <ele>334.35</ele>
        <time>2018-08-29T08:45:39Z</time>
      </trkpt>
      <trkpt lat="47.67087" lon="6.20201">
        <ele>334.21</ele>
        <time>2018-08-29T08:45:41Z</time>
      </trkpt>
      <trkpt lat="47.67094" lon="6.20207">
        <ele>334.07</ele>
        <time>2018-08-29T08:45:43Z</time>
      </trkpt>
      <trkpt lat="47.67101" lon="6.20214">
        <ele>334.04</ele>
        <time>2018-08-29T08:45:45Z</time>
      </trkpt>
      <trkpt lat="47.67107" lon="6.20221">
        <ele>333.98</ele>
        <time>2018-08-29T08:45:47Z</time>
      </trkpt>
      <trkpt lat="47.67114" lon="6.20228">
        <ele>333.91</ele>
        <time>2018-08-29T08:45:49Z</time>
      </trkpt>
      <trkpt lat="47.6712" lon="6.20234">
        <ele>333.89</ele>
        <time>2018-08-29T08:45:51Z</time>
      </trkpt>
      <trkpt lat="47.67126" lon="6.2024">
        <ele>333.87</ele>
        <time>2018-08-29T08:45:53Z</time>
      </trkpt>
      <trkpt lat="47.67131" lon="6.20247">
        <ele>333.86</ele>
        <time>2018-08-29T08:45:55Z</time>
      </trkpt>
      <trkpt lat="47.67136" lon="6.20251">
        <ele>333.81</ele>
        <time>2018-08-29T08:45:58Z</time>
      </trkpt>
      <trkpt lat="47.67141" lon="6.20255">
        <ele>333.63</ele>
        <time>2018-08-29T08:46:00Z</time>
      </trkpt>
      <trkpt lat="47.67146" lon="6.20261">
        <ele>333.39</ele>
        <time>2018-08-29T08:46:02Z</time>
      </trkpt>
      <trkpt lat="47.67153" lon="6.20267">
        <ele>333.2</ele>
        <time>2018-08-29T08:46:03Z</time>
      </trkpt>
      <trkpt lat="47.6716" lon="6.20273">
        <ele>332.84</ele>
        <time>2018-08-29T08:46:05Z</time>
      </trkpt>
      <trkpt lat="47.67167" lon="6.20279">
        <ele>332.54</ele>
        <time>2018-08-29T08:46:07Z</time>
      </trkpt>
      <trkpt lat="47.67172" lon="6.20285">
        <ele>332.46</ele>
        <time>2018-08-29T08:46:09Z</time>
      </trkpt>
      <trkpt lat="47.67178" lon="6.2029">
        <ele>332.42</ele>
        <time>2018-08-29T08:46:11Z</time>
      </trkpt>
      <trkpt lat="47.67184" lon="6.20297">
        <ele>332.38</ele>
        <time>2018-08-29T08:46:13Z</time>
      </trkpt>
      <trkpt lat="47.67191" lon="6.20302">
        <ele>332.33</ele>
        <time>2018-08-29T08:46:15Z</time>
      </trkpt>
      <trkpt lat="47.67196" lon="6.20307">
        <ele>332.28</ele>
        <time>2018-08-29T08:46:17Z</time>
      </trkpt>
      <trkpt lat="47.67203" lon="6.20313">
        <ele>331.97</ele>
        <time>2018-08-29T08:46:19Z</time>
      </trkpt>
      <trkpt lat="47.6721" lon="6.20314">
        <ele>331.89</ele>
        <time>2018-08-29T08:46:21Z</time>
      </trkpt>
      <trkpt lat="47.67215" lon="6.2031">
        <ele>331.82</ele>
        <time>2018-08-29T08:46:23Z</time>
      </trkpt>
      <trkpt lat="47.6722" lon="6.20305">
        <ele>331.75</ele>
        <time>2018-08-29T08:46:25Z</time>
      </trkpt>
      <trkpt lat="47.67225" lon="6.20298">
        <ele>331.68</ele>
        <time>2018-08-29T08:46:27Z</time>
      </trkpt>
      <trkpt lat="47.6723" lon="6.20292">
        <ele>331.6</ele>
        <time>2018-08-29T08:46:29Z</time>
      </trkpt>
      <trkpt lat="47.67235" lon="6.20287">
        <ele>331.51</ele>
        <time>2018-08-29T08:46:31Z</time>
      </trkpt>
      <trkpt lat="47.6724" lon="6.20283">
        <ele>331.43</ele>
        <time>2018-08-29T08:46:33Z</time>
      </trkpt>
      <trkpt lat="47.67245" lon="6.20279">
        <ele>331.34</ele>
        <time>2018-08-29T08:46:35Z</time>
      </trkpt>
      <trkpt lat="47.6725" lon="6.20276">
        <ele>331.26</ele>
        <time>2018-08-29T08:46:37Z</time>
      </trkpt>
      <trkpt lat="47.67255" lon="6.20274">
        <ele>331.18</ele>
        <time>2018-08-29T08:46:39Z</time>
      </trkpt>
      <trkpt lat="47.67261" lon="6.20271">
        <ele>331.1</ele>
        <time>2018-08-29T08:46:41Z</time>
      </trkpt>
      <trkpt lat="47.67265" lon="6.20268">
        <ele>331.02</ele>
        <time>2018-08-29T08:46:43Z</time>
      </trkpt>
      <trkpt lat="47.67271" lon="6.20264">
        <ele>330.94</ele>
        <time>2018-08-29T08:46:45Z</time>
      </trkpt>
      <trkpt lat="47.67276" lon="6.2026">
        <ele>330.86</ele>
        <time>2018-08-29T08:46:47Z</time>
      </trkpt>
      <trkpt lat="47.67282" lon="6.20255">
        <ele>330.78</ele>
        <time>2018-08-29T08:46:49Z</time>
      </trkpt>
      <trkpt lat="47.67288" lon="6.20249">
        <ele>330.7</ele>
        <time>2018-08-29T08:46:51Z</time>
      </trkpt>
      <trkpt lat="47.67293" lon="6.20244">
        <ele>330.61</ele>
        <time>2018-08-29T08:46:53Z</time>
      </trkpt>
      <trkpt lat="47.67298" lon="6.20239">
        <ele>330.53</ele>
        <time>2018-08-29T08:46:55Z</time>
      </trkpt>
      <trkpt lat="47.67303" lon="6.20233">
        <ele>330.45</ele>
        <time>2018-08-29T08:46:57Z</time>
      </trkpt>
      <trkpt lat="47.67308" lon="6.20228">
        <ele>330.37</ele>
        <time>2018-08-29T08:46:59Z</time>
      </trkpt>
      <trkpt lat="47.67313" lon="6.20223">
        <ele>330.29</ele>
        <time>2018-08-29T08:47:01Z</time>
      </trkpt>
      <trkpt lat="47.67317" lon="6.20218">
        <ele>330.21</ele>
        <time>2018-08-29T08:47:03Z</time>
      </trkpt>
      <trkpt lat="47.67322" lon="6.20214">
        <ele>330.13</ele>
        <time>2018-08-29T08:47:05Z</time>
      </trkpt>
      <trkpt lat="47.67326" lon="6.2021">
        <ele>330.05</ele>
        <time>2018-08-29T08:47:07Z</time>
      </trkpt>
      <trkpt lat="47.6733" lon="6.20206">
        <ele>329.98</ele>
        <time>2018-08-29T08:47:09Z</time>
      </trkpt>
      <trkpt lat="47.67335" lon="6.20203">
        <ele>329.9</ele>
        <time>2018-08-29T08:47:11Z</time>
      </trkpt>
      <trkpt lat="47.67339" lon="6.20201">
        <ele>329.83</ele>
        <time>2018-08-29T08:47:13Z</time>
      </trkpt>
      <trkpt lat="47.67344" lon="6.20198">
        <ele>329.76</ele>
        <time>2018-08-29T08:47:15Z</time>
      </trkpt>
      <trkpt lat="47.6735" lon="6.20195">
        <ele>329.65</ele>
        <time>2018-08-29T08:47:18Z</time>
      </trkpt>
      <trkpt lat="47.67354" lon="6.20191">
        <ele>329.58</ele>
        <time>2018-08-29T08:47:20Z</time>
      </trkpt>
      <trkpt lat="47.67359" lon="6.20188">
        <ele>329.51</ele>
        <time>2018-08-29T08:47:22Z</time>
      </trkpt>
      <trkpt lat="47.67363" lon="6.20185">
        <ele>329.44</ele>
        <time>2018-08-29T08:47:24Z</time>
      </trkpt>
      <trkpt lat="47.67368" lon="6.20182">
        <ele>329.38</ele>
        <time>2018-08-29T08:47:26Z</time>
      </trkpt>
      <trkpt lat="47.67373" lon="6.20179">
        <ele>329.31</ele>
        <time>2018-08-29T08:47:28Z</time>
      </trkpt>
      <trkpt lat="47.67379" lon="6.20174">
        <ele>329.25</ele>
        <time>2018-08-29T08:47:30Z</time>
      </trkpt>
      <trkpt lat="47.67386" lon="6.2017">
        <ele>329.19</ele>
        <time>2018-08-29T08:47:32Z</time>
      </trkpt>
      <trkpt lat="47.6739" lon="6.20165">
        <ele>329.13</ele>
        <time>2018-08-29T08:47:34Z</time>
      </trkpt>
      <trkpt lat="47.67395" lon="6.20162">
        <ele>329.07</ele>
        <time>2018-08-29T08:47:36Z</time>
      </trkpt>
      <trkpt lat="47.674" lon="6.20159">
        <ele>329.01</ele>
        <time>2018-08-29T08:47:38Z</time>
      </trkpt>
      <trkpt lat="47.67406" lon="6.20157">
        <ele>328.96</ele>
        <time>2018-08-29T08:47:40Z</time>
      </trkpt>
      <trkpt lat="47.67411" lon="6.20156">
        <ele>328.91</ele>
        <time>2018-08-29T08:47:42Z</time>
      </trkpt>
      <trkpt lat="47.67416" lon="6.20153">
        <ele>328.86</ele>
        <time>2018-08-29T08:47:44Z</time>
      </trkpt>
      <trkpt lat="47.67423" lon="6.20149">
        <ele>328.8</ele>
        <time>2018-08-29T08:47:47Z</time>
      </trkpt>
      <trkpt lat="47.67427" lon="6.20147">
        <ele>328.76</ele>
        <time>2018-08-29T08:47:49Z</time>
      </trkpt>
      <trkpt lat="47.67434" lon="6.20146">
        <ele>328.73</ele>
        <time>2018-08-29T08:47:51Z</time>
      </trkpt>
      <trkpt lat="47.67439" lon="6.20146">
        <ele>328.7</ele>
        <time>2018-08-29T08:47:53Z</time>
      </trkpt>
      <trkpt lat="47.67444" lon="6.20146">
        <ele>328.67</ele>
        <time>2018-08-29T08:47:56Z</time>
      </trkpt>
      <trkpt lat="47.67451" lon="6.20148">
        <ele>328.64</ele>
        <time>2018-08-29T08:47:59Z</time>
      </trkpt>
      <trkpt lat="47.67455" lon="6.20149">
        <ele>328.63</ele>
        <time>2018-08-29T08:48:01Z</time>
      </trkpt>
      <trkpt lat="47.6746" lon="6.2015">
        <ele>328.62</ele>
        <time>2018-08-29T08:48:03Z</time>
      </trkpt>
      <trkpt lat="47.67465" lon="6.20153">
        <ele>328.62</ele>
        <time>2018-08-29T08:48:05Z</time>
      </trkpt>
      <trkpt lat="47.67469" lon="6.20156">
        <ele>328.62</ele>
        <time>2018-08-29T08:48:07Z</time>
      </trkpt>
      <trkpt lat="47.67474" lon="6.20157">
        <ele>328.63</ele>
        <time>2018-08-29T08:48:09Z</time>
      </trkpt>
      <trkpt lat="47.6748" lon="6.20157">
        <ele>328.65</ele>
        <time>2018-08-29T08:48:12Z</time>
      </trkpt>
      <trkpt lat="47.67486" lon="6.20158">
        <ele>328.66</ele>
        <time>2018-08-29T08:48:15Z</time>
      </trkpt>
      <trkpt lat="47.67491" lon="6.20157">
        <ele>328.69</ele>
        <time>2018-08-29T08:48:19Z</time>
      </trkpt>
      <trkpt lat="47.67496" lon="6.20158">
        <ele>328.71</ele>
        <time>2018-08-29T08:48:22Z</time>
      </trkpt>
      <trkpt lat="47.67501" lon="6.20159">
        <ele>328.73</ele>
        <time>2018-08-29T08:48:25Z</time>
      </trkpt>
      <trkpt lat="47.67507" lon="6.2016">
        <ele>328.75</ele>
        <time>2018-08-29T08:48:28Z</time>
      </trkpt>
      <trkpt lat="47.67513" lon="6.20161">
        <ele>328.76</ele>
        <time>2018-08-29T08:48:30Z</time>
      </trkpt>
      <trkpt lat="47.67519" lon="6.20161">
        <ele>328.77</ele>
        <time>2018-08-29T08:48:32Z</time>
      </trkpt>
      <trkpt lat="47.67527" lon="6.20161">
        <ele>328.78</ele>
        <time>2018-08-29T08:48:34Z</time>
      </trkpt>
      <trkpt lat="47.67536" lon="6.2016">
        <ele>328.8</ele>
        <time>2018-08-29T08:48:36Z</time>
      </trkpt>
      <trkpt lat="47.67543" lon="6.20161">
        <ele>328.81</ele>
        <time>2018-08-29T08:48:38Z</time>
      </trkpt>
      <trkpt lat="47.6755" lon="6.20162">
        <ele>328.83</ele>
        <time>2018-08-29T08:48:40Z</time>
      </trkpt>
      <trkpt lat="47.67556" lon="6.20163">
        <ele>328.85</ele>
        <time>2018-08-29T08:48:42Z</time>
      </trkpt>
      <trkpt lat="47.67561" lon="6.20164">
        <ele>328.86</ele>
        <time>2018-08-29T08:48:44Z</time>
      </trkpt>
      <trkpt lat="47.67567" lon="6.20165">
        <ele>328.88</ele>
        <time>2018-08-29T08:48:46Z</time>
      </trkpt>
      <trkpt lat="47.67572" lon="6.20166">
        <ele>328.9</ele>
        <time>2018-08-29T08:48:48Z</time>
      </trkpt>
      <trkpt lat="47.67578" lon="6.20166">
        <ele>328.93</ele>
        <time>2018-08-29T08:48:50Z</time>
      </trkpt>
      <trkpt lat="47.67584" lon="6.20167">
        <ele>328.96</ele>
        <time>2018-08-29T08:48:53Z</time>
      </trkpt>
      <trkpt lat="47.67589" lon="6.20168">
        <ele>328.98</ele>
        <time>2018-08-29T08:48:55Z</time>
      </trkpt>
      <trkpt lat="47.67594" lon="6.2017">
        <ele>329.01</ele>
        <time>2018-08-29T08:48:58Z</time>
      </trkpt>
      <trkpt lat="47.67599" lon="6.20173">
        <ele>329.04</ele>
        <time>2018-08-29T08:49:01Z</time>
      </trkpt>
      <trkpt lat="47.67605" lon="6.20176">
        <ele>329.08</ele>
        <time>2018-08-29T08:49:04Z</time>
      </trkpt>
      <trkpt lat="47.67611" lon="6.20179">
        <ele>329.11</ele>
        <time>2018-08-29T08:49:07Z</time>
      </trkpt>
      <trkpt lat="47.67616" lon="6.20183">
        <ele>329.14</ele>
        <time>2018-08-29T08:49:09Z</time>
      </trkpt>
      <trkpt lat="47.67622" lon="6.20187">
        <ele>329.18</ele>
        <time>2018-08-29T08:49:12Z</time>
      </trkpt>
      <trkpt lat="47.67627" lon="6.20191">
        <ele>329.21</ele>
        <time>2018-08-29T08:49:14Z</time>
      </trkpt>
      <trkpt lat="47.67631" lon="6.20194">
        <ele>329.23</ele>
        <time>2018-08-29T08:49:16Z</time>
      </trkpt>
      <trkpt lat="47.67636" lon="6.20197">
        <ele>329.26</ele>
        <time>2018-08-29T08:49:18Z</time>
      </trkpt>
      <trkpt lat="47.67641" lon="6.20201">
        <ele>329.3</ele>
        <time>2018-08-29T08:49:21Z</time>
      </trkpt>
      <trkpt lat="47.67646" lon="6.20206">
        <ele>329.34</ele>
        <time>2018-08-29T08:49:24Z</time>
      </trkpt>
      <trkpt lat="47.67651" lon="6.20209">
        <ele>329.38</ele>
        <time>2018-08-29T08:49:27Z</time>
      </trkpt>
      <trkpt lat="47.67655" lon="6.20212">
        <ele>329.42</ele>
        <time>2018-08-29T08:49:30Z</time>
      </trkpt>
      <trkpt lat="47.6766" lon="6.20214">
        <ele>329.45</ele>
        <time>2018-08-29T08:49:33Z</time>
      </trkpt>
      <trkpt lat="47.67665" lon="6.20216">
        <ele>329.49</ele>
        <time>2018-08-29T08:49:37Z</time>
      </trkpt>
      <trkpt lat="47.6767" lon="6.20219">
        <ele>329.52</ele>
        <time>2018-08-29T08:49:40Z</time>
      </trkpt>
      <trkpt lat="47.67675" lon="6.20221">
        <ele>329.55</ele>
        <time>2018-08-29T08:49:43Z</time>
      </trkpt>
      <trkpt lat="47.6768" lon="6.20225">
        <ele>329.57</ele>
        <time>2018-08-29T08:49:46Z</time>
      </trkpt>
      <trkpt lat="47.67685" lon="6.20228">
        <ele>329.61</ele>
        <time>2018-08-29T08:49:50Z</time>
      </trkpt>
      <trkpt lat="47.67689" lon="6.20232">
        <ele>329.63</ele>
        <time>2018-08-29T08:49:53Z</time>
      </trkpt>
      <trkpt lat="47.67693" lon="6.20236">
        <ele>329.65</ele>
        <time>2018-08-29T08:49:56Z</time>
      </trkpt>
      <trkpt lat="47.67697" lon="6.2024">
        <ele>329.68</ele>
        <time>2018-08-29T08:49:59Z</time>
      </trkpt>
      <trkpt lat="47.67702" lon="6.20243">
        <ele>329.7</ele>
        <time>2018-08-29T08:50:02Z</time>
      </trkpt>
      <trkpt lat="47.67707" lon="6.20244">
        <ele>329.71</ele>
        <time>2018-08-29T08:50:05Z</time>
      </trkpt>
      <trkpt lat="47.67712" lon="6.20246">
        <ele>329.73</ele>
        <time>2018-08-29T08:50:08Z</time>
      </trkpt>
      <trkpt lat="47.67718" lon="6.20246">
        <ele>329.74</ele>
        <time>2018-08-29T08:50:11Z</time>
      </trkpt>
      <trkpt lat="47.67724" lon="6.20246">
        <ele>329.74</ele>
        <time>2018-08-29T08:50:14Z</time>
      </trkpt>
      <trkpt lat="47.67728" lon="6.20245">
        <ele>329.75</ele>
        <time>2018-08-29T08:50:17Z</time>
      </trkpt>
      <trkpt lat="47.67734" lon="6.20245">
        <ele>329.76</ele>
        <time>2018-08-29T08:50:21Z</time>
      </trkpt>
      <trkpt lat="47.6774" lon="6.20243">
        <ele>329.77</ele>
        <time>2018-08-29T08:50:25Z</time>
      </trkpt>
      <trkpt lat="47.67745" lon="6.20241">
        <ele>329.78</ele>
        <time>2018-08-29T08:50:30Z</time>
      </trkpt>
      <trkpt lat="47.67749" lon="6.20241">
        <ele>329.79</ele>
        <time>2018-08-29T08:50:34Z</time>
      </trkpt>
      <trkpt lat="47.67755" lon="6.2024">
        <ele>329.8</ele>
        <time>2018-08-29T08:50:38Z</time>
      </trkpt>
      <trkpt lat="47.6776" lon="6.20239">
        <ele>329.81</ele>
        <time>2018-08-29T08:50:42Z</time>
      </trkpt>
      <trkpt lat="47.67764" lon="6.20239">
        <ele>329.83</ele>
        <time>2018-08-29T08:50:46Z</time>
      </trkpt>
      <trkpt lat="47.67769" lon="6.20237">
        <ele>329.84</ele>
        <time>2018-08-29T08:50:49Z</time>
      </trkpt>
      <trkpt lat="47.67775" lon="6.20234">
        <ele>329.86</ele>
        <time>2018-08-29T08:50:53Z</time>
      </trkpt>
      <trkpt lat="47.67779" lon="6.20232">
        <ele>329.88</ele>
        <time>2018-08-29T08:50:55Z</time>
      </trkpt>
      <trkpt lat="47.67785" lon="6.2023">
        <ele>329.9</ele>
        <time>2018-08-29T08:50:58Z</time>
      </trkpt>
      <trkpt lat="47.6779" lon="6.20229">
        <ele>329.91</ele>
        <time>2018-08-29T08:51:00Z</time>
      </trkpt>
      <trkpt lat="47.67795" lon="6.20227">
        <ele>329.94</ele>
        <time>2018-08-29T08:51:03Z</time>
      </trkpt>
      <trkpt lat="47.67799" lon="6.20224">
        <ele>329.98</ele>
        <time>2018-08-29T08:51:06Z</time>
      </trkpt>
      <trkpt lat="47.67803" lon="6.20219">
        <ele>330.01</ele>
        <time>2018-08-29T08:51:09Z</time>
      </trkpt>
      <trkpt lat="47.67807" lon="6.20213">
        <ele>330.05</ele>
        <time>2018-08-29T08:51:12Z</time>
      </trkpt>
      <trkpt lat="47.67811" lon="6.20208">
        <ele>330.08</ele>
        <time>2018-08-29T08:51:15Z</time>
      </trkpt>
      <trkpt lat="47.67815" lon="6.20202">
        <ele>330.12</ele>
        <time>2018-08-29T08:51:18Z</time>
      </trkpt>
      <trkpt lat="47.67818" lon="6.20196">
        <ele>330.15</ele>
        <time>2018-08-29T08:51:21Z</time>
      </trkpt>
      <trkpt lat="47.67823" lon="6.2019">
        <ele>330.18</ele>
        <time>2018-08-29T08:51:24Z</time>
      </trkpt>
      <trkpt lat="47.67827" lon="6.20187">
        <ele>330.21</ele>
        <time>2018-08-29T08:51:27Z</time>
      </trkpt>
      <trkpt lat="47.67832" lon="6.20186">
        <ele>330.24</ele>
        <time>2018-08-29T08:51:30Z</time>
      </trkpt>
      <trkpt lat="47.67838" lon="6.20186">
        <ele>330.28</ele>
        <time>2018-08-29T08:51:34Z</time>
      </trkpt>
      <trkpt lat="47.67842" lon="6.20187">
        <ele>330.31</ele>
        <time>2018-08-29T08:51:37Z</time>
      </trkpt>
      <trkpt lat="47.67847" lon="6.2019">
        <ele>330.35</ele>
        <time>2018-08-29T08:51:41Z</time>
      </trkpt>
      <trkpt lat="47.67851" lon="6.20194">
        <ele>330.37</ele>
        <time>2018-08-29T08:51:44Z</time>
      </trkpt>
      <trkpt lat="47.67855" lon="6.20198">
        <ele>330.4</ele>
        <time>2018-08-29T08:51:47Z</time>
      </trkpt>
      <trkpt lat="47.6786" lon="6.20202">
        <ele>330.42</ele>
        <time>2018-08-29T08:51:50Z</time>
      </trkpt>
      <trkpt lat="47.67864" lon="6.20205">
        <ele>330.45</ele>
        <time>2018-08-29T08:51:54Z</time>
      </trkpt>
      <trkpt lat="47.67869" lon="6.2021">
        <ele>330.48</ele>
        <time>2018-08-29T08:51:58Z</time>
      </trkpt>
      <trkpt lat="47.67874" lon="6.20214">
        <ele>330.5</ele>
        <time>2018-08-29T08:52:02Z</time>
      </trkpt>
      <trkpt lat="47.67879" lon="6.20218">
        <ele>330.53</ele>
        <time>2018-08-29T08:52:06Z</time>
      </trkpt>
      <trkpt lat="47.67883" lon="6.20222">
        <ele>330.55</ele>
        <time>2018-08-29T08:52:10Z</time>
      </trkpt>
      <trkpt lat="47.67888" lon="6.20226">
        <ele>330.57</ele>
        <time>2018-08-29T08:52:13Z</time>
      </trkpt>
      <trkpt lat="47.67892" lon="6.20231">
        <ele>330.59</ele>
        <time>2018-08-29T08:52:16Z</time>
      </trkpt>
      <trkpt lat="47.67898" lon="6.20237">
        <ele>330.61</ele>
        <time>2018-08-29T08:52:19Z</time>
      </trkpt>
      <trkpt lat="47.67903" lon="6.20242">
        <ele>330.65</ele>
        <time>2018-08-29T08:52:22Z</time>
      </trkpt>
      <trkpt lat="47.67908" lon="6.20247">
        <ele>330.69</ele>
        <time>2018-08-29T08:52:25Z</time>
      </trkpt>
      <trkpt lat="47.67912" lon="6.20252">
        <ele>330.74</ele>
        <time>2018-08-29T08:52:28Z</time>
      </trkpt>
      <trkpt lat="47.67917" lon="6.20256">
        <ele>330.81</ele>
        <time>2018-08-29T08:52:32Z</time>
      </trkpt>
      <trkpt lat="47.67921" lon="6.2026">
        <ele>330.87</ele>
        <time>2018-08-29T08:52:35Z</time>
      </trkpt>
      <trkpt lat="47.67925" lon="6.20263">
        <ele>330.96</ele>
        <time>2018-08-29T08:52:39Z</time>
      </trkpt>
      <trkpt lat="47.6793" lon="6.20267">
        <ele>331.06</ele>
        <time>2018-08-29T08:52:43Z</time>
      </trkpt>
      <trkpt lat="47.67935" lon="6.20271">
        <ele>331.17</ele>
        <time>2018-08-29T08:52:47Z</time>
      </trkpt>
      <trkpt lat="47.67939" lon="6.20274">
        <ele>331.28</ele>
        <time>2018-08-29T08:52:51Z</time>
      </trkpt>
      <trkpt lat="47.67945" lon="6.20278">
        <ele>331.4</ele>
        <time>2018-08-29T08:52:55Z</time>
      </trkpt>
      <trkpt lat="47.6795" lon="6.20281">
        <ele>331.52</ele>
        <time>2018-08-29T08:52:59Z</time>
      </trkpt>
      <trkpt lat="47.67955" lon="6.20285">
        <ele>331.61</ele>
        <time>2018-08-29T08:53:02Z</time>
      </trkpt>
      <trkpt lat="47.67959" lon="6.20288">
        <ele>331.68</ele>
        <time>2018-08-29T08:53:04Z</time>
      </trkpt>
      <trkpt lat="47.67965" lon="6.20291">
        <ele>331.78</ele>
        <time>2018-08-29T08:53:07Z</time>
      </trkpt>
      <trkpt lat="47.67969" lon="6.20293">
        <ele>331.85</ele>
        <time>2018-08-29T08:53:09Z</time>
      </trkpt>
      <trkpt lat="47.67974" lon="6.20295">
        <ele>331.92</ele>
        <time>2018-08-29T08:53:11Z</time>
      </trkpt>
      <trkpt lat="47.6798" lon="6.20298">
        <ele>332.02</ele>
        <time>2018-08-29T08:53:14Z</time>
      </trkpt>
      <trkpt lat="47.67986" lon="6.203">
        <ele>332.13</ele>
        <time>2018-08-29T08:53:17Z</time>
      </trkpt>
      <trkpt lat="47.67991" lon="6.20303">
        <ele>332.24</ele>
        <time>2018-08-29T08:53:20Z</time>
      </trkpt>
      <trkpt lat="47.67997" lon="6.20304">
        <ele>332.35</ele>
        <time>2018-08-29T08:53:23Z</time>
      </trkpt>
      <trkpt lat="47.68003" lon="6.20306">
        <ele>332.46</ele>
        <time>2018-08-29T08:53:26Z</time>
      </trkpt>
      <trkpt lat="47.68007" lon="6.20308">
        <ele>332.54</ele>
        <time>2018-08-29T08:53:28Z</time>
      </trkpt>
      <trkpt lat="47.68012" lon="6.2031">
        <ele>332.61</ele>
        <time>2018-08-29T08:53:30Z</time>
      </trkpt>
      <trkpt lat="47.68018" lon="6.20313">
        <ele>332.68</ele>
        <time>2018-08-29T08:53:32Z</time>
      </trkpt>
      <trkpt lat="47.68024" lon="6.20317">
        <ele>332.75</ele>
        <time>2018-08-29T08:53:34Z</time>
      </trkpt>
      <trkpt lat="47.6803" lon="6.20319">
        <ele>332.82</ele>
        <time>2018-08-29T08:53:36Z</time>
      </trkpt>
      <trkpt lat="47.68035" lon="6.20322">
        <ele>332.9</ele>
        <time>2018-08-29T08:53:38Z</time>
      </trkpt>
      <trkpt lat="47.68042" lon="6.20325">
        <ele>333.43</ele>
        <time>2018-08-29T08:53:40Z</time>
      </trkpt>
      <trkpt lat="47.68048" lon="6.20327">
        <ele>333.58</ele>
        <time>2018-08-29T08:53:42Z</time>
      </trkpt>
      <trkpt lat="47.68055" lon="6.2033">
        <ele>333.63</ele>
        <time>2018-08-29T08:53:44Z</time>
      </trkpt>
      <trkpt lat="47.68061" lon="6.20332">
        <ele>333.68</ele>
        <time>2018-08-29T08:53:46Z</time>
      </trkpt>
      <trkpt lat="47.68067" lon="6.20335">
        <ele>333.72</ele>
        <time>2018-08-29T08:53:48Z</time>
      </trkpt>
      <trkpt lat="47.68074" lon="6.20338">
        <ele>333.77</ele>
        <time>2018-08-29T08:53:50Z</time>
      </trkpt>
      <trkpt lat="47.6808" lon="6.2034">
        <ele>333.82</ele>
        <time>2018-08-29T08:53:52Z</time>
      </trkpt>
      <trkpt lat="47.68087" lon="6.20342">
        <ele>333.86</ele>
        <time>2018-08-29T08:53:54Z</time>
      </trkpt>
      <trkpt lat="47.68093" lon="6.20345">
        <ele>333.91</ele>
        <time>2018-08-29T08:53:56Z</time>
      </trkpt>
      <trkpt lat="47.68099" lon="6.20347">
        <ele>333.95</ele>
        <time>2018-08-29T08:53:58Z</time>
      </trkpt>
      <trkpt lat="47.68105" lon="6.20349">
        <ele>334</ele>
        <time>2018-08-29T08:54:00Z</time>
      </trkpt>
      <trkpt lat="47.6811" lon="6.20351">
        <ele>334.05</ele>
        <time>2018-08-29T08:54:02Z</time>
      </trkpt>
      <trkpt lat="47.68116" lon="6.20353">
        <ele>334.09</ele>
        <time>2018-08-29T08:54:04Z</time>
      </trkpt>
      <trkpt lat="47.68121" lon="6.20355">
        <ele>334.14</ele>
        <time>2018-08-29T08:54:06Z</time>
      </trkpt>
      <trkpt lat="47.68127" lon="6.20357">
        <ele>334.18</ele>
        <time>2018-08-29T08:54:08Z</time>
      </trkpt>
      <trkpt lat="47.68133" lon="6.20359">
        <ele>334.23</ele>
        <time>2018-08-29T08:54:10Z</time>
      </trkpt>
      <trkpt lat="47.68139" lon="6.20361">
        <ele>334.28</ele>
        <time>2018-08-29T08:54:12Z</time>
      </trkpt>
      <trkpt lat="47.68145" lon="6.20363">
        <ele>334.32</ele>
        <time>2018-08-29T08:54:14Z</time>
      </trkpt>
      <trkpt lat="47.68151" lon="6.20365">
        <ele>334.37</ele>
        <time>2018-08-29T08:54:16Z</time>
      </trkpt>
      <trkpt lat="47.68158" lon="6.20367">
        <ele>334.55</ele>
        <time>2018-08-29T08:54:18Z</time>
      </trkpt>
      <trkpt lat="47.68165" lon="6.2037">
        <ele>334.87</ele>
        <time>2018-08-29T08:54:20Z</time>
      </trkpt>
      <trkpt lat="47.68172" lon="6.20373">
        <ele>335.1</ele>
        <time>2018-08-29T08:54:22Z</time>
      </trkpt>
      <trkpt lat="47.6818" lon="6.20377">
        <ele>335.25</ele>
        <time>2018-08-29T08:54:24Z</time>
      </trkpt>
      <trkpt lat="47.68192" lon="6.20382">
        <ele>335.3</ele>
        <time>2018-08-29T08:54:25Z</time>
      </trkpt>
      <trkpt lat="47.68196" lon="6.20384">
        <ele>335.34</ele>
        <time>2018-08-29T08:54:26Z</time>
      </trkpt>
      <trkpt lat="47.68205" lon="6.2039">
        <ele>335.41</ele>
        <time>2018-08-29T08:54:28Z</time>
      </trkpt>
      <trkpt lat="47.68211" lon="6.20396">
        <ele>335.46</ele>
        <time>2018-08-29T08:54:30Z</time>
      </trkpt>
      <trkpt lat="47.68218" lon="6.20403">
        <ele>335.48</ele>
        <time>2018-08-29T08:54:32Z</time>
      </trkpt>
      <trkpt lat="47.68221" lon="6.20407">
        <ele>335.49</ele>
        <time>2018-08-29T08:54:34Z</time>
      </trkpt>
      <trkpt lat="47.68226" lon="6.20412">
        <ele>335.5</ele>
        <time>2018-08-29T08:54:39Z</time>
      </trkpt>
      <trkpt lat="47.68231" lon="6.20416">
        <ele>335.51</ele>
        <time>2018-08-29T08:54:42Z</time>
      </trkpt>
      <trkpt lat="47.68235" lon="6.2042">
        <ele>335.51</ele>
        <time>2018-08-29T08:54:44Z</time>
      </trkpt>
      <trkpt lat="47.68238" lon="6.20423">
        <ele>335.52</ele>
        <time>2018-08-29T08:54:46Z</time>
      </trkpt>
      <trkpt lat="47.68243" lon="6.20428">
        <ele>335.53</ele>
        <time>2018-08-29T08:54:48Z</time>
      </trkpt>
      <trkpt lat="47.68248" lon="6.20432">
        <ele>335.53</ele>
        <time>2018-08-29T08:54:50Z</time>
      </trkpt>
      <trkpt lat="47.68253" lon="6.20436">
        <ele>335.54</ele>
        <time>2018-08-29T08:54:52Z</time>
      </trkpt>
      <trkpt lat="47.68258" lon="6.20439">
        <ele>335.54</ele>
        <time>2018-08-29T08:54:54Z</time>
      </trkpt>
      <trkpt lat="47.68264" lon="6.20444">
        <ele>335.55</ele>
        <time>2018-08-29T08:54:56Z</time>
      </trkpt>
      <trkpt lat="47.68271" lon="6.20448">
        <ele>335.56</ele>
        <time>2018-08-29T08:54:58Z</time>
      </trkpt>
      <trkpt lat="47.68277" lon="6.20451">
        <ele>335.57</ele>
        <time>2018-08-29T08:55:00Z</time>
      </trkpt>
      <trkpt lat="47.68284" lon="6.20454">
        <ele>335.63</ele>
        <time>2018-08-29T08:55:02Z</time>
      </trkpt>
      <trkpt lat="47.68292" lon="6.20457">
        <ele>335.66</ele>
        <time>2018-08-29T08:55:04Z</time>
      </trkpt>
      <trkpt lat="47.683" lon="6.20462">
        <ele>335.71</ele>
        <time>2018-08-29T08:55:06Z</time>
      </trkpt>
      <trkpt lat="47.68304" lon="6.20465">
        <ele>335.74</ele>
        <time>2018-08-29T08:55:07Z</time>
      </trkpt>
      <trkpt lat="47.68313" lon="6.20468">
        <ele>335.79</ele>
        <time>2018-08-29T08:55:09Z</time>
      </trkpt>
      <trkpt lat="47.68318" lon="6.20471">
        <ele>335.8</ele>
        <time>2018-08-29T08:55:10Z</time>
      </trkpt>
      <trkpt lat="47.68323" lon="6.20473">
        <ele>335.83</ele>
        <time>2018-08-29T08:55:11Z</time>
      </trkpt>
      <trkpt lat="47.68328" lon="6.20475">
        <ele>335.86</ele>
        <time>2018-08-29T08:55:12Z</time>
      </trkpt>
      <trkpt lat="47.68341" lon="6.2048">
        <ele>335.89</ele>
        <time>2018-08-29T08:55:13Z</time>
      </trkpt>
      <trkpt lat="47.68346" lon="6.20482">
        <ele>335.91</ele>
        <time>2018-08-29T08:55:14Z</time>
      </trkpt>
      <trkpt lat="47.68351" lon="6.20484">
        <ele>335.93</ele>
        <time>2018-08-29T08:55:15Z</time>
      </trkpt>
      <trkpt lat="47.68356" lon="6.20487">
        <ele>335.95</ele>
        <time>2018-08-29T08:55:16Z</time>
      </trkpt>
      <trkpt lat="47.68362" lon="6.20489">
        <ele>335.97</ele>
        <time>2018-08-29T08:55:17Z</time>
      </trkpt>
      <trkpt lat="47.68366" lon="6.20492">
        <ele>335.99</ele>
        <time>2018-08-29T08:55:18Z</time>
      </trkpt>
      <trkpt lat="47.68374" lon="6.20498">
        <ele>336.01</ele>
        <time>2018-08-29T08:55:20Z</time>
      </trkpt>
      <trkpt lat="47.68379" lon="6.205">
        <ele>336.03</ele>
        <time>2018-08-29T08:55:21Z</time>
      </trkpt>
      <trkpt lat="47.68384" lon="6.20502">
        <ele>336.03</ele>
        <time>2018-08-29T08:55:22Z</time>
      </trkpt>
      <trkpt lat="47.68389" lon="6.20507">
        <ele>336.03</ele>
        <time>2018-08-29T08:55:24Z</time>
      </trkpt>
      <trkpt lat="47.68397" lon="6.20514">
        <ele>336.07</ele>
        <time>2018-08-29T08:55:26Z</time>
      </trkpt>
      <trkpt lat="47.68402" lon="6.20518">
        <ele>336.07</ele>
        <time>2018-08-29T08:55:27Z</time>
      </trkpt>
      <trkpt lat="47.68409" lon="6.20525">
        <ele>336.08</ele>
        <time>2018-08-29T08:55:29Z</time>
      </trkpt>
      <trkpt lat="47.68413" lon="6.20529">
        <ele>336.08</ele>
        <time>2018-08-29T08:55:30Z</time>
      </trkpt>
      <trkpt lat="47.6842" lon="6.20534">
        <ele>336.09</ele>
        <time>2018-08-29T08:55:32Z</time>
      </trkpt>
      <trkpt lat="47.68426" lon="6.20539">
        <ele>336.1</ele>
        <time>2018-08-29T08:55:35Z</time>
      </trkpt>
      <trkpt lat="47.68431" lon="6.20543">
        <ele>336.11</ele>
        <time>2018-08-29T08:55:37Z</time>
      </trkpt>
      <trkpt lat="47.68435" lon="6.20547">
        <ele>336.12</ele>
        <time>2018-08-29T08:55:39Z</time>
      </trkpt>
      <trkpt lat="47.6844" lon="6.20551">
        <ele>336.13</ele>
        <time>2018-08-29T08:55:41Z</time>
      </trkpt>
      <trkpt lat="47.68444" lon="6.20555">
        <ele>336.14</ele>
        <time>2018-08-29T08:55:43Z</time>
      </trkpt>
      <trkpt lat="47.68449" lon="6.20559">
        <ele>336.15</ele>
        <time>2018-08-29T08:55:45Z</time>
      </trkpt>
      <trkpt lat="47.68454" lon="6.20561">
        <ele>336.16</ele>
        <time>2018-08-29T08:55:47Z</time>
      </trkpt>
      <trkpt lat="47.68459" lon="6.20564">
        <ele>336.16</ele>
        <time>2018-08-29T08:55:49Z</time>
      </trkpt>
      <trkpt lat="47.68464" lon="6.20568">
        <ele>336.18</ele>
        <time>2018-08-29T08:55:51Z</time>
      </trkpt>
      <trkpt lat="47.68468" lon="6.20572">
        <ele>336.19</ele>
        <time>2018-08-29T08:55:53Z</time>
      </trkpt>
      <trkpt lat="47.68473" lon="6.20576">
        <ele>336.2</ele>
        <time>2018-08-29T08:55:55Z</time>
      </trkpt>
      <trkpt lat="47.68478" lon="6.20582">
        <ele>336.21</ele>
        <time>2018-08-29T08:55:58Z</time>
      </trkpt>
      <trkpt lat="47.68482" lon="6.20588">
        <ele>336.23</ele>
        <time>2018-08-29T08:56:01Z</time>
      </trkpt>
      <trkpt lat="47.68485" lon="6.20595">
        <ele>336.25</ele>
        <time>2018-08-29T08:56:04Z</time>
      </trkpt>
      <trkpt lat="47.68488" lon="6.20601">
        <ele>336.27</ele>
        <time>2018-08-29T08:56:07Z</time>
      </trkpt>
      <trkpt lat="47.68492" lon="6.20608">
        <ele>336.29</ele>
        <time>2018-08-29T08:56:10Z</time>
      </trkpt>
      <trkpt lat="47.68495" lon="6.20614">
        <ele>336.31</ele>
        <time>2018-08-29T08:56:13Z</time>
      </trkpt>
      <trkpt lat="47.68499" lon="6.20621">
        <ele>336.33</ele>
        <time>2018-08-29T08:56:16Z</time>
      </trkpt>
      <trkpt lat="47.68503" lon="6.20628">
        <ele>336.37</ele>
        <time>2018-08-29T08:56:20Z</time>
      </trkpt>
      <trkpt lat="47.68506" lon="6.20633">
        <ele>336.4</ele>
        <time>2018-08-29T08:56:23Z</time>
      </trkpt>
      <trkpt lat="47.68511" lon="6.20639">
        <ele>336.43</ele>
        <time>2018-08-29T08:56:26Z</time>
      </trkpt>
      <trkpt lat="47.68516" lon="6.20645">
        <ele>336.46</ele>
        <time>2018-08-29T08:56:29Z</time>
      </trkpt>
      <trkpt lat="47.68519" lon="6.2065">
        <ele>336.48</ele>
        <time>2018-08-29T08:56:31Z</time>
      </trkpt>
      <trkpt lat="47.68523" lon="6.20656">
        <ele>336.5</ele>
        <time>2018-08-29T08:56:33Z</time>
      </trkpt>
      <trkpt lat="47.68526" lon="6.20661">
        <ele>336.52</ele>
        <time>2018-08-29T08:56:35Z</time>
      </trkpt>
      <trkpt lat="47.68529" lon="6.20667">
        <ele>336.56</ele>
        <time>2018-08-29T08:56:38Z</time>
      </trkpt>
      <trkpt lat="47.68532" lon="6.20673">
        <ele>336.6</ele>
        <time>2018-08-29T08:56:41Z</time>
      </trkpt>
      <trkpt lat="47.68535" lon="6.20678">
        <ele>336.63</ele>
        <time>2018-08-29T08:56:44Z</time>
      </trkpt>
      <trkpt lat="47.68539" lon="6.20684">
        <ele>336.67</ele>
        <time>2018-08-29T08:56:47Z</time>
      </trkpt>
      <trkpt lat="47.68543" lon="6.2069">
        <ele>336.7</ele>
        <time>2018-08-29T08:56:50Z</time>
      </trkpt>
      <trkpt lat="47.68546" lon="6.20697">
        <ele>336.73</ele>
        <time>2018-08-29T08:56:52Z</time>
      </trkpt>
      <trkpt lat="47.68549" lon="6.20705">
        <ele>336.77</ele>
        <time>2018-08-29T08:56:55Z</time>
      </trkpt>
      <trkpt lat="47.68554" lon="6.2071">
        <ele>336.81</ele>
        <time>2018-08-29T08:56:58Z</time>
      </trkpt>
      <trkpt lat="47.68558" lon="6.20716">
        <ele>336.85</ele>
        <time>2018-08-29T08:57:00Z</time>
      </trkpt>
      <trkpt lat="47.68562" lon="6.20721">
        <ele>336.9</ele>
        <time>2018-08-29T08:57:02Z</time>
      </trkpt>
      <trkpt lat="47.68567" lon="6.20728">
        <ele>336.95</ele>
        <time>2018-08-29T08:57:04Z</time>
      </trkpt>
      <trkpt lat="47.68571" lon="6.20735">
        <ele>337.01</ele>
        <time>2018-08-29T08:57:06Z</time>
      </trkpt>
      <trkpt lat="47.68574" lon="6.2074">
        <ele>337.07</ele>
        <time>2018-08-29T08:57:08Z</time>
      </trkpt>
      <trkpt lat="47.68577" lon="6.20746">
        <ele>337.13</ele>
        <time>2018-08-29T08:57:10Z</time>
      </trkpt>
      <trkpt lat="47.68581" lon="6.20753">
        <ele>337.2</ele>
        <time>2018-08-29T08:57:12Z</time>
      </trkpt>
      <trkpt lat="47.68584" lon="6.2076">
        <ele>337.28</ele>
        <time>2018-08-29T08:57:14Z</time>
      </trkpt>
      <trkpt lat="47.68589" lon="6.20767">
        <ele>337.37</ele>
        <time>2018-08-29T08:57:16Z</time>
      </trkpt>
      <trkpt lat="47.68593" lon="6.20774">
        <ele>337.46</ele>
        <time>2018-08-29T08:57:18Z</time>
      </trkpt>
      <trkpt lat="47.68597" lon="6.2078">
        <ele>337.56</ele>
        <time>2018-08-29T08:57:20Z</time>
      </trkpt>
      <trkpt lat="47.68602" lon="6.20787">
        <ele>337.66</ele>
        <time>2018-08-29T08:57:22Z</time>
      </trkpt>
      <trkpt lat="47.68607" lon="6.20794">
        <ele>337.76</ele>
        <time>2018-08-29T08:57:24Z</time>
      </trkpt>
      <trkpt lat="47.68611" lon="6.20799">
        <ele>337.86</ele>
        <time>2018-08-29T08:57:26Z</time>
      </trkpt>
      <trkpt lat="47.68614" lon="6.20805">
        <ele>337.97</ele>
        <time>2018-08-29T08:57:28Z</time>
      </trkpt>
      <trkpt lat="47.68617" lon="6.20811">
        <ele>338.08</ele>
        <time>2018-08-29T08:57:30Z</time>
      </trkpt>
      <trkpt lat="47.68621" lon="6.20817">
        <ele>338.24</ele>
        <time>2018-08-29T08:57:33Z</time>
      </trkpt>
      <trkpt lat="47.68624" lon="6.20823">
        <ele>338.41</ele>
        <time>2018-08-29T08:57:36Z</time>
      </trkpt>
      <trkpt lat="47.68627" lon="6.2083">
        <ele>338.58</ele>
        <time>2018-08-29T08:57:39Z</time>
      </trkpt>
      <trkpt lat="47.68631" lon="6.20836">
        <ele>338.75</ele>
        <time>2018-08-29T08:57:42Z</time>
      </trkpt>
      <trkpt lat="47.68636" lon="6.20843">
        <ele>338.92</ele>
        <time>2018-08-29T08:57:45Z</time>
      </trkpt>
      <trkpt lat="47.6864" lon="6.20849">
        <ele>339.09</ele>
        <time>2018-08-29T08:57:48Z</time>
      </trkpt>
      <trkpt lat="47.68644" lon="6.20855">
        <ele>339.25</ele>
        <time>2018-08-29T08:57:51Z</time>
      </trkpt>
      <trkpt lat="47.68649" lon="6.20861">
        <ele>339.41</ele>
        <time>2018-08-29T08:57:54Z</time>
      </trkpt>
      <trkpt lat="47.68652" lon="6.20865">
        <ele>339.51</ele>
        <time>2018-08-29T08:57:56Z</time>
      </trkpt>
      <trkpt lat="47.68656" lon="6.20871">
        <ele>339.61</ele>
        <time>2018-08-29T08:57:58Z</time>
      </trkpt>
      <trkpt lat="47.68661" lon="6.20876">
        <ele>339.71</ele>
        <time>2018-08-29T08:58:00Z</time>
      </trkpt>
      <trkpt lat="47.68667" lon="6.20881">
        <ele>339.8</ele>
        <time>2018-08-29T08:58:02Z</time>
      </trkpt>
      <trkpt lat="47.68672" lon="6.20885">
        <ele>339.9</ele>
        <time>2018-08-29T08:58:04Z</time>
      </trkpt>
      <trkpt lat="47.68677" lon="6.2089">
        <ele>340</ele>
        <time>2018-08-29T08:58:06Z</time>
      </trkpt>
      <trkpt lat="47.68682" lon="6.20894">
        <ele>340.1</ele>
        <time>2018-08-29T08:58:08Z</time>
      </trkpt>
      <trkpt lat="47.6869" lon="6.20896">
        <ele>340.54</ele>
        <time>2018-08-29T08:58:10Z</time>
      </trkpt>
      <trkpt lat="47.68695" lon="6.20898">
        <ele>340.68</ele>
        <time>2018-08-29T08:58:11Z</time>
      </trkpt>
      <trkpt lat="47.68701" lon="6.20899">
        <ele>341.03</ele>
        <time>2018-08-29T08:58:12Z</time>
      </trkpt>
      <trkpt lat="47.68707" lon="6.209">
        <ele>341.37</ele>
        <time>2018-08-29T08:58:13Z</time>
      </trkpt>
      <trkpt lat="47.68712" lon="6.20902">
        <ele>341.49</ele>
        <time>2018-08-29T08:58:14Z</time>
      </trkpt>
      <trkpt lat="47.6872" lon="6.20907">
        <ele>341.58</ele>
        <time>2018-08-29T08:58:16Z</time>
      </trkpt>
      <trkpt lat="47.68727" lon="6.2091">
        <ele>341.64</ele>
        <time>2018-08-29T08:58:18Z</time>
      </trkpt>
      <trkpt lat="47.68737" lon="6.20911">
        <ele>341.84</ele>
        <time>2018-08-29T08:58:20Z</time>
      </trkpt>
      <trkpt lat="47.68743" lon="6.20911">
        <ele>342.04</ele>
        <time>2018-08-29T08:58:21Z</time>
      </trkpt>
      <trkpt lat="47.6875" lon="6.20912">
        <ele>342.1</ele>
        <time>2018-08-29T08:58:22Z</time>
      </trkpt>
      <trkpt lat="47.68756" lon="6.20913">
        <ele>342.14</ele>
        <time>2018-08-29T08:58:23Z</time>
      </trkpt>
      <trkpt lat="47.68761" lon="6.20915">
        <ele>342.16</ele>
        <time>2018-08-29T08:58:24Z</time>
      </trkpt>
      <trkpt lat="47.68767" lon="6.20916">
        <ele>342.17</ele>
        <time>2018-08-29T08:58:25Z</time>
      </trkpt>
      <trkpt lat="47.68771" lon="6.20918">
        <ele>342.19</ele>
        <time>2018-08-29T08:58:26Z</time>
      </trkpt>
      <trkpt lat="47.68779" lon="6.20922">
        <ele>342.23</ele>
        <time>2018-08-29T08:58:28Z</time>
      </trkpt>
      <trkpt lat="47.68787" lon="6.20924">
        <ele>342.26</ele>
        <time>2018-08-29T08:58:30Z</time>
      </trkpt>
      <trkpt lat="47.68794" lon="6.20926">
        <ele>342.3</ele>
        <time>2018-08-29T08:58:32Z</time>
      </trkpt>
      <trkpt lat="47.68799" lon="6.20926">
        <ele>342.34</ele>
        <time>2018-08-29T08:58:34Z</time>
      </trkpt>
      <trkpt lat="47.68804" lon="6.20925">
        <ele>342.38</ele>
        <time>2018-08-29T08:58:36Z</time>
      </trkpt>
      <trkpt lat="47.68809" lon="6.20922">
        <ele>342.42</ele>
        <time>2018-08-29T08:58:38Z</time>
      </trkpt>
      <trkpt lat="47.68813" lon="6.20918">
        <ele>342.48</ele>
        <time>2018-08-29T08:58:41Z</time>
      </trkpt>
      <trkpt lat="47.68817" lon="6.20913">
        <ele>342.56</ele>
        <time>2018-08-29T08:58:45Z</time>
      </trkpt>
      <trkpt lat="47.68819" lon="6.20906">
        <ele>342.64</ele>
        <time>2018-08-29T08:58:50Z</time>
      </trkpt>
      <trkpt lat="47.68822" lon="6.209">
        <ele>342.69</ele>
        <time>2018-08-29T08:58:53Z</time>
      </trkpt>
      <trkpt lat="47.68825" lon="6.20895">
        <ele>342.74</ele>
        <time>2018-08-29T08:58:56Z</time>
      </trkpt>
      <trkpt lat="47.68828" lon="6.20888">
        <ele>342.82</ele>
        <time>2018-08-29T08:59:00Z</time>
      </trkpt>
      <trkpt lat="47.6883" lon="6.2088">
        <ele>342.86</ele>
        <time>2018-08-29T08:59:03Z</time>
      </trkpt>
      <trkpt lat="47.68832" lon="6.20872">
        <ele>342.9</ele>
        <time>2018-08-29T08:59:06Z</time>
      </trkpt>
      <trkpt lat="47.68834" lon="6.20863">
        <ele>342.95</ele>
        <time>2018-08-29T08:59:09Z</time>
      </trkpt>
      <trkpt lat="47.68836" lon="6.20854">
        <ele>343</ele>
        <time>2018-08-29T08:59:13Z</time>
      </trkpt>
      <trkpt lat="47.68838" lon="6.20847">
        <ele>343.04</ele>
        <time>2018-08-29T08:59:17Z</time>
      </trkpt>
      <trkpt lat="47.68841" lon="6.2084">
        <ele>343.08</ele>
        <time>2018-08-29T08:59:21Z</time>
      </trkpt>
      <trkpt lat="47.68842" lon="6.20832">
        <ele>343.11</ele>
        <time>2018-08-29T08:59:24Z</time>
      </trkpt>
      <trkpt lat="47.68843" lon="6.20824">
        <ele>343.14</ele>
        <time>2018-08-29T08:59:27Z</time>
      </trkpt>
      <trkpt lat="47.68845" lon="6.20816">
        <ele>343.17</ele>
        <time>2018-08-29T08:59:30Z</time>
      </trkpt>
      <trkpt lat="47.68846" lon="6.20808">
        <ele>343.19</ele>
        <time>2018-08-29T08:59:33Z</time>
      </trkpt>
      <trkpt lat="47.68845" lon="6.20798">
        <ele>343.22</ele>
        <time>2018-08-29T08:59:36Z</time>
      </trkpt>
      <trkpt lat="47.68841" lon="6.2079">
        <ele>343.24</ele>
        <time>2018-08-29T08:59:39Z</time>
      </trkpt>
      <trkpt lat="47.68837" lon="6.20784">
        <ele>343.26</ele>
        <time>2018-08-29T08:59:41Z</time>
      </trkpt>
      <trkpt lat="47.68834" lon="6.20779">
        <ele>343.27</ele>
        <time>2018-08-29T08:59:43Z</time>
      </trkpt>
      <trkpt lat="47.68829" lon="6.20774">
        <ele>343.29</ele>
        <time>2018-08-29T08:59:46Z</time>
      </trkpt>
      <trkpt lat="47.68825" lon="6.20767">
        <ele>343.31</ele>
        <time>2018-08-29T08:59:49Z</time>
      </trkpt>
      <trkpt lat="47.68823" lon="6.2076">
        <ele>343.34</ele>
        <time>2018-08-29T08:59:52Z</time>
      </trkpt>
      <trkpt lat="47.68821" lon="6.20752">
        <ele>343.37</ele>
        <time>2018-08-29T08:59:55Z</time>
      </trkpt>
      <trkpt lat="47.68818" lon="6.20745">
        <ele>343.4</ele>
        <time>2018-08-29T08:59:58Z</time>
      </trkpt>
      <trkpt lat="47.68814" lon="6.20739">
        <ele>343.43</ele>
        <time>2018-08-29T09:00:01Z</time>
      </trkpt>
      <trkpt lat="47.68811" lon="6.20732">
        <ele>343.47</ele>
        <time>2018-08-29T09:00:05Z</time>
      </trkpt>
      <trkpt lat="47.68808" lon="6.20726">
        <ele>343.5</ele>
        <time>2018-08-29T09:00:08Z</time>
      </trkpt>
      <trkpt lat="47.68806" lon="6.20719">
        <ele>343.55</ele>
        <time>2018-08-29T09:00:13Z</time>
      </trkpt>
      <trkpt lat="47.68804" lon="6.20712">
        <ele>343.6</ele>
        <time>2018-08-29T09:00:18Z</time>
      </trkpt>
      <trkpt lat="47.68802" lon="6.20705">
        <ele>343.63</ele>
        <time>2018-08-29T09:00:21Z</time>
      </trkpt>
      <trkpt lat="47.688" lon="6.20697">
        <ele>343.67</ele>
        <time>2018-08-29T09:00:25Z</time>
      </trkpt>
      <trkpt lat="47.68797" lon="6.20689">
        <ele>343.7</ele>
        <time>2018-08-29T09:00:28Z</time>
      </trkpt>
      <trkpt lat="47.68794" lon="6.20683">
        <ele>343.72</ele>
        <time>2018-08-29T09:00:31Z</time>
      </trkpt>
      <trkpt lat="47.68792" lon="6.20676">
        <ele>343.74</ele>
        <time>2018-08-29T09:00:33Z</time>
      </trkpt>
      <trkpt lat="47.68791" lon="6.20669">
        <ele>343.77</ele>
        <time>2018-08-29T09:00:36Z</time>
      </trkpt>
      <trkpt lat="47.68791" lon="6.2066">
        <ele>343.81</ele>
        <time>2018-08-29T09:00:40Z</time>
      </trkpt>
      <trkpt lat="47.68791" lon="6.20652">
        <ele>343.83</ele>
        <time>2018-08-29T09:00:43Z</time>
      </trkpt>
      <trkpt lat="47.68791" lon="6.20641">
        <ele>343.85</ele>
        <time>2018-08-29T09:00:46Z</time>
      </trkpt>
      <trkpt lat="47.68791" lon="6.20632">
        <ele>343.86</ele>
        <time>2018-08-29T09:00:48Z</time>
      </trkpt>
      <trkpt lat="47.68789" lon="6.20622">
        <ele>343.87</ele>
        <time>2018-08-29T09:00:50Z</time>
      </trkpt>
      <trkpt lat="47.68787" lon="6.20611">
        <ele>343.88</ele>
        <time>2018-08-29T09:00:52Z</time>
      </trkpt>
      <trkpt lat="47.68783" lon="6.20599">
        <ele>343.9</ele>
        <time>2018-08-29T09:00:54Z</time>
      </trkpt>
      <trkpt lat="47.68781" lon="6.2059">
        <ele>343.91</ele>
        <time>2018-08-29T09:00:56Z</time>
      </trkpt>
      <trkpt lat="47.68778" lon="6.20584">
        <ele>343.95</ele>
        <time>2018-08-29T09:01:04Z</time>
      </trkpt>
      <trkpt lat="47.68776" lon="6.20578">
        <ele>343.97</ele>
        <time>2018-08-29T09:01:07Z</time>
      </trkpt>
      <trkpt lat="47.68773" lon="6.2057">
        <ele>343.98</ele>
        <time>2018-08-29T09:01:09Z</time>
      </trkpt>
      <trkpt lat="47.68769" lon="6.20564">
        <ele>344</ele>
        <time>2018-08-29T09:01:11Z</time>
      </trkpt>
      <trkpt lat="47.68764" lon="6.20556">
        <ele>344.01</ele>
        <time>2018-08-29T09:01:13Z</time>
      </trkpt>
      <trkpt lat="47.68759" lon="6.2055">
        <ele>344.02</ele>
        <time>2018-08-29T09:01:15Z</time>
      </trkpt>
      <trkpt lat="47.68756" lon="6.20546">
        <ele>344.03</ele>
        <time>2018-08-29T09:01:17Z</time>
      </trkpt>
      <trkpt lat="47.68751" lon="6.20541">
        <ele>344.04</ele>
        <time>2018-08-29T09:01:20Z</time>
      </trkpt>
      <trkpt lat="47.68748" lon="6.20535">
        <ele>344.04</ele>
        <time>2018-08-29T09:01:23Z</time>
      </trkpt>
      <trkpt lat="47.68745" lon="6.20526">
        <ele>344.05</ele>
        <time>2018-08-29T09:01:26Z</time>
      </trkpt>
      <trkpt lat="47.68743" lon="6.20519">
        <ele>344.06</ele>
        <time>2018-08-29T09:01:28Z</time>
      </trkpt>
      <trkpt lat="47.68741" lon="6.20513">
        <ele>344.06</ele>
        <time>2018-08-29T09:01:30Z</time>
      </trkpt>
      <trkpt lat="47.68738" lon="6.20505">
        <ele>344.07</ele>
        <time>2018-08-29T09:01:33Z</time>
      </trkpt>
      <trkpt lat="47.68735" lon="6.20496">
        <ele>344.08</ele>
        <time>2018-08-29T09:01:36Z</time>
      </trkpt>
      <trkpt lat="47.68732" lon="6.2049">
        <ele>344.08</ele>
        <time>2018-08-29T09:01:38Z</time>
      </trkpt>
      <trkpt lat="47.68729" lon="6.20482">
        <ele>344.09</ele>
        <time>2018-08-29T09:01:41Z</time>
      </trkpt>
      <trkpt lat="47.68724" lon="6.20474">
        <ele>344.09</ele>
        <time>2018-08-29T09:01:44Z</time>
      </trkpt>
      <trkpt lat="47.68721" lon="6.2047">
        <ele>344.09</ele>
        <time>2018-08-29T09:01:46Z</time>
      </trkpt>
      <trkpt lat="47.68717" lon="6.20464">
        <ele>344.09</ele>
        <time>2018-08-29T09:01:48Z</time>
      </trkpt>
      <trkpt lat="47.68711" lon="6.20457">
        <ele>344.08</ele>
        <time>2018-08-29T09:01:50Z</time>
      </trkpt>
      <trkpt lat="47.68707" lon="6.20451">
        <ele>344.07</ele>
        <time>2018-08-29T09:01:52Z</time>
      </trkpt>
      <trkpt lat="47.68701" lon="6.20445">
        <ele>344.06</ele>
        <time>2018-08-29T09:01:54Z</time>
      </trkpt>
      <trkpt lat="47.68695" lon="6.20436">
        <ele>344.05</ele>
        <time>2018-08-29T09:01:56Z</time>
      </trkpt>
      <trkpt lat="47.6869" lon="6.20429">
        <ele>344.03</ele>
        <time>2018-08-29T09:01:58Z</time>
      </trkpt>
      <trkpt lat="47.68687" lon="6.20421">
        <ele>344.01</ele>
        <time>2018-08-29T09:02:00Z</time>
      </trkpt>
      <trkpt lat="47.68683" lon="6.20411">
        <ele>343.99</ele>
        <time>2018-08-29T09:02:02Z</time>
      </trkpt>
      <trkpt lat="47.68681" lon="6.204">
        <ele>343.97</ele>
        <time>2018-08-29T09:02:04Z</time>
      </trkpt>
      <trkpt lat="47.68679" lon="6.20389">
        <ele>343.95</ele>
        <time>2018-08-29T09:02:06Z</time>
      </trkpt>
      <trkpt lat="47.68677" lon="6.2038">
        <ele>343.92</ele>
        <time>2018-08-29T09:02:08Z</time>
      </trkpt>
      <trkpt lat="47.68675" lon="6.20373">
        <ele>343.9</ele>
        <time>2018-08-29T09:02:10Z</time>
      </trkpt>
      <trkpt lat="47.68673" lon="6.20366">
        <ele>343.86</ele>
        <time>2018-08-29T09:02:13Z</time>
      </trkpt>
      <trkpt lat="47.68671" lon="6.2036">
        <ele>343.82</ele>
        <time>2018-08-29T09:02:16Z</time>
      </trkpt>
      <trkpt lat="47.68667" lon="6.2035">
        <ele>343.78</ele>
        <time>2018-08-29T09:02:19Z</time>
      </trkpt>
      <trkpt lat="47.68664" lon="6.20342">
        <ele>343.75</ele>
        <time>2018-08-29T09:02:21Z</time>
      </trkpt>
      <trkpt lat="47.68661" lon="6.20335">
        <ele>343.72</ele>
        <time>2018-08-29T09:02:23Z</time>
      </trkpt>
      <trkpt lat="47.68658" lon="6.20328">
        <ele>343.69</ele>
        <time>2018-08-29T09:02:25Z</time>
      </trkpt>
      <trkpt lat="47.68656" lon="6.2032">
        <ele>343.66</ele>
        <time>2018-08-29T09:02:27Z</time>
      </trkpt>
      <trkpt lat="47.68654" lon="6.20313">
        <ele>343.62</ele>
        <time>2018-08-29T09:02:29Z</time>
      </trkpt>
      <trkpt lat="47.68651" lon="6.20305">
        <ele>343.59</ele>
        <time>2018-08-29T09:02:31Z</time>
      </trkpt>
      <trkpt lat="47.6865" lon="6.20296">
        <ele>343.55</ele>
        <time>2018-08-29T09:02:33Z</time>
      </trkpt>
      <trkpt lat="47.68649" lon="6.20287">
        <ele>343.51</ele>
        <time>2018-08-29T09:02:35Z</time>
      </trkpt>
      <trkpt lat="47.6865" lon="6.20278">
        <ele>343.47</ele>
        <time>2018-08-29T09:02:37Z</time>
      </trkpt>
      <trkpt lat="47.6865" lon="6.20269">
        <ele>343.42</ele>
        <time>2018-08-29T09:02:39Z</time>
      </trkpt>
      <trkpt lat="47.6865" lon="6.20259">
        <ele>343.38</ele>
        <time>2018-08-29T09:02:41Z</time>
      </trkpt>
      <trkpt lat="47.68648" lon="6.20251">
        <ele>343.33</ele>
        <time>2018-08-29T09:02:43Z</time>
      </trkpt>
      <trkpt lat="47.68647" lon="6.20242">
        <ele>343.29</ele>
        <time>2018-08-29T09:02:45Z</time>
      </trkpt>
      <trkpt lat="47.68645" lon="6.20232">
        <ele>343.24</ele>
        <time>2018-08-29T09:02:47Z</time>
      </trkpt>
      <trkpt lat="47.68642" lon="6.20223">
        <ele>343.2</ele>
        <time>2018-08-29T09:02:49Z</time>
      </trkpt>
      <trkpt lat="47.68637" lon="6.20214">
        <ele>343.15</ele>
        <time>2018-08-29T09:02:51Z</time>
      </trkpt>
      <trkpt lat="47.68634" lon="6.20209">
        <ele>343.12</ele>
        <time>2018-08-29T09:02:52Z</time>
      </trkpt>
      <trkpt lat="47.68629" lon="6.20199">
        <ele>343.08</ele>
        <time>2018-08-29T09:02:54Z</time>
      </trkpt>
      <trkpt lat="47.68627" lon="6.20189">
        <ele>343.03</ele>
        <time>2018-08-29T09:02:56Z</time>
      </trkpt>
      <trkpt lat="47.68627" lon="6.20179">
        <ele>342.97</ele>
        <time>2018-08-29T09:02:58Z</time>
      </trkpt>
      <trkpt lat="47.68624" lon="6.20169">
        <ele>342.74</ele>
        <time>2018-08-29T09:03:00Z</time>
      </trkpt>
      <trkpt lat="47.6862" lon="6.20159">
        <ele>342.62</ele>
        <time>2018-08-29T09:03:02Z</time>
      </trkpt>
      <trkpt lat="47.68615" lon="6.20147">
        <ele>342.56</ele>
        <time>2018-08-29T09:03:04Z</time>
      </trkpt>
      <trkpt lat="47.6861" lon="6.20137">
        <ele>342.51</ele>
        <time>2018-08-29T09:03:06Z</time>
      </trkpt>
      <trkpt lat="47.68607" lon="6.20129">
        <ele>342.45</ele>
        <time>2018-08-29T09:03:08Z</time>
      </trkpt>
      <trkpt lat="47.68604" lon="6.2012">
        <ele>342.39</ele>
        <time>2018-08-29T09:03:10Z</time>
      </trkpt>
      <trkpt lat="47.68599" lon="6.20111">
        <ele>342.32</ele>
        <time>2018-08-29T09:03:12Z</time>
      </trkpt>
      <trkpt lat="47.68596" lon="6.20106">
        <ele>342.29</ele>
        <time>2018-08-29T09:03:13Z</time>
      </trkpt>
      <trkpt lat="47.68593" lon="6.201">
        <ele>342.26</ele>
        <time>2018-08-29T09:03:14Z</time>
      </trkpt>
      <trkpt lat="47.68589" lon="6.20095">
        <ele>342.22</ele>
        <time>2018-08-29T09:03:15Z</time>
      </trkpt>
      <trkpt lat="47.68584" lon="6.20089">
        <ele>342.19</ele>
        <time>2018-08-29T09:03:16Z</time>
      </trkpt>
      <trkpt lat="47.6858" lon="6.20083">
        <ele>342.15</ele>
        <time>2018-08-29T09:03:17Z</time>
      </trkpt>
      <trkpt lat="47.68577" lon="6.20077">
        <ele>342.12</ele>
        <time>2018-08-29T09:03:18Z</time>
      </trkpt>
      <trkpt lat="47.68574" lon="6.20071">
        <ele>342.08</ele>
        <time>2018-08-29T09:03:19Z</time>
      </trkpt>
      <trkpt lat="47.68572" lon="6.20065">
        <ele>342.04</ele>
        <time>2018-08-29T09:03:20Z</time>
      </trkpt>
      <trkpt lat="47.6857" lon="6.20059">
        <ele>342.01</ele>
        <time>2018-08-29T09:03:21Z</time>
      </trkpt>
      <trkpt lat="47.68568" lon="6.20053">
        <ele>341.97</ele>
        <time>2018-08-29T09:03:22Z</time>
      </trkpt>
      <trkpt lat="47.68566" lon="6.2004">
        <ele>341.9</ele>
        <time>2018-08-29T09:03:24Z</time>
      </trkpt>
      <trkpt lat="47.68565" lon="6.20029">
        <ele>341.83</ele>
        <time>2018-08-29T09:03:26Z</time>
      </trkpt>
      <trkpt lat="47.68562" lon="6.2002">
        <ele>341.76</ele>
        <time>2018-08-29T09:03:28Z</time>
      </trkpt>
      <trkpt lat="47.68559" lon="6.2001">
        <ele>341.68</ele>
        <time>2018-08-29T09:03:30Z</time>
      </trkpt>
      <trkpt lat="47.68556" lon="6.2">
        <ele>341.61</ele>
        <time>2018-08-29T09:03:32Z</time>
      </trkpt>
      <trkpt lat="47.68553" lon="6.19991">
        <ele>341.53</ele>
        <time>2018-08-29T09:03:34Z</time>
      </trkpt>
      <trkpt lat="47.68551" lon="6.19981">
        <ele>341.46</ele>
        <time>2018-08-29T09:03:36Z</time>
      </trkpt>
      <trkpt lat="47.68548" lon="6.1997">
        <ele>341.39</ele>
        <time>2018-08-29T09:03:38Z</time>
      </trkpt>
      <trkpt lat="47.68547" lon="6.1996">
        <ele>341.31</ele>
        <time>2018-08-29T09:03:40Z</time>
      </trkpt>
      <trkpt lat="47.68547" lon="6.19951">
        <ele>341.24</ele>
        <time>2018-08-29T09:03:42Z</time>
      </trkpt>
      <trkpt lat="47.68545" lon="6.19942">
        <ele>341.16</ele>
        <time>2018-08-29T09:03:44Z</time>
      </trkpt>
      <trkpt lat="47.68544" lon="6.19931">
        <ele>341.09</ele>
        <time>2018-08-29T09:03:46Z</time>
      </trkpt>
      <trkpt lat="47.68543" lon="6.1992">
        <ele>341.02</ele>
        <time>2018-08-29T09:03:48Z</time>
      </trkpt>
      <trkpt lat="47.68542" lon="6.19909">
        <ele>340.94</ele>
        <time>2018-08-29T09:03:50Z</time>
      </trkpt>
      <trkpt lat="47.68541" lon="6.19899">
        <ele>340.87</ele>
        <time>2018-08-29T09:03:52Z</time>
      </trkpt>
      <trkpt lat="47.68539" lon="6.19889">
        <ele>340.79</ele>
        <time>2018-08-29T09:03:54Z</time>
      </trkpt>
      <trkpt lat="47.68538" lon="6.19878">
        <ele>340.71</ele>
        <time>2018-08-29T09:03:56Z</time>
      </trkpt>
      <trkpt lat="47.68537" lon="6.19868">
        <ele>340.64</ele>
        <time>2018-08-29T09:03:58Z</time>
      </trkpt>
      <trkpt lat="47.68537" lon="6.19857">
        <ele>340.57</ele>
        <time>2018-08-29T09:04:00Z</time>
      </trkpt>
      <trkpt lat="47.68537" lon="6.19848">
        <ele>340.49</ele>
        <time>2018-08-29T09:04:02Z</time>
      </trkpt>
      <trkpt lat="47.68537" lon="6.19839">
        <ele>340.42</ele>
        <time>2018-08-29T09:04:04Z</time>
      </trkpt>
      <trkpt lat="47.68537" lon="6.19831">
        <ele>340.35</ele>
        <time>2018-08-29T09:04:06Z</time>
      </trkpt>
      <trkpt lat="47.68537" lon="6.19823">
        <ele>340.28</ele>
        <time>2018-08-29T09:04:08Z</time>
      </trkpt>
      <trkpt lat="47.68536" lon="6.19817">
        <ele>340.21</ele>
        <time>2018-08-29T09:04:10Z</time>
      </trkpt>
      <trkpt lat="47.68533" lon="6.19808">
        <ele>340.1</ele>
        <time>2018-08-29T09:04:13Z</time>
      </trkpt>
      <trkpt lat="47.68531" lon="6.19802">
        <ele>340</ele>
        <time>2018-08-29T09:04:16Z</time>
      </trkpt>
      <trkpt lat="47.68528" lon="6.19794">
        <ele>339.86</ele>
        <time>2018-08-29T09:04:20Z</time>
      </trkpt>
      <trkpt lat="47.68526" lon="6.19786">
        <ele>339.75</ele>
        <time>2018-08-29T09:04:23Z</time>
      </trkpt>
      <trkpt lat="47.68522" lon="6.19777">
        <ele>339.63</ele>
        <time>2018-08-29T09:04:26Z</time>
      </trkpt>
      <trkpt lat="47.68519" lon="6.19771">
        <ele>339.55</ele>
        <time>2018-08-29T09:04:28Z</time>
      </trkpt>
      <trkpt lat="47.68515" lon="6.19765">
        <ele>339.43</ele>
        <time>2018-08-29T09:04:31Z</time>
      </trkpt>
      <trkpt lat="47.6851" lon="6.19756">
        <ele>339.31</ele>
        <time>2018-08-29T09:04:34Z</time>
      </trkpt>
      <trkpt lat="47.68506" lon="6.19749">
        <ele>339.19</ele>
        <time>2018-08-29T09:04:37Z</time>
      </trkpt>
      <trkpt lat="47.68501" lon="6.19744">
        <ele>339.06</ele>
        <time>2018-08-29T09:04:40Z</time>
      </trkpt>
      <trkpt lat="47.68496" lon="6.19742">
        <ele>338.88</ele>
        <time>2018-08-29T09:04:44Z</time>
      </trkpt>
      <trkpt lat="47.68491" lon="6.19738">
        <ele>338.74</ele>
        <time>2018-08-29T09:04:47Z</time>
      </trkpt>
      <trkpt lat="47.68487" lon="6.19733">
        <ele>338.55</ele>
        <time>2018-08-29T09:04:51Z</time>
      </trkpt>
      <trkpt lat="47.68487" lon="6.19725">
        <ele>338.36</ele>
        <time>2018-08-29T09:04:55Z</time>
      </trkpt>
      <trkpt lat="47.68487" lon="6.19715">
        <ele>338.16</ele>
        <time>2018-08-29T09:04:59Z</time>
      </trkpt>
      <trkpt lat="47.68485" lon="6.19708">
        <ele>338</ele>
        <time>2018-08-29T09:05:02Z</time>
      </trkpt>
      <trkpt lat="47.68482" lon="6.197">
        <ele>337.78</ele>
        <time>2018-08-29T09:05:06Z</time>
      </trkpt>
      <trkpt lat="47.68479" lon="6.19694">
        <ele>337.62</ele>
        <time>2018-08-29T09:05:09Z</time>
      </trkpt>
      <trkpt lat="47.68475" lon="6.19688">
        <ele>337.4</ele>
        <time>2018-08-29T09:05:13Z</time>
      </trkpt>
      <trkpt lat="47.68472" lon="6.19683">
        <ele>337.23</ele>
        <time>2018-08-29T09:05:16Z</time>
      </trkpt>
      <trkpt lat="47.68468" lon="6.19676">
        <ele>337.05</ele>
        <time>2018-08-29T09:05:19Z</time>
      </trkpt>
      <trkpt lat="47.68466" lon="6.19671">
        <ele>336.94</ele>
        <time>2018-08-29T09:05:21Z</time>
      </trkpt>
      <trkpt lat="47.68462" lon="6.19663">
        <ele>336.76</ele>
        <time>2018-08-29T09:05:24Z</time>
      </trkpt>
      <trkpt lat="47.6846" lon="6.19655">
        <ele>336.59</ele>
        <time>2018-08-29T09:05:27Z</time>
      </trkpt>
      <trkpt lat="47.6846" lon="6.19648">
        <ele>336.36</ele>
        <time>2018-08-29T09:05:31Z</time>
      </trkpt>
      <trkpt lat="47.6846" lon="6.19641">
        <ele>336.19</ele>
        <time>2018-08-29T09:05:34Z</time>
      </trkpt>
      <trkpt lat="47.6846" lon="6.19634">
        <ele>335.97</ele>
        <time>2018-08-29T09:05:38Z</time>
      </trkpt>
      <trkpt lat="47.6846" lon="6.19626">
        <ele>335.81</ele>
        <time>2018-08-29T09:05:41Z</time>
      </trkpt>
      <trkpt lat="47.6846" lon="6.19619">
        <ele>335.65</ele>
        <time>2018-08-29T09:05:44Z</time>
      </trkpt>
      <trkpt lat="47.68459" lon="6.19612">
        <ele>335.5</ele>
        <time>2018-08-29T09:05:47Z</time>
      </trkpt>
      <trkpt lat="47.68458" lon="6.19605">
        <ele>335.34</ele>
        <time>2018-08-29T09:05:50Z</time>
      </trkpt>
      <trkpt lat="47.68456" lon="6.19599">
        <ele>335.24</ele>
        <time>2018-08-29T09:05:52Z</time>
      </trkpt>
      <trkpt lat="47.68454" lon="6.19592">
        <ele>335.14</ele>
        <time>2018-08-29T09:05:54Z</time>
      </trkpt>
      <trkpt lat="47.68451" lon="6.19584">
        <ele>334.99</ele>
        <time>2018-08-29T09:05:57Z</time>
      </trkpt>
      <trkpt lat="47.68449" lon="6.19576">
        <ele>334.84</ele>
        <time>2018-08-29T09:06:00Z</time>
      </trkpt>
      <trkpt lat="47.68445" lon="6.19567">
        <ele>334.68</ele>
        <time>2018-08-29T09:06:03Z</time>
      </trkpt>
      <trkpt lat="47.68443" lon="6.1956">
        <ele>334.58</ele>
        <time>2018-08-29T09:06:05Z</time>
      </trkpt>
      <trkpt lat="47.68441" lon="6.19552">
        <ele>334.43</ele>
        <time>2018-08-29T09:06:08Z</time>
      </trkpt>
      <trkpt lat="47.68439" lon="6.19546">
        <ele>334.34</ele>
        <time>2018-08-29T09:06:10Z</time>
      </trkpt>
      <trkpt lat="47.68437" lon="6.19539">
        <ele>334.19</ele>
        <time>2018-08-29T09:06:13Z</time>
      </trkpt>
      <trkpt lat="47.68435" lon="6.19531">
        <ele>334.05</ele>
        <time>2018-08-29T09:06:16Z</time>
      </trkpt>
      <trkpt lat="47.68432" lon="6.19525">
        <ele>333.91</ele>
        <time>2018-08-29T09:06:19Z</time>
      </trkpt>
      <trkpt lat="47.6843" lon="6.19517">
        <ele>333.77</ele>
        <time>2018-08-29T09:06:22Z</time>
      </trkpt>
      <trkpt lat="47.68427" lon="6.1951">
        <ele>333.63</ele>
        <time>2018-08-29T09:06:25Z</time>
      </trkpt>
      <trkpt lat="47.68425" lon="6.19501">
        <ele>333.5</ele>
        <time>2018-08-29T09:06:28Z</time>
      </trkpt>
      <trkpt lat="47.68423" lon="6.19494">
        <ele>333.36</ele>
        <time>2018-08-29T09:06:31Z</time>
      </trkpt>
      <trkpt lat="47.68421" lon="6.19486">
        <ele>333.23</ele>
        <time>2018-08-29T09:06:34Z</time>
      </trkpt>
      <trkpt lat="47.68419" lon="6.1948">
        <ele>333.06</ele>
        <time>2018-08-29T09:06:38Z</time>
      </trkpt>
      <trkpt lat="47.68415" lon="6.19472">
        <ele>332.89</ele>
        <time>2018-08-29T09:06:42Z</time>
      </trkpt>
      <trkpt lat="47.68412" lon="6.19464">
        <ele>332.77</ele>
        <time>2018-08-29T09:06:45Z</time>
      </trkpt>
      <trkpt lat="47.68409" lon="6.19456">
        <ele>332.65</ele>
        <time>2018-08-29T09:06:48Z</time>
      </trkpt>
      <trkpt lat="47.68405" lon="6.19449">
        <ele>332.53</ele>
        <time>2018-08-29T09:06:51Z</time>
      </trkpt>
      <trkpt lat="47.684" lon="6.19443">
        <ele>332.41</ele>
        <time>2018-08-29T09:06:54Z</time>
      </trkpt>
      <trkpt lat="47.68397" lon="6.19439">
        <ele>332.29</ele>
        <time>2018-08-29T09:06:57Z</time>
      </trkpt>
      <trkpt lat="47.68393" lon="6.19434">
        <ele>332.17</ele>
        <time>2018-08-29T09:07:00Z</time>
      </trkpt>
      <trkpt lat="47.6839" lon="6.1943">
        <ele>332.06</ele>
        <time>2018-08-29T09:07:03Z</time>
      </trkpt>
      <trkpt lat="47.68385" lon="6.19426">
        <ele>331.94</ele>
        <time>2018-08-29T09:07:06Z</time>
      </trkpt>
      <trkpt lat="47.6838" lon="6.19422">
        <ele>331.83</ele>
        <time>2018-08-29T09:07:09Z</time>
      </trkpt>
      <trkpt lat="47.68376" lon="6.19418">
        <ele>331.73</ele>
        <time>2018-08-29T09:07:12Z</time>
      </trkpt>
      <trkpt lat="47.68371" lon="6.19415">
        <ele>331.63</ele>
        <time>2018-08-29T09:07:15Z</time>
      </trkpt>
      <trkpt lat="47.68367" lon="6.19413">
        <ele>331.5</ele>
        <time>2018-08-29T09:07:19Z</time>
      </trkpt>
      <trkpt lat="47.68362" lon="6.19411">
        <ele>331.38</ele>
        <time>2018-08-29T09:07:23Z</time>
      </trkpt>
      <trkpt lat="47.68357" lon="6.1941">
        <ele>331.26</ele>
        <time>2018-08-29T09:07:27Z</time>
      </trkpt>
      <trkpt lat="47.68351" lon="6.1941">
        <ele>331.15</ele>
        <time>2018-08-29T09:07:31Z</time>
      </trkpt>
      <trkpt lat="47.68345" lon="6.19411">
        <ele>331.05</ele>
        <time>2018-08-29T09:07:35Z</time>
      </trkpt>
      <trkpt lat="47.68341" lon="6.19412">
        <ele>330.98</ele>
        <time>2018-08-29T09:07:38Z</time>
      </trkpt>
      <trkpt lat="47.68336" lon="6.19413">
        <ele>330.91</ele>
        <time>2018-08-29T09:07:41Z</time>
      </trkpt>
      <trkpt lat="47.6833" lon="6.19414">
        <ele>330.82</ele>
        <time>2018-08-29T09:07:45Z</time>
      </trkpt>
      <trkpt lat="47.68325" lon="6.19415">
        <ele>330.74</ele>
        <time>2018-08-29T09:07:49Z</time>
      </trkpt>
      <trkpt lat="47.6832" lon="6.19416">
        <ele>330.68</ele>
        <time>2018-08-29T09:07:52Z</time>
      </trkpt>
      <trkpt lat="47.68314" lon="6.19418">
        <ele>330.63</ele>
        <time>2018-08-29T09:07:55Z</time>
      </trkpt>
      <trkpt lat="47.68308" lon="6.1942">
        <ele>330.59</ele>
        <time>2018-08-29T09:07:58Z</time>
      </trkpt>
      <trkpt lat="47.68303" lon="6.19422">
        <ele>330.57</ele>
        <time>2018-08-29T09:08:00Z</time>
      </trkpt>
      <trkpt lat="47.68297" lon="6.19425">
        <ele>330.56</ele>
        <time>2018-08-29T09:08:02Z</time>
      </trkpt>
      <trkpt lat="47.68292" lon="6.19427">
        <ele>330.54</ele>
        <time>2018-08-29T09:08:04Z</time>
      </trkpt>
      <trkpt lat="47.68286" lon="6.19425">
        <ele>330.53</ele>
        <time>2018-08-29T09:08:06Z</time>
      </trkpt>
      <trkpt lat="47.68281" lon="6.19419">
        <ele>330.51</ele>
        <time>2018-08-29T09:08:08Z</time>
      </trkpt>
      <trkpt lat="47.68275" lon="6.19411">
        <ele>330.49</ele>
        <time>2018-08-29T09:08:10Z</time>
      </trkpt>
      <trkpt lat="47.6827" lon="6.19404">
        <ele>330.46</ele>
        <time>2018-08-29T09:08:12Z</time>
      </trkpt>
      <trkpt lat="47.68267" lon="6.19395">
        <ele>330.44</ele>
        <time>2018-08-29T09:08:14Z</time>
      </trkpt>
      <trkpt lat="47.68264" lon="6.19385">
        <ele>330.42</ele>
        <time>2018-08-29T09:08:16Z</time>
      </trkpt>
      <trkpt lat="47.68262" lon="6.19376">
        <ele>330.39</ele>
        <time>2018-08-29T09:08:18Z</time>
      </trkpt>
      <trkpt lat="47.68261" lon="6.19367">
        <ele>330.37</ele>
        <time>2018-08-29T09:08:20Z</time>
      </trkpt>
      <trkpt lat="47.68259" lon="6.19359">
        <ele>330.35</ele>
        <time>2018-08-29T09:08:22Z</time>
      </trkpt>
      <trkpt lat="47.68257" lon="6.1935">
        <ele>330.32</ele>
        <time>2018-08-29T09:08:25Z</time>
      </trkpt>
      <trkpt lat="47.68255" lon="6.19344">
        <ele>330.29</ele>
        <time>2018-08-29T09:08:28Z</time>
      </trkpt>
      <trkpt lat="47.68253" lon="6.19336">
        <ele>330.22</ele>
        <time>2018-08-29T09:08:47Z</time>
      </trkpt>
      <trkpt lat="47.68251" lon="6.19327">
        <ele>330.14</ele>
        <time>2018-08-29T09:08:52Z</time>
      </trkpt>
      <trkpt lat="47.68248" lon="6.19319">
        <ele>330.09</ele>
        <time>2018-08-29T09:08:55Z</time>
      </trkpt>
      <trkpt lat="47.68246" lon="6.19313">
        <ele>330.06</ele>
        <time>2018-08-29T09:08:57Z</time>
      </trkpt>
      <trkpt lat="47.68242" lon="6.19305">
        <ele>330.01</ele>
        <time>2018-08-29T09:09:00Z</time>
      </trkpt>
      <trkpt lat="47.68239" lon="6.19298">
        <ele>329.96</ele>
        <time>2018-08-29T09:09:03Z</time>
      </trkpt>
      <trkpt lat="47.68236" lon="6.1929">
        <ele>329.91</ele>
        <time>2018-08-29T09:09:06Z</time>
      </trkpt>
      <trkpt lat="47.68233" lon="6.19282">
        <ele>329.86</ele>
        <time>2018-08-29T09:09:09Z</time>
      </trkpt>
      <trkpt lat="47.68231" lon="6.19276">
        <ele>329.83</ele>
        <time>2018-08-29T09:09:11Z</time>
      </trkpt>
      <trkpt lat="47.68229" lon="6.19268">
        <ele>329.8</ele>
        <time>2018-08-29T09:09:13Z</time>
      </trkpt>
      <trkpt lat="47.68226" lon="6.1926">
        <ele>329.77</ele>
        <time>2018-08-29T09:09:15Z</time>
      </trkpt>
      <trkpt lat="47.68224" lon="6.19252">
        <ele>329.74</ele>
        <time>2018-08-29T09:09:17Z</time>
      </trkpt>
      <trkpt lat="47.68222" lon="6.19244">
        <ele>329.71</ele>
        <time>2018-08-29T09:09:19Z</time>
      </trkpt>
      <trkpt lat="47.6822" lon="6.19236">
        <ele>329.68</ele>
        <time>2018-08-29T09:09:21Z</time>
      </trkpt>
      <trkpt lat="47.68218" lon="6.19229">
        <ele>329.65</ele>
        <time>2018-08-29T09:09:23Z</time>
      </trkpt>
      <trkpt lat="47.68216" lon="6.19222">
        <ele>329.61</ele>
        <time>2018-08-29T09:09:25Z</time>
      </trkpt>
      <trkpt lat="47.68214" lon="6.19215">
        <ele>329.58</ele>
        <time>2018-08-29T09:09:27Z</time>
      </trkpt>
      <trkpt lat="47.68212" lon="6.19208">
        <ele>329.55</ele>
        <time>2018-08-29T09:09:29Z</time>
      </trkpt>
      <trkpt lat="47.6821" lon="6.19201">
        <ele>329.51</ele>
        <time>2018-08-29T09:09:31Z</time>
      </trkpt>
      <trkpt lat="47.68208" lon="6.19194">
        <ele>329.48</ele>
        <time>2018-08-29T09:09:33Z</time>
      </trkpt>
      <trkpt lat="47.68206" lon="6.19188">
        <ele>329.45</ele>
        <time>2018-08-29T09:09:35Z</time>
      </trkpt>
      <trkpt lat="47.68204" lon="6.1918">
        <ele>329.42</ele>
        <time>2018-08-29T09:09:37Z</time>
      </trkpt>
      <trkpt lat="47.68201" lon="6.19173">
        <ele>329.39</ele>
        <time>2018-08-29T09:09:39Z</time>
      </trkpt>
      <trkpt lat="47.68199" lon="6.19165">
        <ele>329.36</ele>
        <time>2018-08-29T09:09:41Z</time>
      </trkpt>
      <trkpt lat="47.68197" lon="6.19155">
        <ele>329.31</ele>
        <time>2018-08-29T09:09:44Z</time>
      </trkpt>
      <trkpt lat="47.68195" lon="6.19146">
        <ele>329.27</ele>
        <time>2018-08-29T09:09:47Z</time>
      </trkpt>
      <trkpt lat="47.68193" lon="6.19139">
        <ele>329.24</ele>
        <time>2018-08-29T09:09:49Z</time>
      </trkpt>
      <trkpt lat="47.68191" lon="6.19132">
        <ele>329.21</ele>
        <time>2018-08-29T09:09:51Z</time>
      </trkpt>
      <trkpt lat="47.68189" lon="6.19124">
        <ele>329.18</ele>
        <time>2018-08-29T09:09:53Z</time>
      </trkpt>
      <trkpt lat="47.68187" lon="6.19116">
        <ele>329.16</ele>
        <time>2018-08-29T09:09:55Z</time>
      </trkpt>
      <trkpt lat="47.68185" lon="6.19108">
        <ele>329.13</ele>
        <time>2018-08-29T09:09:57Z</time>
      </trkpt>
      <trkpt lat="47.68184" lon="6.191">
        <ele>329.11</ele>
        <time>2018-08-29T09:09:59Z</time>
      </trkpt>
      <trkpt lat="47.68182" lon="6.19091">
        <ele>329.08</ele>
        <time>2018-08-29T09:10:01Z</time>
      </trkpt>
      <trkpt lat="47.68179" lon="6.1908">
        <ele>328.94</ele>
        <time>2018-08-29T09:10:03Z</time>
      </trkpt>
      <trkpt lat="47.68177" lon="6.19073">
        <ele>328.8</ele>
        <time>2018-08-29T09:10:04Z</time>
      </trkpt>
      <trkpt lat="47.68174" lon="6.19067">
        <ele>328.66</ele>
        <time>2018-08-29T09:10:05Z</time>
      </trkpt>
      <trkpt lat="47.68171" lon="6.19054">
        <ele>328.49</ele>
        <time>2018-08-29T09:10:07Z</time>
      </trkpt>
      <trkpt lat="47.68169" lon="6.19048">
        <ele>328.47</ele>
        <time>2018-08-29T09:10:08Z</time>
      </trkpt>
      <trkpt lat="47.68166" lon="6.19038">
        <ele>328.44</ele>
        <time>2018-08-29T09:10:10Z</time>
      </trkpt>
      <trkpt lat="47.68164" lon="6.19028">
        <ele>328.41</ele>
        <time>2018-08-29T09:10:12Z</time>
      </trkpt>
      <trkpt lat="47.68162" lon="6.19017">
        <ele>328.38</ele>
        <time>2018-08-29T09:10:14Z</time>
      </trkpt>
      <trkpt lat="47.68159" lon="6.19005">
        <ele>328.35</ele>
        <time>2018-08-29T09:10:16Z</time>
      </trkpt>
      <trkpt lat="47.68156" lon="6.18995">
        <ele>328.32</ele>
        <time>2018-08-29T09:10:18Z</time>
      </trkpt>
      <trkpt lat="47.68154" lon="6.18986">
        <ele>328.28</ele>
        <time>2018-08-29T09:10:20Z</time>
      </trkpt>
      <trkpt lat="47.6815" lon="6.18977">
        <ele>328.24</ele>
        <time>2018-08-29T09:10:22Z</time>
      </trkpt>
      <trkpt lat="47.68148" lon="6.18968">
        <ele>328.2</ele>
        <time>2018-08-29T09:10:24Z</time>
      </trkpt>
      <trkpt lat="47.68146" lon="6.1896">
        <ele>328.14</ele>
        <time>2018-08-29T09:10:26Z</time>
      </trkpt>
      <trkpt lat="47.68143" lon="6.18951">
        <ele>328.09</ele>
        <time>2018-08-29T09:10:28Z</time>
      </trkpt>
      <trkpt lat="47.68141" lon="6.18942">
        <ele>328.04</ele>
        <time>2018-08-29T09:10:30Z</time>
      </trkpt>
      <trkpt lat="47.68139" lon="6.18934">
        <ele>327.98</ele>
        <time>2018-08-29T09:10:32Z</time>
      </trkpt>
      <trkpt lat="47.68135" lon="6.18924">
        <ele>327.92</ele>
        <time>2018-08-29T09:10:34Z</time>
      </trkpt>
      <trkpt lat="47.68132" lon="6.18915">
        <ele>327.85</ele>
        <time>2018-08-29T09:10:36Z</time>
      </trkpt>
      <trkpt lat="47.68129" lon="6.18908">
        <ele>327.78</ele>
        <time>2018-08-29T09:10:38Z</time>
      </trkpt>
      <trkpt lat="47.68126" lon="6.189">
        <ele>327.7</ele>
        <time>2018-08-29T09:10:40Z</time>
      </trkpt>
      <trkpt lat="47.68124" lon="6.18893">
        <ele>327.61</ele>
        <time>2018-08-29T09:10:42Z</time>
      </trkpt>
      <trkpt lat="47.68122" lon="6.18886">
        <ele>327.53</ele>
        <time>2018-08-29T09:10:44Z</time>
      </trkpt>
      <trkpt lat="47.6812" lon="6.18879">
        <ele>327.43</ele>
        <time>2018-08-29T09:10:46Z</time>
      </trkpt>
      <trkpt lat="47.68118" lon="6.1887">
        <ele>327.29</ele>
        <time>2018-08-29T09:10:49Z</time>
      </trkpt>
      <trkpt lat="47.68117" lon="6.1886">
        <ele>327.14</ele>
        <time>2018-08-29T09:10:52Z</time>
      </trkpt>
      <trkpt lat="47.68115" lon="6.18852">
        <ele>327.04</ele>
        <time>2018-08-29T09:10:54Z</time>
      </trkpt>
      <trkpt lat="47.68112" lon="6.18843">
        <ele>326.93</ele>
        <time>2018-08-29T09:10:56Z</time>
      </trkpt>
      <trkpt lat="47.68109" lon="6.18836">
        <ele>326.81</ele>
        <time>2018-08-29T09:10:58Z</time>
      </trkpt>
      <trkpt lat="47.68107" lon="6.18828">
        <ele>326.69</ele>
        <time>2018-08-29T09:11:00Z</time>
      </trkpt>
      <trkpt lat="47.68104" lon="6.18819">
        <ele>326.56</ele>
        <time>2018-08-29T09:11:02Z</time>
      </trkpt>
      <trkpt lat="47.68102" lon="6.1881">
        <ele>326.43</ele>
        <time>2018-08-29T09:11:04Z</time>
      </trkpt>
      <trkpt lat="47.681" lon="6.18802">
        <ele>326.3</ele>
        <time>2018-08-29T09:11:06Z</time>
      </trkpt>
      <trkpt lat="47.68099" lon="6.18796">
        <ele>326.16</ele>
        <time>2018-08-29T09:11:08Z</time>
      </trkpt>
      <trkpt lat="47.68096" lon="6.18787">
        <ele>325.96</ele>
        <time>2018-08-29T09:11:11Z</time>
      </trkpt>
      <trkpt lat="47.68094" lon="6.1878">
        <ele>325.82</ele>
        <time>2018-08-29T09:11:13Z</time>
      </trkpt>
      <trkpt lat="47.68092" lon="6.18772">
        <ele>325.67</ele>
        <time>2018-08-29T09:11:15Z</time>
      </trkpt>
      <trkpt lat="47.68089" lon="6.18765">
        <ele>325.52</ele>
        <time>2018-08-29T09:11:17Z</time>
      </trkpt>
      <trkpt lat="47.68087" lon="6.18758">
        <ele>325.37</ele>
        <time>2018-08-29T09:11:19Z</time>
      </trkpt>
      <trkpt lat="47.68084" lon="6.18751">
        <ele>325.14</ele>
        <time>2018-08-29T09:11:22Z</time>
      </trkpt>
      <trkpt lat="47.68081" lon="6.18746">
        <ele>324.91</ele>
        <time>2018-08-29T09:11:25Z</time>
      </trkpt>
      <trkpt lat="47.68075" lon="6.18746">
        <ele>324.68</ele>
        <time>2018-08-29T09:11:28Z</time>
      </trkpt>
      <trkpt lat="47.6807" lon="6.18749">
        <ele>324.46</ele>
        <time>2018-08-29T09:11:31Z</time>
      </trkpt>
      <trkpt lat="47.68064" lon="6.18751">
        <ele>324.24</ele>
        <time>2018-08-29T09:11:34Z</time>
      </trkpt>
      <trkpt lat="47.68058" lon="6.18753">
        <ele>324.1</ele>
        <time>2018-08-29T09:11:36Z</time>
      </trkpt>
      <trkpt lat="47.68054" lon="6.18755">
        <ele>323.96</ele>
        <time>2018-08-29T09:11:38Z</time>
      </trkpt>
      <trkpt lat="47.68049" lon="6.18758">
        <ele>323.82</ele>
        <time>2018-08-29T09:11:40Z</time>
      </trkpt>
      <trkpt lat="47.68044" lon="6.18761">
        <ele>323.62</ele>
        <time>2018-08-29T09:11:43Z</time>
      </trkpt>
      <trkpt lat="47.68039" lon="6.18762">
        <ele>323.29</ele>
        <time>2018-08-29T09:11:48Z</time>
      </trkpt>
      <trkpt lat="47.68034" lon="6.18765">
        <ele>323.04</ele>
        <time>2018-08-29T09:11:52Z</time>
      </trkpt>
      <trkpt lat="47.6803" lon="6.18767">
        <ele>322.86</ele>
        <time>2018-08-29T09:11:55Z</time>
      </trkpt>
      <trkpt lat="47.68024" lon="6.18769">
        <ele>322.67</ele>
        <time>2018-08-29T09:11:58Z</time>
      </trkpt>
      <trkpt lat="47.6802" lon="6.18772">
        <ele>322.56</ele>
        <time>2018-08-29T09:12:00Z</time>
      </trkpt>
      <trkpt lat="47.68015" lon="6.18775">
        <ele>322.44</ele>
        <time>2018-08-29T09:12:02Z</time>
      </trkpt>
      <trkpt lat="47.68009" lon="6.18778">
        <ele>322.27</ele>
        <time>2018-08-29T09:12:05Z</time>
      </trkpt>
      <trkpt lat="47.68004" lon="6.18781">
        <ele>322.16</ele>
        <time>2018-08-29T09:12:07Z</time>
      </trkpt>
      <trkpt lat="47.67999" lon="6.18784">
        <ele>322.04</ele>
        <time>2018-08-29T09:12:09Z</time>
      </trkpt>
      <trkpt lat="47.67994" lon="6.18786">
        <ele>321.93</ele>
        <time>2018-08-29T09:12:11Z</time>
      </trkpt>
      <trkpt lat="47.67988" lon="6.18788">
        <ele>321.76</ele>
        <time>2018-08-29T09:12:14Z</time>
      </trkpt>
      <trkpt lat="47.67982" lon="6.1879">
        <ele>321.6</ele>
        <time>2018-08-29T09:12:17Z</time>
      </trkpt>
      <trkpt lat="47.67978" lon="6.18791">
        <ele>321.43</ele>
        <time>2018-08-29T09:12:20Z</time>
      </trkpt>
      <trkpt lat="47.67972" lon="6.18793">
        <ele>321.27</ele>
        <time>2018-08-29T09:12:23Z</time>
      </trkpt>
      <trkpt lat="47.67966" lon="6.18795">
        <ele>321.11</ele>
        <time>2018-08-29T09:12:26Z</time>
      </trkpt>
      <trkpt lat="47.67961" lon="6.18797">
        <ele>321.01</ele>
        <time>2018-08-29T09:12:28Z</time>
      </trkpt>
      <trkpt lat="47.67957" lon="6.18799">
        <ele>320.91</ele>
        <time>2018-08-29T09:12:30Z</time>
      </trkpt>
      <trkpt lat="47.67952" lon="6.18801">
        <ele>320.81</ele>
        <time>2018-08-29T09:12:32Z</time>
      </trkpt>
      <trkpt lat="47.67947" lon="6.18804">
        <ele>320.71</ele>
        <time>2018-08-29T09:12:34Z</time>
      </trkpt>
      <trkpt lat="47.67941" lon="6.18807">
        <ele>320.61</ele>
        <time>2018-08-29T09:12:36Z</time>
      </trkpt>
      <trkpt lat="47.67935" lon="6.1881">
        <ele>320.51</ele>
        <time>2018-08-29T09:12:38Z</time>
      </trkpt>
      <trkpt lat="47.67929" lon="6.18815">
        <ele>320.41</ele>
        <time>2018-08-29T09:12:40Z</time>
      </trkpt>
      <trkpt lat="47.67923" lon="6.1882">
        <ele>320.32</ele>
        <time>2018-08-29T09:12:42Z</time>
      </trkpt>
      <trkpt lat="47.67917" lon="6.18824">
        <ele>320.22</ele>
        <time>2018-08-29T09:12:44Z</time>
      </trkpt>
      <trkpt lat="47.67912" lon="6.18827">
        <ele>320.12</ele>
        <time>2018-08-29T09:12:46Z</time>
      </trkpt>
      <trkpt lat="47.67906" lon="6.18829">
        <ele>320.03</ele>
        <time>2018-08-29T09:12:48Z</time>
      </trkpt>
      <trkpt lat="47.67901" lon="6.18832">
        <ele>319.93</ele>
        <time>2018-08-29T09:12:50Z</time>
      </trkpt>
      <trkpt lat="47.67895" lon="6.18834">
        <ele>319.83</ele>
        <time>2018-08-29T09:12:52Z</time>
      </trkpt>
      <trkpt lat="47.67891" lon="6.18835">
        <ele>319.72</ele>
        <time>2018-08-29T09:12:55Z</time>
      </trkpt>
      <trkpt lat="47.67887" lon="6.18829">
        <ele>319.39</ele>
        <time>2018-08-29T09:13:01Z</time>
      </trkpt>
      <trkpt lat="47.67885" lon="6.18821">
        <ele>319.28</ele>
        <time>2018-08-29T09:13:03Z</time>
      </trkpt>
      <trkpt lat="47.67883" lon="6.18811">
        <ele>319.16</ele>
        <time>2018-08-29T09:13:05Z</time>
      </trkpt>
      <trkpt lat="47.67881" lon="6.188">
        <ele>319.05</ele>
        <time>2018-08-29T09:13:07Z</time>
      </trkpt>
      <trkpt lat="47.67879" lon="6.18787">
        <ele>318.93</ele>
        <time>2018-08-29T09:13:09Z</time>
      </trkpt>
      <trkpt lat="47.67878" lon="6.1878">
        <ele>318.86</ele>
        <time>2018-08-29T09:13:10Z</time>
      </trkpt>
      <trkpt lat="47.67876" lon="6.18774">
        <ele>318.8</ele>
        <time>2018-08-29T09:13:11Z</time>
      </trkpt>
      <trkpt lat="47.67874" lon="6.18763">
        <ele>318.66</ele>
        <time>2018-08-29T09:13:13Z</time>
      </trkpt>
      <trkpt lat="47.67871" lon="6.18755">
        <ele>318.52</ele>
        <time>2018-08-29T09:13:15Z</time>
      </trkpt>
      <trkpt lat="47.67868" lon="6.18749">
        <ele>318.39</ele>
        <time>2018-08-29T09:13:17Z</time>
      </trkpt>
      <trkpt lat="47.67864" lon="6.18745">
        <ele>318.24</ele>
        <time>2018-08-29T09:13:19Z</time>
      </trkpt>
      <trkpt lat="47.6786" lon="6.18743">
        <ele>318.1</ele>
        <time>2018-08-29T09:13:21Z</time>
      </trkpt>
      <trkpt lat="47.67854" lon="6.18741">
        <ele>317.88</ele>
        <time>2018-08-29T09:13:24Z</time>
      </trkpt>
      <trkpt lat="47.67847" lon="6.18744">
        <ele>317.67</ele>
        <time>2018-08-29T09:13:27Z</time>
      </trkpt>
      <trkpt lat="47.67841" lon="6.18747">
        <ele>317.53</ele>
        <time>2018-08-29T09:13:29Z</time>
      </trkpt>
      <trkpt lat="47.67836" lon="6.18751">
        <ele>317.38</ele>
        <time>2018-08-29T09:13:31Z</time>
      </trkpt>
      <trkpt lat="47.67831" lon="6.18755">
        <ele>317.23</ele>
        <time>2018-08-29T09:13:33Z</time>
      </trkpt>
      <trkpt lat="47.67826" lon="6.1876">
        <ele>317.08</ele>
        <time>2018-08-29T09:13:35Z</time>
      </trkpt>
      <trkpt lat="47.67821" lon="6.18765">
        <ele>316.93</ele>
        <time>2018-08-29T09:13:37Z</time>
      </trkpt>
      <trkpt lat="47.67816" lon="6.18771">
        <ele>316.78</ele>
        <time>2018-08-29T09:13:39Z</time>
      </trkpt>
      <trkpt lat="47.67811" lon="6.18777">
        <ele>316.64</ele>
        <time>2018-08-29T09:13:41Z</time>
      </trkpt>
      <trkpt lat="47.67806" lon="6.18782">
        <ele>316.5</ele>
        <time>2018-08-29T09:13:43Z</time>
      </trkpt>
      <trkpt lat="47.67801" lon="6.18788">
        <ele>316.29</ele>
        <time>2018-08-29T09:13:46Z</time>
      </trkpt>
      <trkpt lat="47.67795" lon="6.18792">
        <ele>316.08</ele>
        <time>2018-08-29T09:13:49Z</time>
      </trkpt>
      <trkpt lat="47.6779" lon="6.18796">
        <ele>315.88</ele>
        <time>2018-08-29T09:13:52Z</time>
      </trkpt>
      <trkpt lat="47.67785" lon="6.18799">
        <ele>315.75</ele>
        <time>2018-08-29T09:13:54Z</time>
      </trkpt>
      <trkpt lat="47.6778" lon="6.18803">
        <ele>315.61</ele>
        <time>2018-08-29T09:13:56Z</time>
      </trkpt>
      <trkpt lat="47.67775" lon="6.18806">
        <ele>315.48</ele>
        <time>2018-08-29T09:13:58Z</time>
      </trkpt>
      <trkpt lat="47.67769" lon="6.18808">
        <ele>315.34</ele>
        <time>2018-08-29T09:14:00Z</time>
      </trkpt>
      <trkpt lat="47.67764" lon="6.18811">
        <ele>315.2</ele>
        <time>2018-08-29T09:14:02Z</time>
      </trkpt>
      <trkpt lat="47.67759" lon="6.18815">
        <ele>315.06</ele>
        <time>2018-08-29T09:14:04Z</time>
      </trkpt>
      <trkpt lat="47.67755" lon="6.18818">
        <ele>314.95</ele>
        <time>2018-08-29T09:14:07Z</time>
      </trkpt>
      <trkpt lat="47.67751" lon="6.18821">
        <ele>314.35</ele>
        <time>2018-08-29T09:14:18Z</time>
      </trkpt>
      <trkpt lat="47.67746" lon="6.18824">
        <ele>313.34</ele>
        <time>2018-08-29T09:14:31Z</time>
      </trkpt>
      <trkpt lat="47.67741" lon="6.18823">
        <ele>311.76</ele>
        <time>2018-08-29T09:14:54Z</time>
      </trkpt>
      <trkpt lat="47.67739" lon="6.18829">
        <ele>310.51</ele>
        <time>2018-08-29T09:15:16Z</time>
      </trkpt>
      <trkpt lat="47.67736" lon="6.18835">
        <ele>309.96</ele>
        <time>2018-08-29T09:15:24Z</time>
      </trkpt>
      <trkpt lat="47.67731" lon="6.18839">
        <ele>309.5</ele>
        <time>2018-08-29T09:15:28Z</time>
      </trkpt>
      <trkpt lat="47.67726" lon="6.1884">
        <ele>309.03</ele>
        <time>2018-08-29T09:15:32Z</time>
      </trkpt>
      <trkpt lat="47.67722" lon="6.18836">
        <ele>308.44</ele>
        <time>2018-08-29T09:15:37Z</time>
      </trkpt>
      <trkpt lat="47.67719" lon="6.1883">
        <ele>307.98</ele>
        <time>2018-08-29T09:15:41Z</time>
      </trkpt>
      <trkpt lat="47.67715" lon="6.18824">
        <ele>307.52</ele>
        <time>2018-08-29T09:15:45Z</time>
      </trkpt>
      <trkpt lat="47.67711" lon="6.18819">
        <ele>307.08</ele>
        <time>2018-08-29T09:15:49Z</time>
      </trkpt>
      <trkpt lat="47.67707" lon="6.18813">
        <ele>306.64</ele>
        <time>2018-08-29T09:15:53Z</time>
      </trkpt>
      <trkpt lat="47.67702" lon="6.18808">
        <ele>306.32</ele>
        <time>2018-08-29T09:15:56Z</time>
      </trkpt>
      <trkpt lat="47.67696" lon="6.18809">
        <ele>305.9</ele>
        <time>2018-08-29T09:16:00Z</time>
      </trkpt>
      <trkpt lat="47.67691" lon="6.1881">
        <ele>305.59</ele>
        <time>2018-08-29T09:16:03Z</time>
      </trkpt>
      <trkpt lat="47.67687" lon="6.1881">
        <ele>305.19</ele>
        <time>2018-08-29T09:16:07Z</time>
      </trkpt>
      <trkpt lat="47.67681" lon="6.18806">
        <ele>304.61</ele>
        <time>2018-08-29T09:16:13Z</time>
      </trkpt>
      <trkpt lat="47.67677" lon="6.18802">
        <ele>304.43</ele>
        <time>2018-08-29T09:16:15Z</time>
      </trkpt>
      <trkpt lat="47.67673" lon="6.18799">
        <ele>304.24</ele>
        <time>2018-08-29T09:16:17Z</time>
      </trkpt>
      <trkpt lat="47.67669" lon="6.18795">
        <ele>304.06</ele>
        <time>2018-08-29T09:16:19Z</time>
      </trkpt>
      <trkpt lat="47.67663" lon="6.18792">
        <ele>303.79</ele>
        <time>2018-08-29T09:16:22Z</time>
      </trkpt>
      <trkpt lat="47.67657" lon="6.1879">
        <ele>303.52</ele>
        <time>2018-08-29T09:16:25Z</time>
      </trkpt>
      <trkpt lat="47.67653" lon="6.18788">
        <ele>303.25</ele>
        <time>2018-08-29T09:16:28Z</time>
      </trkpt>
      <trkpt lat="47.67647" lon="6.18786">
        <ele>302.91</ele>
        <time>2018-08-29T09:16:32Z</time>
      </trkpt>
      <trkpt lat="47.67643" lon="6.18782">
        <ele>302.58</ele>
        <time>2018-08-29T09:16:36Z</time>
      </trkpt>
      <trkpt lat="47.67641" lon="6.18774">
        <ele>302.25</ele>
        <time>2018-08-29T09:16:40Z</time>
      </trkpt>
      <trkpt lat="47.6764" lon="6.18767">
        <ele>301.92</ele>
        <time>2018-08-29T09:16:44Z</time>
      </trkpt>
      <trkpt lat="47.6764" lon="6.18759">
        <ele>301.58</ele>
        <time>2018-08-29T09:16:48Z</time>
      </trkpt>
      <trkpt lat="47.67639" lon="6.18751">
        <ele>301.23</ele>
        <time>2018-08-29T09:16:52Z</time>
      </trkpt>
      <trkpt lat="47.67638" lon="6.18743">
        <ele>300.89</ele>
        <time>2018-08-29T09:16:56Z</time>
      </trkpt>
      <trkpt lat="47.67637" lon="6.18736">
        <ele>300.63</ele>
        <time>2018-08-29T09:16:59Z</time>
      </trkpt>
      <trkpt lat="47.67636" lon="6.18727">
        <ele>300.29</ele>
        <time>2018-08-29T09:17:03Z</time>
      </trkpt>
      <trkpt lat="47.67636" lon="6.18718">
        <ele>300.03</ele>
        <time>2018-08-29T09:17:06Z</time>
      </trkpt>
      <trkpt lat="47.67635" lon="6.18712">
        <ele>299.85</ele>
        <time>2018-08-29T09:17:08Z</time>
      </trkpt>
      <trkpt lat="47.67633" lon="6.18703">
        <ele>299.59</ele>
        <time>2018-08-29T09:17:11Z</time>
      </trkpt>
      <trkpt lat="47.6763" lon="6.18697">
        <ele>299.34</ele>
        <time>2018-08-29T09:17:14Z</time>
      </trkpt>
      <trkpt lat="47.67625" lon="6.18694">
        <ele>299.09</ele>
        <time>2018-08-29T09:17:17Z</time>
      </trkpt>
      <trkpt lat="47.6762" lon="6.18693">
        <ele>298.84</ele>
        <time>2018-08-29T09:17:20Z</time>
      </trkpt>
      <trkpt lat="47.67614" lon="6.18692">
        <ele>298.6</ele>
        <time>2018-08-29T09:17:23Z</time>
      </trkpt>
      <trkpt lat="47.67609" lon="6.18692">
        <ele>298.36</ele>
        <time>2018-08-29T09:17:26Z</time>
      </trkpt>
      <trkpt lat="47.67603" lon="6.18691">
        <ele>298.12</ele>
        <time>2018-08-29T09:17:29Z</time>
      </trkpt>
      <trkpt lat="47.67597" lon="6.18692">
        <ele>297.88</ele>
        <time>2018-08-29T09:17:32Z</time>
      </trkpt>
      <trkpt lat="47.67591" lon="6.18692">
        <ele>297.64</ele>
        <time>2018-08-29T09:17:35Z</time>
      </trkpt>
      <trkpt lat="47.67584" lon="6.18692">
        <ele>297.4</ele>
        <time>2018-08-29T09:17:38Z</time>
      </trkpt>
      <trkpt lat="47.67579" lon="6.18692">
        <ele>297.17</ele>
        <time>2018-08-29T09:17:41Z</time>
      </trkpt>
      <trkpt lat="47.67572" lon="6.18692">
        <ele>296.93</ele>
        <time>2018-08-29T09:17:44Z</time>
      </trkpt>
      <trkpt lat="47.67568" lon="6.18692">
        <ele>296.78</ele>
        <time>2018-08-29T09:17:46Z</time>
      </trkpt>
      <trkpt lat="47.67562" lon="6.18691">
        <ele>296.62</ele>
        <time>2018-08-29T09:17:48Z</time>
      </trkpt>
      <trkpt lat="47.67556" lon="6.18688">
        <ele>296.46</ele>
        <time>2018-08-29T09:17:50Z</time>
      </trkpt>
      <trkpt lat="47.67551" lon="6.18684">
        <ele>296.31</ele>
        <time>2018-08-29T09:17:52Z</time>
      </trkpt>
      <trkpt lat="47.67546" lon="6.18679">
        <ele>296.15</ele>
        <time>2018-08-29T09:17:54Z</time>
      </trkpt>
      <trkpt lat="47.67542" lon="6.18673">
        <ele>296</ele>
        <time>2018-08-29T09:17:56Z</time>
      </trkpt>
      <trkpt lat="47.67539" lon="6.18667">
        <ele>295.84</ele>
        <time>2018-08-29T09:17:58Z</time>
      </trkpt>
      <trkpt lat="47.67536" lon="6.18661">
        <ele>295.62</ele>
        <time>2018-08-29T09:18:01Z</time>
      </trkpt>
      <trkpt lat="47.67534" lon="6.18653">
        <ele>295.4</ele>
        <time>2018-08-29T09:18:04Z</time>
      </trkpt>
      <trkpt lat="47.67532" lon="6.18646">
        <ele>295.25</ele>
        <time>2018-08-29T09:18:06Z</time>
      </trkpt>
      <trkpt lat="47.6753" lon="6.18638">
        <ele>295.11</ele>
        <time>2018-08-29T09:18:08Z</time>
      </trkpt>
      <trkpt lat="47.67528" lon="6.18631">
        <ele>294.96</ele>
        <time>2018-08-29T09:18:10Z</time>
      </trkpt>
      <trkpt lat="47.67523" lon="6.18624">
        <ele>294.75</ele>
        <time>2018-08-29T09:18:13Z</time>
      </trkpt>
      <trkpt lat="47.67519" lon="6.18621">
        <ele>294.61</ele>
        <time>2018-08-29T09:18:15Z</time>
      </trkpt>
      <trkpt lat="47.67514" lon="6.18618">
        <ele>294.48</ele>
        <time>2018-08-29T09:18:17Z</time>
      </trkpt>
      <trkpt lat="47.67509" lon="6.18616">
        <ele>294.34</ele>
        <time>2018-08-29T09:18:19Z</time>
      </trkpt>
      <trkpt lat="47.67503" lon="6.18615">
        <ele>294.21</ele>
        <time>2018-08-29T09:18:21Z</time>
      </trkpt>
      <trkpt lat="47.67494" lon="6.18615">
        <ele>293.57</ele>
        <time>2018-08-29T09:18:23Z</time>
      </trkpt>
      <trkpt lat="47.67489" lon="6.18615">
        <ele>293.48</ele>
        <time>2018-08-29T09:18:24Z</time>
      </trkpt>
      <trkpt lat="47.67484" lon="6.18615">
        <ele>293.41</ele>
        <time>2018-08-29T09:18:25Z</time>
      </trkpt>
      <trkpt lat="47.67478" lon="6.18615">
        <ele>293.36</ele>
        <time>2018-08-29T09:18:26Z</time>
      </trkpt>
      <trkpt lat="47.67473" lon="6.18615">
        <ele>293.31</ele>
        <time>2018-08-29T09:18:27Z</time>
      </trkpt>
      <trkpt lat="47.67468" lon="6.18615">
        <ele>293.26</ele>
        <time>2018-08-29T09:18:28Z</time>
      </trkpt>
      <trkpt lat="47.67463" lon="6.18615">
        <ele>293.21</ele>
        <time>2018-08-29T09:18:29Z</time>
      </trkpt>
      <trkpt lat="47.67458" lon="6.18615">
        <ele>292.85</ele>
        <time>2018-08-29T09:18:30Z</time>
      </trkpt>
      <trkpt lat="47.67452" lon="6.18615">
        <ele>292.46</ele>
        <time>2018-08-29T09:18:31Z</time>
      </trkpt>
      <trkpt lat="47.67447" lon="6.18614">
        <ele>292.11</ele>
        <time>2018-08-29T09:18:32Z</time>
      </trkpt>
      <trkpt lat="47.6744" lon="6.18613">
        <ele>291.82</ele>
        <time>2018-08-29T09:18:33Z</time>
      </trkpt>
      <trkpt lat="47.67434" lon="6.18612">
        <ele>291.58</ele>
        <time>2018-08-29T09:18:34Z</time>
      </trkpt>
      <trkpt lat="47.67413" lon="6.18615">
        <ele>291.38</ele>
        <time>2018-08-29T09:18:35Z</time>
      </trkpt>
      <trkpt lat="47.67407" lon="6.18617">
        <ele>291.31</ele>
        <time>2018-08-29T09:18:36Z</time>
      </trkpt>
      <trkpt lat="47.67402" lon="6.18619">
        <ele>291.28</ele>
        <time>2018-08-29T09:18:37Z</time>
      </trkpt>
      <trkpt lat="47.67398" lon="6.1862">
        <ele>291.26</ele>
        <time>2018-08-29T09:18:38Z</time>
      </trkpt>
      <trkpt lat="47.67393" lon="6.1862">
        <ele>291.25</ele>
        <time>2018-08-29T09:18:39Z</time>
      </trkpt>
      <trkpt lat="47.67387" lon="6.18621">
        <ele>291.12</ele>
        <time>2018-08-29T09:18:41Z</time>
      </trkpt>
      <trkpt lat="47.67379" lon="6.18622">
        <ele>291.06</ele>
        <time>2018-08-29T09:18:43Z</time>
      </trkpt>
      <trkpt lat="47.67371" lon="6.18623">
        <ele>291.03</ele>
        <time>2018-08-29T09:18:45Z</time>
      </trkpt>
      <trkpt lat="47.67364" lon="6.18624">
        <ele>291.01</ele>
        <time>2018-08-29T09:18:47Z</time>
      </trkpt>
      <trkpt lat="47.67356" lon="6.18625">
        <ele>290.98</ele>
        <time>2018-08-29T09:18:49Z</time>
      </trkpt>
      <trkpt lat="47.67347" lon="6.18625">
        <ele>290.95</ele>
        <time>2018-08-29T09:18:51Z</time>
      </trkpt>
      <trkpt lat="47.67339" lon="6.18627">
        <ele>290.92</ele>
        <time>2018-08-29T09:18:53Z</time>
      </trkpt>
      <trkpt lat="47.67331" lon="6.18629">
        <ele>290.71</ele>
        <time>2018-08-29T09:18:55Z</time>
      </trkpt>
      <trkpt lat="47.67326" lon="6.1863">
        <ele>290.67</ele>
        <time>2018-08-29T09:18:56Z</time>
      </trkpt>
      <trkpt lat="47.67318" lon="6.18631">
        <ele>290.63</ele>
        <time>2018-08-29T09:18:58Z</time>
      </trkpt>
      <trkpt lat="47.6731" lon="6.18633">
        <ele>290.61</ele>
        <time>2018-08-29T09:19:00Z</time>
      </trkpt>
      <trkpt lat="47.67302" lon="6.18633">
        <ele>290.58</ele>
        <time>2018-08-29T09:19:02Z</time>
      </trkpt>
      <trkpt lat="47.67294" lon="6.18633">
        <ele>290.46</ele>
        <time>2018-08-29T09:19:04Z</time>
      </trkpt>
      <trkpt lat="47.67285" lon="6.18634">
        <ele>290.4</ele>
        <time>2018-08-29T09:19:06Z</time>
      </trkpt>
      <trkpt lat="47.67277" lon="6.18635">
        <ele>290.37</ele>
        <time>2018-08-29T09:19:08Z</time>
      </trkpt>
      <trkpt lat="47.67269" lon="6.18636">
        <ele>290.34</ele>
        <time>2018-08-29T09:19:10Z</time>
      </trkpt>
      <trkpt lat="47.67262" lon="6.18636">
        <ele>290.22</ele>
        <time>2018-08-29T09:19:12Z</time>
      </trkpt>
      <trkpt lat="47.67254" lon="6.18636">
        <ele>290.16</ele>
        <time>2018-08-29T09:19:14Z</time>
      </trkpt>
      <trkpt lat="47.67246" lon="6.18636">
        <ele>290.13</ele>
        <time>2018-08-29T09:19:16Z</time>
      </trkpt>
      <trkpt lat="47.67239" lon="6.18635">
        <ele>289.99</ele>
        <time>2018-08-29T09:19:18Z</time>
      </trkpt>
      <trkpt lat="47.67231" lon="6.18633">
        <ele>289.92</ele>
        <time>2018-08-29T09:19:20Z</time>
      </trkpt>
      <trkpt lat="47.67224" lon="6.18633">
        <ele>289.89</ele>
        <time>2018-08-29T09:19:22Z</time>
      </trkpt>
      <trkpt lat="47.67216" lon="6.18632">
        <ele>289.86</ele>
        <time>2018-08-29T09:19:24Z</time>
      </trkpt>
      <trkpt lat="47.67209" lon="6.18631">
        <ele>289.83</ele>
        <time>2018-08-29T09:19:26Z</time>
      </trkpt>
      <trkpt lat="47.67203" lon="6.1863">
        <ele>289.79</ele>
        <time>2018-08-29T09:19:28Z</time>
      </trkpt>
      <trkpt lat="47.67196" lon="6.18629">
        <ele>289.76</ele>
        <time>2018-08-29T09:19:30Z</time>
      </trkpt>
      <trkpt lat="47.67189" lon="6.18626">
        <ele>289.72</ele>
        <time>2018-08-29T09:19:32Z</time>
      </trkpt>
      <trkpt lat="47.67182" lon="6.18624">
        <ele>289.68</ele>
        <time>2018-08-29T09:19:34Z</time>
      </trkpt>
      <trkpt lat="47.67175" lon="6.18622">
        <ele>289.64</ele>
        <time>2018-08-29T09:19:36Z</time>
      </trkpt>
      <trkpt lat="47.67166" lon="6.18621">
        <ele>289.32</ele>
        <time>2018-08-29T09:19:38Z</time>
      </trkpt>
      <trkpt lat="47.67158" lon="6.1862">
        <ele>289.11</ele>
        <time>2018-08-29T09:19:40Z</time>
      </trkpt>
      <trkpt lat="47.6715" lon="6.18619">
        <ele>289.07</ele>
        <time>2018-08-29T09:19:42Z</time>
      </trkpt>
      <trkpt lat="47.67142" lon="6.18618">
        <ele>288.91</ele>
        <time>2018-08-29T09:19:44Z</time>
      </trkpt>
      <trkpt lat="47.67133" lon="6.18618">
        <ele>288.87</ele>
        <time>2018-08-29T09:19:46Z</time>
      </trkpt>
      <trkpt lat="47.67125" lon="6.18618">
        <ele>288.84</ele>
        <time>2018-08-29T09:19:48Z</time>
      </trkpt>
      <trkpt lat="47.67118" lon="6.18618">
        <ele>288.81</ele>
        <time>2018-08-29T09:19:50Z</time>
      </trkpt>
      <trkpt lat="47.67111" lon="6.18618">
        <ele>288.78</ele>
        <time>2018-08-29T09:19:52Z</time>
      </trkpt>
      <trkpt lat="47.67105" lon="6.18618">
        <ele>288.73</ele>
        <time>2018-08-29T09:19:54Z</time>
      </trkpt>
      <trkpt lat="47.67099" lon="6.18618">
        <ele>288.67</ele>
        <time>2018-08-29T09:19:56Z</time>
      </trkpt>
      <trkpt lat="47.67094" lon="6.18617">
        <ele>288.61</ele>
        <time>2018-08-29T09:19:58Z</time>
      </trkpt>
      <trkpt lat="47.67089" lon="6.18617">
        <ele>288.54</ele>
        <time>2018-08-29T09:20:00Z</time>
      </trkpt>
      <trkpt lat="47.67083" lon="6.18617">
        <ele>287.97</ele>
        <time>2018-08-29T09:20:02Z</time>
      </trkpt>
      <trkpt lat="47.67076" lon="6.18616">
        <ele>287.59</ele>
        <time>2018-08-29T09:20:04Z</time>
      </trkpt>
      <trkpt lat="47.67069" lon="6.18615">
        <ele>287.34</ele>
        <time>2018-08-29T09:20:06Z</time>
      </trkpt>
      <trkpt lat="47.67062" lon="6.18614">
        <ele>287.23</ele>
        <time>2018-08-29T09:20:08Z</time>
      </trkpt>
      <trkpt lat="47.67055" lon="6.18613">
        <ele>287.18</ele>
        <time>2018-08-29T09:20:10Z</time>
      </trkpt>
      <trkpt lat="47.67047" lon="6.18612">
        <ele>287.13</ele>
        <time>2018-08-29T09:20:12Z</time>
      </trkpt>
      <trkpt lat="47.67039" lon="6.1861">
        <ele>287.08</ele>
        <time>2018-08-29T09:20:14Z</time>
      </trkpt>
      <trkpt lat="47.67032" lon="6.18609">
        <ele>287.02</ele>
        <time>2018-08-29T09:20:16Z</time>
      </trkpt>
      <trkpt lat="47.67025" lon="6.18608">
        <ele>286.96</ele>
        <time>2018-08-29T09:20:18Z</time>
      </trkpt>
      <trkpt lat="47.67017" lon="6.18607">
        <ele>286.89</ele>
        <time>2018-08-29T09:20:20Z</time>
      </trkpt>
      <trkpt lat="47.6701" lon="6.18605">
        <ele>286.83</ele>
        <time>2018-08-29T09:20:22Z</time>
      </trkpt>
      <trkpt lat="47.67003" lon="6.18604">
        <ele>286.54</ele>
        <time>2018-08-29T09:20:24Z</time>
      </trkpt>
      <trkpt lat="47.66995" lon="6.18601">
        <ele>286.4</ele>
        <time>2018-08-29T09:20:26Z</time>
      </trkpt>
      <trkpt lat="47.66987" lon="6.18599">
        <ele>286.33</ele>
        <time>2018-08-29T09:20:28Z</time>
      </trkpt>
      <trkpt lat="47.6698" lon="6.18596">
        <ele>286.27</ele>
        <time>2018-08-29T09:20:30Z</time>
      </trkpt>
      <trkpt lat="47.66974" lon="6.18594">
        <ele>286.21</ele>
        <time>2018-08-29T09:20:32Z</time>
      </trkpt>
      <trkpt lat="47.66968" lon="6.18592">
        <ele>286.14</ele>
        <time>2018-08-29T09:20:34Z</time>
      </trkpt>
      <trkpt lat="47.66961" lon="6.1859">
        <ele>286.08</ele>
        <time>2018-08-29T09:20:36Z</time>
      </trkpt>
      <trkpt lat="47.66953" lon="6.18588">
        <ele>285.52</ele>
        <time>2018-08-29T09:20:38Z</time>
      </trkpt>
      <trkpt lat="47.66944" lon="6.18586">
        <ele>285</ele>
        <time>2018-08-29T09:20:40Z</time>
      </trkpt>
      <trkpt lat="47.6694" lon="6.18586">
        <ele>284.78</ele>
        <time>2018-08-29T09:20:41Z</time>
      </trkpt>
      <trkpt lat="47.66935" lon="6.18585">
        <ele>284.59</ele>
        <time>2018-08-29T09:20:42Z</time>
      </trkpt>
      <trkpt lat="47.66922" lon="6.18584">
        <ele>284.42</ele>
        <time>2018-08-29T09:20:43Z</time>
      </trkpt>
      <trkpt lat="47.66917" lon="6.18583">
        <ele>284.28</ele>
        <time>2018-08-29T09:20:44Z</time>
      </trkpt>
      <trkpt lat="47.66912" lon="6.18582">
        <ele>284.15</ele>
        <time>2018-08-29T09:20:45Z</time>
      </trkpt>
      <trkpt lat="47.66904" lon="6.1858">
        <ele>284.08</ele>
        <time>2018-08-29T09:20:47Z</time>
      </trkpt>
      <trkpt lat="47.66896" lon="6.18577">
        <ele>284.05</ele>
        <time>2018-08-29T09:20:49Z</time>
      </trkpt>
      <trkpt lat="47.66889" lon="6.18573">
        <ele>283.9</ele>
        <time>2018-08-29T09:20:51Z</time>
      </trkpt>
      <trkpt lat="47.66881" lon="6.18567">
        <ele>283.67</ele>
        <time>2018-08-29T09:20:53Z</time>
      </trkpt>
      <trkpt lat="47.66877" lon="6.18563">
        <ele>283.54</ele>
        <time>2018-08-29T09:20:54Z</time>
      </trkpt>
      <trkpt lat="47.66872" lon="6.18557">
        <ele>283.49</ele>
        <time>2018-08-29T09:20:55Z</time>
      </trkpt>
      <trkpt lat="47.66867" lon="6.18554">
        <ele>283.46</ele>
        <time>2018-08-29T09:20:56Z</time>
      </trkpt>
      <trkpt lat="47.66863" lon="6.18551">
        <ele>283.44</ele>
        <time>2018-08-29T09:20:57Z</time>
      </trkpt>
      <trkpt lat="47.66858" lon="6.18547">
        <ele>283.39</ele>
        <time>2018-08-29T09:20:59Z</time>
      </trkpt>
      <trkpt lat="47.66853" lon="6.18543">
        <ele>283.35</ele>
        <time>2018-08-29T09:21:01Z</time>
      </trkpt>
      <trkpt lat="47.66847" lon="6.18539">
        <ele>283.3</ele>
        <time>2018-08-29T09:21:03Z</time>
      </trkpt>
      <trkpt lat="47.66841" lon="6.18534">
        <ele>283.25</ele>
        <time>2018-08-29T09:21:05Z</time>
      </trkpt>
      <trkpt lat="47.66835" lon="6.1853">
        <ele>283.2</ele>
        <time>2018-08-29T09:21:07Z</time>
      </trkpt>
      <trkpt lat="47.66829" lon="6.18526">
        <ele>283.15</ele>
        <time>2018-08-29T09:21:09Z</time>
      </trkpt>
      <trkpt lat="47.66822" lon="6.18524">
        <ele>283.09</ele>
        <time>2018-08-29T09:21:11Z</time>
      </trkpt>
      <trkpt lat="47.66816" lon="6.18522">
        <ele>283.03</ele>
        <time>2018-08-29T09:21:13Z</time>
      </trkpt>
      <trkpt lat="47.6681" lon="6.1852">
        <ele>282.97</ele>
        <time>2018-08-29T09:21:15Z</time>
      </trkpt>
      <trkpt lat="47.66803" lon="6.18518">
        <ele>282.48</ele>
        <time>2018-08-29T09:21:17Z</time>
      </trkpt>
      <trkpt lat="47.66798" lon="6.18516">
        <ele>282.24</ele>
        <time>2018-08-29T09:21:18Z</time>
      </trkpt>
      <trkpt lat="47.66789" lon="6.18514">
        <ele>281.83</ele>
        <time>2018-08-29T09:21:20Z</time>
      </trkpt>
      <trkpt lat="47.66784" lon="6.18513">
        <ele>281.66</ele>
        <time>2018-08-29T09:21:21Z</time>
      </trkpt>
      <trkpt lat="47.66779" lon="6.18511">
        <ele>281.51</ele>
        <time>2018-08-29T09:21:22Z</time>
      </trkpt>
      <trkpt lat="47.66774" lon="6.1851">
        <ele>281.45</ele>
        <time>2018-08-29T09:21:23Z</time>
      </trkpt>
      <trkpt lat="47.66769" lon="6.18509">
        <ele>281.43</ele>
        <time>2018-08-29T09:21:24Z</time>
      </trkpt>
      <trkpt lat="47.6676" lon="6.18506">
        <ele>281.28</ele>
        <time>2018-08-29T09:21:26Z</time>
      </trkpt>
      <trkpt lat="47.66752" lon="6.18503">
        <ele>281.15</ele>
        <time>2018-08-29T09:21:28Z</time>
      </trkpt>
      <trkpt lat="47.66747" lon="6.18501">
        <ele>281.11</ele>
        <time>2018-08-29T09:21:29Z</time>
      </trkpt>
      <trkpt lat="47.66739" lon="6.18498">
        <ele>281.07</ele>
        <time>2018-08-29T09:21:31Z</time>
      </trkpt>
      <trkpt lat="47.66731" lon="6.18495">
        <ele>281.04</ele>
        <time>2018-08-29T09:21:33Z</time>
      </trkpt>
      <trkpt lat="47.66723" lon="6.1849">
        <ele>281.01</ele>
        <time>2018-08-29T09:21:35Z</time>
      </trkpt>
      <trkpt lat="47.66716" lon="6.18486">
        <ele>280.97</ele>
        <time>2018-08-29T09:21:37Z</time>
      </trkpt>
      <trkpt lat="47.66709" lon="6.18482">
        <ele>280.81</ele>
        <time>2018-08-29T09:21:39Z</time>
      </trkpt>
      <trkpt lat="47.66701" lon="6.18476">
        <ele>280.72</ele>
        <time>2018-08-29T09:21:41Z</time>
      </trkpt>
      <trkpt lat="47.66694" lon="6.18469">
        <ele>280.68</ele>
        <time>2018-08-29T09:21:43Z</time>
      </trkpt>
      <trkpt lat="47.66687" lon="6.18463">
        <ele>280.64</ele>
        <time>2018-08-29T09:21:45Z</time>
      </trkpt>
      <trkpt lat="47.6668" lon="6.18455">
        <ele>280.47</ele>
        <time>2018-08-29T09:21:47Z</time>
      </trkpt>
      <trkpt lat="47.66673" lon="6.18448">
        <ele>280.23</ele>
        <time>2018-08-29T09:21:49Z</time>
      </trkpt>
      <trkpt lat="47.66665" lon="6.18442">
        <ele>280.08</ele>
        <time>2018-08-29T09:21:51Z</time>
      </trkpt>
      <trkpt lat="47.66658" lon="6.18436">
        <ele>280</ele>
        <time>2018-08-29T09:21:53Z</time>
      </trkpt>
      <trkpt lat="47.66651" lon="6.18429">
        <ele>279.97</ele>
        <time>2018-08-29T09:21:55Z</time>
      </trkpt>
      <trkpt lat="47.66644" lon="6.18424">
        <ele>279.93</ele>
        <time>2018-08-29T09:21:57Z</time>
      </trkpt>
      <trkpt lat="47.66638" lon="6.18418">
        <ele>279.89</ele>
        <time>2018-08-29T09:21:59Z</time>
      </trkpt>
      <trkpt lat="47.66631" lon="6.18412">
        <ele>279.73</ele>
        <time>2018-08-29T09:22:01Z</time>
      </trkpt>
      <trkpt lat="47.66624" lon="6.18406">
        <ele>279.64</ele>
        <time>2018-08-29T09:22:03Z</time>
      </trkpt>
      <trkpt lat="47.66617" lon="6.18399">
        <ele>279.37</ele>
        <time>2018-08-29T09:22:05Z</time>
      </trkpt>
      <trkpt lat="47.6661" lon="6.18393">
        <ele>279.29</ele>
        <time>2018-08-29T09:22:07Z</time>
      </trkpt>
      <trkpt lat="47.66604" lon="6.18387">
        <ele>279.26</ele>
        <time>2018-08-29T09:22:09Z</time>
      </trkpt>
      <trkpt lat="47.66595" lon="6.18379">
        <ele>279.15</ele>
        <time>2018-08-29T09:22:10Z</time>
      </trkpt>
      <trkpt lat="47.66588" lon="6.18372">
        <ele>279.09</ele>
        <time>2018-08-29T09:22:12Z</time>
      </trkpt>
      <trkpt lat="47.66583" lon="6.18368">
        <ele>279.05</ele>
        <time>2018-08-29T09:22:14Z</time>
      </trkpt>
      <trkpt lat="47.66579" lon="6.18365">
        <ele>279.01</ele>
        <time>2018-08-29T09:22:16Z</time>
      </trkpt>
      <trkpt lat="47.66574" lon="6.18361">
        <ele>278.97</ele>
        <time>2018-08-29T09:22:18Z</time>
      </trkpt>
      <trkpt lat="47.66567" lon="6.18356">
        <ele>278.91</ele>
        <time>2018-08-29T09:22:20Z</time>
      </trkpt>
      <trkpt lat="47.66554" lon="6.18344">
        <ele>278.42</ele>
        <time>2018-08-29T09:22:22Z</time>
      </trkpt>
      <trkpt lat="47.6655" lon="6.18339">
        <ele>278.33</ele>
        <time>2018-08-29T09:22:23Z</time>
      </trkpt>
      <trkpt lat="47.66543" lon="6.18331">
        <ele>277.92</ele>
        <time>2018-08-29T09:22:25Z</time>
      </trkpt>
      <trkpt lat="47.66537" lon="6.18325">
        <ele>277.82</ele>
        <time>2018-08-29T09:22:27Z</time>
      </trkpt>
      <trkpt lat="47.66532" lon="6.18318">
        <ele>277.77</ele>
        <time>2018-08-29T09:22:29Z</time>
      </trkpt>
      <trkpt lat="47.66528" lon="6.18313">
        <ele>277.72</ele>
        <time>2018-08-29T09:22:31Z</time>
      </trkpt>
      <trkpt lat="47.66523" lon="6.18308">
        <ele>277.49</ele>
        <time>2018-08-29T09:22:33Z</time>
      </trkpt>
      <trkpt lat="47.66513" lon="6.18295">
        <ele>277.05</ele>
        <time>2018-08-29T09:22:35Z</time>
      </trkpt>
      <trkpt lat="47.66507" lon="6.18287">
        <ele>276.7</ele>
        <time>2018-08-29T09:22:37Z</time>
      </trkpt>
      <trkpt lat="47.66501" lon="6.18279">
        <ele>276.62</ele>
        <time>2018-08-29T09:22:39Z</time>
      </trkpt>
      <trkpt lat="47.66498" lon="6.18273">
        <ele>276.58</ele>
        <time>2018-08-29T09:22:41Z</time>
      </trkpt>
      <trkpt lat="47.66495" lon="6.18268">
        <ele>276.54</ele>
        <time>2018-08-29T09:22:43Z</time>
      </trkpt>
      <trkpt lat="47.6649" lon="6.18261">
        <ele>276.49</ele>
        <time>2018-08-29T09:22:45Z</time>
      </trkpt>
      <trkpt lat="47.66486" lon="6.18254">
        <ele>276.44</ele>
        <time>2018-08-29T09:22:47Z</time>
      </trkpt>
      <trkpt lat="47.66481" lon="6.18247">
        <ele>276.39</ele>
        <time>2018-08-29T09:22:49Z</time>
      </trkpt>
      <trkpt lat="47.66477" lon="6.18238">
        <ele>275.91</ele>
        <time>2018-08-29T09:22:51Z</time>
      </trkpt>
      <trkpt lat="47.66472" lon="6.18229">
        <ele>275.77</ele>
        <time>2018-08-29T09:22:53Z</time>
      </trkpt>
      <trkpt lat="47.66468" lon="6.1822">
        <ele>275.71</ele>
        <time>2018-08-29T09:22:55Z</time>
      </trkpt>
      <trkpt lat="47.66464" lon="6.1821">
        <ele>275.65</ele>
        <time>2018-08-29T09:22:57Z</time>
      </trkpt>
      <trkpt lat="47.6646" lon="6.18201">
        <ele>275.58</ele>
        <time>2018-08-29T09:22:59Z</time>
      </trkpt>
      <trkpt lat="47.66456" lon="6.18191">
        <ele>275.51</ele>
        <time>2018-08-29T09:23:01Z</time>
      </trkpt>
      <trkpt lat="47.66451" lon="6.18182">
        <ele>275.43</ele>
        <time>2018-08-29T09:23:03Z</time>
      </trkpt>
      <trkpt lat="47.66446" lon="6.18173">
        <ele>275.35</ele>
        <time>2018-08-29T09:23:05Z</time>
      </trkpt>
      <trkpt lat="47.6644" lon="6.18165">
        <ele>275.27</ele>
        <time>2018-08-29T09:23:07Z</time>
      </trkpt>
      <trkpt lat="47.66434" lon="6.18156">
        <ele>274.61</ele>
        <time>2018-08-29T09:23:09Z</time>
      </trkpt>
      <trkpt lat="47.6643" lon="6.18151">
        <ele>274.49</ele>
        <time>2018-08-29T09:23:10Z</time>
      </trkpt>
      <trkpt lat="47.66426" lon="6.18147">
        <ele>274.22</ele>
        <time>2018-08-29T09:23:11Z</time>
      </trkpt>
      <trkpt lat="47.66422" lon="6.18143">
        <ele>273.96</ele>
        <time>2018-08-29T09:23:12Z</time>
      </trkpt>
      <trkpt lat="47.66419" lon="6.18138">
        <ele>273.72</ele>
        <time>2018-08-29T09:23:13Z</time>
      </trkpt>
      <trkpt lat="47.66415" lon="6.18134">
        <ele>273.51</ele>
        <time>2018-08-29T09:23:14Z</time>
      </trkpt>
      <trkpt lat="47.66405" lon="6.18117">
        <ele>273.25</ele>
        <time>2018-08-29T09:23:15Z</time>
      </trkpt>
      <trkpt lat="47.66401" lon="6.18111">
        <ele>273.16</ele>
        <time>2018-08-29T09:23:16Z</time>
      </trkpt>
      <trkpt lat="47.66397" lon="6.18106">
        <ele>273.1</ele>
        <time>2018-08-29T09:23:17Z</time>
      </trkpt>
      <trkpt lat="47.66391" lon="6.18098">
        <ele>272.99</ele>
        <time>2018-08-29T09:23:19Z</time>
      </trkpt>
      <trkpt lat="47.66388" lon="6.18093">
        <ele>272.87</ele>
        <time>2018-08-29T09:23:21Z</time>
      </trkpt>
      <trkpt lat="47.66384" lon="6.18087">
        <ele>272.72</ele>
        <time>2018-08-29T09:23:23Z</time>
      </trkpt>
      <trkpt lat="47.66375" lon="6.18074">
        <ele>271.99</ele>
        <time>2018-08-29T09:23:25Z</time>
      </trkpt>
      <trkpt lat="47.66371" lon="6.18067">
        <ele>271.61</ele>
        <time>2018-08-29T09:23:27Z</time>
      </trkpt>
      <trkpt lat="47.66368" lon="6.18061">
        <ele>271.42</ele>
        <time>2018-08-29T09:23:29Z</time>
      </trkpt>
      <trkpt lat="47.66363" lon="6.18053">
        <ele>271.22</ele>
        <time>2018-08-29T09:23:31Z</time>
      </trkpt>
      <trkpt lat="47.66359" lon="6.18046">
        <ele>270.99</ele>
        <time>2018-08-29T09:23:33Z</time>
      </trkpt>
      <trkpt lat="47.66356" lon="6.18038">
        <ele>270.76</ele>
        <time>2018-08-29T09:23:35Z</time>
      </trkpt>
      <trkpt lat="47.66353" lon="6.1803">
        <ele>270.51</ele>
        <time>2018-08-29T09:23:37Z</time>
      </trkpt>
      <trkpt lat="47.6635" lon="6.18021">
        <ele>270.25</ele>
        <time>2018-08-29T09:23:39Z</time>
      </trkpt>
      <trkpt lat="47.66347" lon="6.18012">
        <ele>269.98</ele>
        <time>2018-08-29T09:23:41Z</time>
      </trkpt>
      <trkpt lat="47.66341" lon="6.17994">
        <ele>269.7</ele>
        <time>2018-08-29T09:23:43Z</time>
      </trkpt>
      <trkpt lat="47.66339" lon="6.17985">
        <ele>269.25</ele>
        <time>2018-08-29T09:23:46Z</time>
      </trkpt>
      <trkpt lat="47.66335" lon="6.17977">
        <ele>268.94</ele>
        <time>2018-08-29T09:23:48Z</time>
      </trkpt>
      <trkpt lat="47.6633" lon="6.1797">
        <ele>268.62</ele>
        <time>2018-08-29T09:23:50Z</time>
      </trkpt>
      <trkpt lat="47.66326" lon="6.17967">
        <ele>268.46</ele>
        <time>2018-08-29T09:23:51Z</time>
      </trkpt>
      <trkpt lat="47.66318" lon="6.17966">
        <ele>268.14</ele>
        <time>2018-08-29T09:23:53Z</time>
      </trkpt>
      <trkpt lat="47.6631" lon="6.17966">
        <ele>267.83</ele>
        <time>2018-08-29T09:23:55Z</time>
      </trkpt>
      <trkpt lat="47.66302" lon="6.17966">
        <ele>267.51</ele>
        <time>2018-08-29T09:23:57Z</time>
      </trkpt>
      <trkpt lat="47.66295" lon="6.17966">
        <ele>267.2</ele>
        <time>2018-08-29T09:23:59Z</time>
      </trkpt>
      <trkpt lat="47.66288" lon="6.17966">
        <ele>266.89</ele>
        <time>2018-08-29T09:24:01Z</time>
      </trkpt>
      <trkpt lat="47.66282" lon="6.17965">
        <ele>266.59</ele>
        <time>2018-08-29T09:24:03Z</time>
      </trkpt>
      <trkpt lat="47.66276" lon="6.17965">
        <ele>266.29</ele>
        <time>2018-08-29T09:24:05Z</time>
      </trkpt>
      <trkpt lat="47.6627" lon="6.17964">
        <ele>266</ele>
        <time>2018-08-29T09:24:07Z</time>
      </trkpt>
      <trkpt lat="47.66266" lon="6.17964">
        <ele>265.71</ele>
        <time>2018-08-29T09:24:09Z</time>
      </trkpt>
      <trkpt lat="47.66261" lon="6.17963">
        <ele>265.43</ele>
        <time>2018-08-29T09:24:11Z</time>
      </trkpt>
      <trkpt lat="47.66256" lon="6.17963">
        <ele>265.15</ele>
        <time>2018-08-29T09:24:13Z</time>
      </trkpt>
      <trkpt lat="47.66251" lon="6.17963">
        <ele>264.87</ele>
        <time>2018-08-29T09:24:15Z</time>
      </trkpt>
      <trkpt lat="47.66246" lon="6.17962">
        <ele>264.6</ele>
        <time>2018-08-29T09:24:17Z</time>
      </trkpt>
      <trkpt lat="47.66241" lon="6.17961">
        <ele>264.33</ele>
        <time>2018-08-29T09:24:19Z</time>
      </trkpt>
      <trkpt lat="47.66236" lon="6.1796">
        <ele>264.07</ele>
        <time>2018-08-29T09:24:21Z</time>
      </trkpt>
      <trkpt lat="47.6623" lon="6.17959">
        <ele>263.81</ele>
        <time>2018-08-29T09:24:23Z</time>
      </trkpt>
      <trkpt lat="47.66225" lon="6.17958">
        <ele>263.55</ele>
        <time>2018-08-29T09:24:25Z</time>
      </trkpt>
      <trkpt lat="47.6622" lon="6.17957">
        <ele>263.29</ele>
        <time>2018-08-29T09:24:27Z</time>
      </trkpt>
      <trkpt lat="47.66214" lon="6.17955">
        <ele>263.05</ele>
        <time>2018-08-29T09:24:29Z</time>
      </trkpt>
      <trkpt lat="47.66209" lon="6.17954">
        <ele>262.81</ele>
        <time>2018-08-29T09:24:31Z</time>
      </trkpt>
      <trkpt lat="47.66204" lon="6.17953">
        <ele>262.57</ele>
        <time>2018-08-29T09:24:33Z</time>
      </trkpt>
      <trkpt lat="47.66199" lon="6.17952">
        <ele>262.34</ele>
        <time>2018-08-29T09:24:35Z</time>
      </trkpt>
      <trkpt lat="47.66194" lon="6.17951">
        <ele>262.12</ele>
        <time>2018-08-29T09:24:37Z</time>
      </trkpt>
      <trkpt lat="47.6619" lon="6.1795">
        <ele>261.9</ele>
        <time>2018-08-29T09:24:39Z</time>
      </trkpt>
      <trkpt lat="47.66185" lon="6.17949">
        <ele>261.68</ele>
        <time>2018-08-29T09:24:41Z</time>
      </trkpt>
      <trkpt lat="47.6618" lon="6.17948">
        <ele>261.47</ele>
        <time>2018-08-29T09:24:43Z</time>
      </trkpt>
      <trkpt lat="47.66174" lon="6.17947">
        <ele>261.26</ele>
        <time>2018-08-29T09:24:45Z</time>
      </trkpt>
      <trkpt lat="47.66167" lon="6.17946">
        <ele>261.06</ele>
        <time>2018-08-29T09:24:47Z</time>
      </trkpt>
      <trkpt lat="47.6616" lon="6.17945">
        <ele>260.85</ele>
        <time>2018-08-29T09:24:49Z</time>
      </trkpt>
      <trkpt lat="47.66146" lon="6.17946">
        <ele>260</ele>
        <time>2018-08-29T09:24:51Z</time>
      </trkpt>
      <trkpt lat="47.66138" lon="6.17946">
        <ele>258.45</ele>
        <time>2018-08-29T09:24:53Z</time>
      </trkpt>
      <trkpt lat="47.66129" lon="6.17946">
        <ele>257.3</ele>
        <time>2018-08-29T09:24:55Z</time>
      </trkpt>
      <trkpt lat="47.66124" lon="6.17946">
        <ele>256.87</ele>
        <time>2018-08-29T09:24:56Z</time>
      </trkpt>
      <trkpt lat="47.6612" lon="6.17947">
        <ele>256.49</ele>
        <time>2018-08-29T09:24:57Z</time>
      </trkpt>
      <trkpt lat="47.66115" lon="6.17947">
        <ele>256.14</ele>
        <time>2018-08-29T09:24:58Z</time>
      </trkpt>
      <trkpt lat="47.6611" lon="6.17947">
        <ele>255.84</ele>
        <time>2018-08-29T09:24:59Z</time>
      </trkpt>
      <trkpt lat="47.66105" lon="6.17947">
        <ele>255.57</ele>
        <time>2018-08-29T09:25:00Z</time>
      </trkpt>
      <trkpt lat="47.661" lon="6.17948">
        <ele>255.33</ele>
        <time>2018-08-29T09:25:01Z</time>
      </trkpt>
      <trkpt lat="47.66095" lon="6.17948">
        <ele>255.11</ele>
        <time>2018-08-29T09:25:02Z</time>
      </trkpt>
      <trkpt lat="47.66089" lon="6.17948">
        <ele>254.9</ele>
        <time>2018-08-29T09:25:03Z</time>
      </trkpt>
      <trkpt lat="47.66084" lon="6.17947">
        <ele>254.71</ele>
        <time>2018-08-29T09:25:04Z</time>
      </trkpt>
      <trkpt lat="47.66079" lon="6.17947">
        <ele>254.52</ele>
        <time>2018-08-29T09:25:05Z</time>
      </trkpt>
      <trkpt lat="47.66074" lon="6.17947">
        <ele>254.33</ele>
        <time>2018-08-29T09:25:06Z</time>
      </trkpt>
      <trkpt lat="47.66069" lon="6.17947">
        <ele>254.16</ele>
        <time>2018-08-29T09:25:07Z</time>
      </trkpt>
      <trkpt lat="47.66064" lon="6.17947">
        <ele>253.99</ele>
        <time>2018-08-29T09:25:08Z</time>
      </trkpt>
      <trkpt lat="47.66059" lon="6.17947">
        <ele>253.83</ele>
        <time>2018-08-29T09:25:09Z</time>
      </trkpt>
      <trkpt lat="47.66053" lon="6.17947">
        <ele>253.68</ele>
        <time>2018-08-29T09:25:10Z</time>
      </trkpt>
      <trkpt lat="47.66048" lon="6.17947">
        <ele>253.54</ele>
        <time>2018-08-29T09:25:11Z</time>
      </trkpt>
      <trkpt lat="47.66043" lon="6.17947">
        <ele>253.4</ele>
        <time>2018-08-29T09:25:12Z</time>
      </trkpt>
      <trkpt lat="47.66038" lon="6.17946">
        <ele>253.29</ele>
        <time>2018-08-29T09:25:13Z</time>
      </trkpt>
      <trkpt lat="47.66029" lon="6.17946">
        <ele>253.11</ele>
        <time>2018-08-29T09:25:15Z</time>
      </trkpt>
      <trkpt lat="47.66021" lon="6.17946">
        <ele>252.94</ele>
        <time>2018-08-29T09:25:17Z</time>
      </trkpt>
      <trkpt lat="47.66012" lon="6.17946">
        <ele>252.75</ele>
        <time>2018-08-29T09:25:19Z</time>
      </trkpt>
      <trkpt lat="47.66005" lon="6.17946">
        <ele>252.63</ele>
        <time>2018-08-29T09:25:21Z</time>
      </trkpt>
      <trkpt lat="47.65997" lon="6.17945">
        <ele>252.59</ele>
        <time>2018-08-29T09:25:23Z</time>
      </trkpt>
      <trkpt lat="47.6599" lon="6.17945">
        <ele>252.57</ele>
        <time>2018-08-29T09:25:25Z</time>
      </trkpt>
      <trkpt lat="47.65983" lon="6.17945">
        <ele>252.55</ele>
        <time>2018-08-29T09:25:27Z</time>
      </trkpt>
      <trkpt lat="47.65977" lon="6.17944">
        <ele>252.53</ele>
        <time>2018-08-29T09:25:29Z</time>
      </trkpt>
      <trkpt lat="47.6597" lon="6.17944">
        <ele>252.48</ele>
        <time>2018-08-29T09:25:32Z</time>
      </trkpt>
      <trkpt lat="47.65964" lon="6.17944">
        <ele>252.43</ele>
        <time>2018-08-29T09:25:35Z</time>
      </trkpt>
      <trkpt lat="47.65958" lon="6.17944">
        <ele>252.39</ele>
        <time>2018-08-29T09:25:37Z</time>
      </trkpt>
      <trkpt lat="47.65953" lon="6.17944">
        <ele>252.35</ele>
        <time>2018-08-29T09:25:39Z</time>
      </trkpt>
      <trkpt lat="47.65948" lon="6.17944">
        <ele>252.31</ele>
        <time>2018-08-29T09:25:41Z</time>
      </trkpt>
      <trkpt lat="47.65943" lon="6.17944">
        <ele>252.26</ele>
        <time>2018-08-29T09:25:43Z</time>
      </trkpt>
      <trkpt lat="47.65938" lon="6.17944">
        <ele>252.21</ele>
        <time>2018-08-29T09:25:45Z</time>
      </trkpt>
      <trkpt lat="47.65933" lon="6.17944">
        <ele>252.16</ele>
        <time>2018-08-29T09:25:47Z</time>
      </trkpt>
      <trkpt lat="47.65927" lon="6.17946">
        <ele>252.08</ele>
        <time>2018-08-29T09:25:50Z</time>
      </trkpt>
      <trkpt lat="47.65921" lon="6.17946">
        <ele>251.99</ele>
        <time>2018-08-29T09:25:53Z</time>
      </trkpt>
      <trkpt lat="47.65914" lon="6.17946">
        <ele>251.9</ele>
        <time>2018-08-29T09:25:56Z</time>
      </trkpt>
      <trkpt lat="47.65908" lon="6.17947">
        <ele>251.82</ele>
        <time>2018-08-29T09:25:59Z</time>
      </trkpt>
      <trkpt lat="47.65903" lon="6.17947">
        <ele>251.73</ele>
        <time>2018-08-29T09:26:02Z</time>
      </trkpt>
      <trkpt lat="47.65897" lon="6.17948">
        <ele>251.64</ele>
        <time>2018-08-29T09:26:05Z</time>
      </trkpt>
      <trkpt lat="47.65892" lon="6.17949">
        <ele>251.59</ele>
        <time>2018-08-29T09:26:07Z</time>
      </trkpt>
      <trkpt lat="47.65887" lon="6.1795">
        <ele>251.53</ele>
        <time>2018-08-29T09:26:09Z</time>
      </trkpt>
      <trkpt lat="47.65883" lon="6.17952">
        <ele>251.47</ele>
        <time>2018-08-29T09:26:11Z</time>
      </trkpt>
      <trkpt lat="47.65878" lon="6.17953">
        <ele>251.41</ele>
        <time>2018-08-29T09:26:13Z</time>
      </trkpt>
      <trkpt lat="47.65873" lon="6.17954">
        <ele>251.35</ele>
        <time>2018-08-29T09:26:15Z</time>
      </trkpt>
      <trkpt lat="47.65869" lon="6.17955">
        <ele>251.29</ele>
        <time>2018-08-29T09:26:17Z</time>
      </trkpt>
      <trkpt lat="47.65864" lon="6.17956">
        <ele>251.23</ele>
        <time>2018-08-29T09:26:19Z</time>
      </trkpt>
      <trkpt lat="47.65859" lon="6.17958">
        <ele>251.17</ele>
        <time>2018-08-29T09:26:21Z</time>
      </trkpt>
      <trkpt lat="47.65855" lon="6.1796">
        <ele>251.12</ele>
        <time>2018-08-29T09:26:23Z</time>
      </trkpt>
      <trkpt lat="47.65849" lon="6.17964">
        <ele>251.03</ele>
        <time>2018-08-29T09:26:26Z</time>
      </trkpt>
      <trkpt lat="47.65844" lon="6.17967">
        <ele>250.98</ele>
        <time>2018-08-29T09:26:28Z</time>
      </trkpt>
      <trkpt lat="47.6584" lon="6.1797">
        <ele>250.92</ele>
        <time>2018-08-29T09:26:30Z</time>
      </trkpt>
      <trkpt lat="47.65836" lon="6.17973">
        <ele>250.87</ele>
        <time>2018-08-29T09:26:32Z</time>
      </trkpt>
      <trkpt lat="47.65831" lon="6.17977">
        <ele>250.82</ele>
        <time>2018-08-29T09:26:34Z</time>
      </trkpt>
      <trkpt lat="47.65825" lon="6.17981">
        <ele>250.75</ele>
        <time>2018-08-29T09:26:37Z</time>
      </trkpt>
      <trkpt lat="47.6582" lon="6.17986">
        <ele>250.68</ele>
        <time>2018-08-29T09:26:40Z</time>
      </trkpt>
      <trkpt lat="47.65814" lon="6.17989">
        <ele>250.62</ele>
        <time>2018-08-29T09:26:43Z</time>
      </trkpt>
      <trkpt lat="47.6581" lon="6.17991">
        <ele>250.58</ele>
        <time>2018-08-29T09:26:45Z</time>
      </trkpt>
      <trkpt lat="47.65806" lon="6.17994">
        <ele>250.54</ele>
        <time>2018-08-29T09:26:47Z</time>
      </trkpt>
      <trkpt lat="47.65801" lon="6.17998">
        <ele>250.5</ele>
        <time>2018-08-29T09:26:49Z</time>
      </trkpt>
      <trkpt lat="47.65797" lon="6.18001">
        <ele>250.46</ele>
        <time>2018-08-29T09:26:51Z</time>
      </trkpt>
      <trkpt lat="47.65793" lon="6.18005">
        <ele>250.43</ele>
        <time>2018-08-29T09:26:53Z</time>
      </trkpt>
      <trkpt lat="47.65788" lon="6.1801">
        <ele>250.38</ele>
        <time>2018-08-29T09:26:56Z</time>
      </trkpt>
      <trkpt lat="47.65782" lon="6.18016">
        <ele>250.33</ele>
        <time>2018-08-29T09:26:59Z</time>
      </trkpt>
      <trkpt lat="47.65777" lon="6.1802">
        <ele>250.3</ele>
        <time>2018-08-29T09:27:01Z</time>
      </trkpt>
      <trkpt lat="47.65771" lon="6.18025">
        <ele>250.09</ele>
        <time>2018-08-29T09:27:03Z</time>
      </trkpt>
      <trkpt lat="47.65764" lon="6.18029">
        <ele>249.9</ele>
        <time>2018-08-29T09:27:05Z</time>
      </trkpt>
      <trkpt lat="47.65759" lon="6.18032">
        <ele>249.84</ele>
        <time>2018-08-29T09:27:06Z</time>
      </trkpt>
      <trkpt lat="47.65755" lon="6.18034">
        <ele>249.78</ele>
        <time>2018-08-29T09:27:07Z</time>
      </trkpt>
      <trkpt lat="47.6575" lon="6.18037">
        <ele>249.73</ele>
        <time>2018-08-29T09:27:08Z</time>
      </trkpt>
      <trkpt lat="47.65735" lon="6.18046">
        <ele>249.69</ele>
        <time>2018-08-29T09:27:09Z</time>
      </trkpt>
      <trkpt lat="47.65729" lon="6.1805">
        <ele>249.65</ele>
        <time>2018-08-29T09:27:10Z</time>
      </trkpt>
      <trkpt lat="47.65723" lon="6.18055">
        <ele>249.63</ele>
        <time>2018-08-29T09:27:11Z</time>
      </trkpt>
      <trkpt lat="47.65717" lon="6.18059">
        <ele>249.62</ele>
        <time>2018-08-29T09:27:12Z</time>
      </trkpt>
      <trkpt lat="47.65711" lon="6.18064">
        <ele>249.61</ele>
        <time>2018-08-29T09:27:13Z</time>
      </trkpt>
      <trkpt lat="47.65706" lon="6.1807">
        <ele>249.6</ele>
        <time>2018-08-29T09:27:14Z</time>
      </trkpt>
      <trkpt lat="47.65702" lon="6.18077">
        <ele>249.6</ele>
        <time>2018-08-29T09:27:15Z</time>
      </trkpt>
      <trkpt lat="47.65697" lon="6.18085">
        <ele>249.58</ele>
        <time>2018-08-29T09:27:16Z</time>
      </trkpt>
      <trkpt lat="47.65692" lon="6.18094">
        <ele>249.57</ele>
        <time>2018-08-29T09:27:17Z</time>
      </trkpt>
      <trkpt lat="47.65688" lon="6.18103">
        <ele>249.54</ele>
        <time>2018-08-29T09:27:18Z</time>
      </trkpt>
      <trkpt lat="47.65683" lon="6.18112">
        <ele>249.52</ele>
        <time>2018-08-29T09:27:19Z</time>
      </trkpt>
      <trkpt lat="47.65679" lon="6.1812">
        <ele>249.51</ele>
        <time>2018-08-29T09:27:20Z</time>
      </trkpt>
      <trkpt lat="47.65675" lon="6.18127">
        <ele>249.57</ele>
        <time>2018-08-29T09:27:21Z</time>
      </trkpt>
      <trkpt lat="47.65671" lon="6.18134">
        <ele>249.64</ele>
        <time>2018-08-29T09:27:22Z</time>
      </trkpt>
      <trkpt lat="47.65667" lon="6.18139">
        <ele>249.64</ele>
        <time>2018-08-29T09:27:23Z</time>
      </trkpt>
      <trkpt lat="47.65662" lon="6.18144">
        <ele>249.59</ele>
        <time>2018-08-29T09:27:24Z</time>
      </trkpt>
      <trkpt lat="47.65657" lon="6.18148">
        <ele>249.48</ele>
        <time>2018-08-29T09:27:25Z</time>
      </trkpt>
      <trkpt lat="47.65653" lon="6.18153">
        <ele>249.37</ele>
        <time>2018-08-29T09:27:26Z</time>
      </trkpt>
      <trkpt lat="47.65648" lon="6.18157">
        <ele>249.26</ele>
        <time>2018-08-29T09:27:27Z</time>
      </trkpt>
      <trkpt lat="47.65643" lon="6.18162">
        <ele>249.22</ele>
        <time>2018-08-29T09:27:28Z</time>
      </trkpt>
      <trkpt lat="47.65638" lon="6.18166">
        <ele>249.19</ele>
        <time>2018-08-29T09:27:29Z</time>
      </trkpt>
      <trkpt lat="47.65632" lon="6.18168">
        <ele>249.06</ele>
        <time>2018-08-29T09:27:30Z</time>
      </trkpt>
      <trkpt lat="47.65624" lon="6.18168">
        <ele>248.88</ele>
        <time>2018-08-29T09:27:31Z</time>
      </trkpt>
      <trkpt lat="47.65615" lon="6.18167">
        <ele>248.69</ele>
        <time>2018-08-29T09:27:32Z</time>
      </trkpt>
      <trkpt lat="47.65608" lon="6.18168">
        <ele>248.49</ele>
        <time>2018-08-29T09:27:33Z</time>
      </trkpt>
      <trkpt lat="47.65601" lon="6.18172">
        <ele>248.24</ele>
        <time>2018-08-29T09:27:34Z</time>
      </trkpt>
      <trkpt lat="47.65596" lon="6.18178">
        <ele>248.03</ele>
        <time>2018-08-29T09:27:35Z</time>
      </trkpt>
      <trkpt lat="47.65592" lon="6.18183">
        <ele>247.81</ele>
        <time>2018-08-29T09:27:36Z</time>
      </trkpt>
      <trkpt lat="47.65586" lon="6.18192">
        <ele>247.26</ele>
        <time>2018-08-29T09:27:38Z</time>
      </trkpt>
      <trkpt lat="47.6558" lon="6.18202">
        <ele>246.56</ele>
        <time>2018-08-29T09:27:40Z</time>
      </trkpt>
      <trkpt lat="47.65576" lon="6.18206">
        <ele>246.43</ele>
        <time>2018-08-29T09:27:41Z</time>
      </trkpt>
      <trkpt lat="47.65572" lon="6.18211">
        <ele>246.39</ele>
        <time>2018-08-29T09:27:42Z</time>
      </trkpt>
      <trkpt lat="47.65565" lon="6.1822">
        <ele>246.47</ele>
        <time>2018-08-29T09:27:44Z</time>
      </trkpt>
      <trkpt lat="47.65561" lon="6.18224">
        <ele>246.54</ele>
        <time>2018-08-29T09:27:46Z</time>
      </trkpt>
      <trkpt lat="47.65555" lon="6.18228">
        <ele>246.83</ele>
        <time>2018-08-29T09:27:47Z</time>
      </trkpt>
      <trkpt lat="47.65548" lon="6.18233">
        <ele>247.47</ele>
        <time>2018-08-29T09:27:49Z</time>
      </trkpt>
      <trkpt lat="47.65543" lon="6.18236">
        <ele>247.75</ele>
        <time>2018-08-29T09:27:50Z</time>
      </trkpt>
      <trkpt lat="47.65537" lon="6.18238">
        <ele>247.92</ele>
        <time>2018-08-29T09:27:51Z</time>
      </trkpt>
      <trkpt lat="47.65531" lon="6.1824">
        <ele>248</ele>
        <time>2018-08-29T09:27:52Z</time>
      </trkpt>
      <trkpt lat="47.65525" lon="6.18244">
        <ele>248.05</ele>
        <time>2018-08-29T09:27:53Z</time>
      </trkpt>
      <trkpt lat="47.65519" lon="6.18246">
        <ele>247.98</ele>
        <time>2018-08-29T09:27:54Z</time>
      </trkpt>
      <trkpt lat="47.65512" lon="6.18249">
        <ele>247.89</ele>
        <time>2018-08-29T09:27:55Z</time>
      </trkpt>
      <trkpt lat="47.65506" lon="6.18252">
        <ele>247.8</ele>
        <time>2018-08-29T09:27:56Z</time>
      </trkpt>
      <trkpt lat="47.65499" lon="6.18255">
        <ele>247.7</ele>
        <time>2018-08-29T09:27:57Z</time>
      </trkpt>
      <trkpt lat="47.65493" lon="6.18257">
        <ele>247.63</ele>
        <time>2018-08-29T09:27:58Z</time>
      </trkpt>
      <trkpt lat="47.65487" lon="6.1826">
        <ele>247.51</ele>
        <time>2018-08-29T09:27:59Z</time>
      </trkpt>
      <trkpt lat="47.6548" lon="6.18261">
        <ele>247.42</ele>
        <time>2018-08-29T09:28:00Z</time>
      </trkpt>
      <trkpt lat="47.65473" lon="6.18262">
        <ele>247.29</ele>
        <time>2018-08-29T09:28:01Z</time>
      </trkpt>
      <trkpt lat="47.65466" lon="6.18261">
        <ele>247.14</ele>
        <time>2018-08-29T09:28:02Z</time>
      </trkpt>
      <trkpt lat="47.65458" lon="6.18261">
        <ele>246.99</ele>
        <time>2018-08-29T09:28:03Z</time>
      </trkpt>
      <trkpt lat="47.6545" lon="6.1826">
        <ele>246.78</ele>
        <time>2018-08-29T09:28:04Z</time>
      </trkpt>
      <trkpt lat="47.65441" lon="6.18259">
        <ele>246.54</ele>
        <time>2018-08-29T09:28:05Z</time>
      </trkpt>
      <trkpt lat="47.65433" lon="6.18256">
        <ele>246.27</ele>
        <time>2018-08-29T09:28:06Z</time>
      </trkpt>
      <trkpt lat="47.65424" lon="6.18252">
        <ele>245.99</ele>
        <time>2018-08-29T09:28:07Z</time>
      </trkpt>
      <trkpt lat="47.65416" lon="6.18247">
        <ele>245.66</ele>
        <time>2018-08-29T09:28:08Z</time>
      </trkpt>
      <trkpt lat="47.65407" lon="6.18242">
        <ele>245.39</ele>
        <time>2018-08-29T09:28:09Z</time>
      </trkpt>
      <trkpt lat="47.65399" lon="6.18236">
        <ele>245.28</ele>
        <time>2018-08-29T09:28:10Z</time>
      </trkpt>
      <trkpt lat="47.65391" lon="6.1823">
        <ele>245.23</ele>
        <time>2018-08-29T09:28:11Z</time>
      </trkpt>
      <trkpt lat="47.65384" lon="6.18224">
        <ele>245.17</ele>
        <time>2018-08-29T09:28:12Z</time>
      </trkpt>
      <trkpt lat="47.65377" lon="6.18219">
        <ele>245.08</ele>
        <time>2018-08-29T09:28:13Z</time>
      </trkpt>
      <trkpt lat="47.6537" lon="6.18212">
        <ele>244.94</ele>
        <time>2018-08-29T09:28:14Z</time>
      </trkpt>
      <trkpt lat="47.65363" lon="6.18206">
        <ele>244.72</ele>
        <time>2018-08-29T09:28:15Z</time>
      </trkpt>
      <trkpt lat="47.65356" lon="6.18199">
        <ele>244.54</ele>
        <time>2018-08-29T09:28:16Z</time>
      </trkpt>
      <trkpt lat="47.6535" lon="6.18191">
        <ele>244.41</ele>
        <time>2018-08-29T09:28:17Z</time>
      </trkpt>
      <trkpt lat="47.65344" lon="6.18184">
        <ele>244.28</ele>
        <time>2018-08-29T09:28:18Z</time>
      </trkpt>
      <trkpt lat="47.65338" lon="6.18176">
        <ele>244.11</ele>
        <time>2018-08-29T09:28:19Z</time>
      </trkpt>
      <trkpt lat="47.65332" lon="6.18169">
        <ele>244</ele>
        <time>2018-08-29T09:28:20Z</time>
      </trkpt>
      <trkpt lat="47.65327" lon="6.18161">
        <ele>243.91</ele>
        <time>2018-08-29T09:28:21Z</time>
      </trkpt>
      <trkpt lat="47.65323" lon="6.18152">
        <ele>243.82</ele>
        <time>2018-08-29T09:28:22Z</time>
      </trkpt>
      <trkpt lat="47.65319" lon="6.18144">
        <ele>243.75</ele>
        <time>2018-08-29T09:28:23Z</time>
      </trkpt>
      <trkpt lat="47.65316" lon="6.18135">
        <ele>243.68</ele>
        <time>2018-08-29T09:28:24Z</time>
      </trkpt>
      <trkpt lat="47.65313" lon="6.18126">
        <ele>243.64</ele>
        <time>2018-08-29T09:28:25Z</time>
      </trkpt>
      <trkpt lat="47.65309" lon="6.18116">
        <ele>243.65</ele>
        <time>2018-08-29T09:28:26Z</time>
      </trkpt>
      <trkpt lat="47.65308" lon="6.18107">
        <ele>243.67</ele>
        <time>2018-08-29T09:28:27Z</time>
      </trkpt>
      <trkpt lat="47.65306" lon="6.18098">
        <ele>243.68</ele>
        <time>2018-08-29T09:28:28Z</time>
      </trkpt>
      <trkpt lat="47.65305" lon="6.18089">
        <ele>243.72</ele>
        <time>2018-08-29T09:28:29Z</time>
      </trkpt>
      <trkpt lat="47.65304" lon="6.18081">
        <ele>243.79</ele>
        <time>2018-08-29T09:28:30Z</time>
      </trkpt>
      <trkpt lat="47.65303" lon="6.18072">
        <ele>244.01</ele>
        <time>2018-08-29T09:28:31Z</time>
      </trkpt>
      <trkpt lat="47.65301" lon="6.18064">
        <ele>244.21</ele>
        <time>2018-08-29T09:28:32Z</time>
      </trkpt>
      <trkpt lat="47.653" lon="6.18055">
        <ele>244.42</ele>
        <time>2018-08-29T09:28:33Z</time>
      </trkpt>
      <trkpt lat="47.65298" lon="6.18048">
        <ele>244.66</ele>
        <time>2018-08-29T09:28:34Z</time>
      </trkpt>
      <trkpt lat="47.65297" lon="6.1804">
        <ele>244.9</ele>
        <time>2018-08-29T09:28:35Z</time>
      </trkpt>
      <trkpt lat="47.65295" lon="6.18033">
        <ele>245.1</ele>
        <time>2018-08-29T09:28:36Z</time>
      </trkpt>
      <trkpt lat="47.65293" lon="6.18026">
        <ele>245.27</ele>
        <time>2018-08-29T09:28:37Z</time>
      </trkpt>
      <trkpt lat="47.65291" lon="6.18019">
        <ele>245.43</ele>
        <time>2018-08-29T09:28:38Z</time>
      </trkpt>
      <trkpt lat="47.65288" lon="6.18013">
        <ele>245.6</ele>
        <time>2018-08-29T09:28:39Z</time>
      </trkpt>
      <trkpt lat="47.65285" lon="6.18008">
        <ele>245.73</ele>
        <time>2018-08-29T09:28:40Z</time>
      </trkpt>
      <trkpt lat="47.65282" lon="6.18003">
        <ele>245.82</ele>
        <time>2018-08-29T09:28:41Z</time>
      </trkpt>
      <trkpt lat="47.65279" lon="6.17999">
        <ele>245.82</ele>
        <time>2018-08-29T09:28:42Z</time>
      </trkpt>
      <trkpt lat="47.65272" lon="6.17991">
        <ele>245.57</ele>
        <time>2018-08-29T09:28:44Z</time>
      </trkpt>
      <trkpt lat="47.65265" lon="6.17984">
        <ele>245.43</ele>
        <time>2018-08-29T09:28:46Z</time>
      </trkpt>
      <trkpt lat="47.65258" lon="6.17978">
        <ele>245.37</ele>
        <time>2018-08-29T09:28:48Z</time>
      </trkpt>
      <trkpt lat="47.65254" lon="6.17975">
        <ele>245.34</ele>
        <time>2018-08-29T09:28:49Z</time>
      </trkpt>
      <trkpt lat="47.65248" lon="6.17973">
        <ele>245.31</ele>
        <time>2018-08-29T09:28:51Z</time>
      </trkpt>
      <trkpt lat="47.65243" lon="6.17971">
        <ele>245.17</ele>
        <time>2018-08-29T09:28:52Z</time>
      </trkpt>
      <trkpt lat="47.65234" lon="6.17972">
        <ele>244.88</ele>
        <time>2018-08-29T09:28:54Z</time>
      </trkpt>
      <trkpt lat="47.65226" lon="6.17974">
        <ele>244.53</ele>
        <time>2018-08-29T09:28:56Z</time>
      </trkpt>
      <trkpt lat="47.65218" lon="6.17977">
        <ele>244.32</ele>
        <time>2018-08-29T09:28:58Z</time>
      </trkpt>
      <trkpt lat="47.65209" lon="6.17983">
        <ele>244.21</ele>
        <time>2018-08-29T09:29:00Z</time>
      </trkpt>
      <trkpt lat="47.65203" lon="6.17989">
        <ele>244.18</ele>
        <time>2018-08-29T09:29:02Z</time>
      </trkpt>
      <trkpt lat="47.65196" lon="6.17998">
        <ele>243.88</ele>
        <time>2018-08-29T09:29:04Z</time>
      </trkpt>
      <trkpt lat="47.65192" lon="6.18003">
        <ele>243.68</ele>
        <time>2018-08-29T09:29:05Z</time>
      </trkpt>
      <trkpt lat="47.65189" lon="6.18008">
        <ele>243.48</ele>
        <time>2018-08-29T09:29:06Z</time>
      </trkpt>
      <trkpt lat="47.65186" lon="6.18014">
        <ele>243.32</ele>
        <time>2018-08-29T09:29:07Z</time>
      </trkpt>
      <trkpt lat="47.65182" lon="6.1802">
        <ele>243.17</ele>
        <time>2018-08-29T09:29:08Z</time>
      </trkpt>
      <trkpt lat="47.65178" lon="6.18026">
        <ele>243.01</ele>
        <time>2018-08-29T09:29:09Z</time>
      </trkpt>
      <trkpt lat="47.65174" lon="6.18033">
        <ele>242.89</ele>
        <time>2018-08-29T09:29:10Z</time>
      </trkpt>
      <trkpt lat="47.65171" lon="6.1804">
        <ele>242.78</ele>
        <time>2018-08-29T09:29:11Z</time>
      </trkpt>
      <trkpt lat="47.65167" lon="6.18046">
        <ele>242.69</ele>
        <time>2018-08-29T09:29:12Z</time>
      </trkpt>
      <trkpt lat="47.65163" lon="6.1805">
        <ele>242.62</ele>
        <time>2018-08-29T09:29:13Z</time>
      </trkpt>
      <trkpt lat="47.6516" lon="6.18056">
        <ele>242.62</ele>
        <time>2018-08-29T09:29:14Z</time>
      </trkpt>
      <trkpt lat="47.65156" lon="6.18063">
        <ele>242.66</ele>
        <time>2018-08-29T09:29:15Z</time>
      </trkpt>
      <trkpt lat="47.65153" lon="6.18069">
        <ele>242.67</ele>
        <time>2018-08-29T09:29:16Z</time>
      </trkpt>
      <trkpt lat="47.65149" lon="6.18075">
        <ele>242.63</ele>
        <time>2018-08-29T09:29:17Z</time>
      </trkpt>
      <trkpt lat="47.65145" lon="6.1808">
        <ele>242.56</ele>
        <time>2018-08-29T09:29:18Z</time>
      </trkpt>
      <trkpt lat="47.65141" lon="6.18084">
        <ele>242.49</ele>
        <time>2018-08-29T09:29:19Z</time>
      </trkpt>
      <trkpt lat="47.65137" lon="6.18088">
        <ele>242.46</ele>
        <time>2018-08-29T09:29:20Z</time>
      </trkpt>
      <trkpt lat="47.65129" lon="6.18094">
        <ele>242.36</ele>
        <time>2018-08-29T09:29:22Z</time>
      </trkpt>
      <trkpt lat="47.65122" lon="6.18098">
        <ele>242.13</ele>
        <time>2018-08-29T09:29:24Z</time>
      </trkpt>
      <trkpt lat="47.65117" lon="6.181">
        <ele>242.08</ele>
        <time>2018-08-29T09:29:25Z</time>
      </trkpt>
      <trkpt lat="47.65109" lon="6.18101">
        <ele>241.83</ele>
        <time>2018-08-29T09:29:27Z</time>
      </trkpt>
      <trkpt lat="47.651" lon="6.18102">
        <ele>241.55</ele>
        <time>2018-08-29T09:29:29Z</time>
      </trkpt>
      <trkpt lat="47.65091" lon="6.18102">
        <ele>241.31</ele>
        <time>2018-08-29T09:29:31Z</time>
      </trkpt>
      <trkpt lat="47.65083" lon="6.18101">
        <ele>240.53</ele>
        <time>2018-08-29T09:29:33Z</time>
      </trkpt>
      <trkpt lat="47.65075" lon="6.181">
        <ele>239.93</ele>
        <time>2018-08-29T09:29:35Z</time>
      </trkpt>
      <trkpt lat="47.65067" lon="6.18097">
        <ele>239.6</ele>
        <time>2018-08-29T09:29:37Z</time>
      </trkpt>
      <trkpt lat="47.65061" lon="6.18094">
        <ele>239.54</ele>
        <time>2018-08-29T09:29:40Z</time>
      </trkpt>
      <trkpt lat="47.65056" lon="6.18092">
        <ele>239.52</ele>
        <time>2018-08-29T09:29:42Z</time>
      </trkpt>
      <trkpt lat="47.65049" lon="6.18092">
        <ele>239.51</ele>
        <time>2018-08-29T09:29:44Z</time>
      </trkpt>
      <trkpt lat="47.65035" lon="6.18091">
        <ele>239.51</ele>
        <time>2018-08-29T09:29:46Z</time>
      </trkpt>
      <trkpt lat="47.65027" lon="6.18092">
        <ele>239.54</ele>
        <time>2018-08-29T09:29:48Z</time>
      </trkpt>
      <trkpt lat="47.65018" lon="6.18092">
        <ele>239.68</ele>
        <time>2018-08-29T09:29:50Z</time>
      </trkpt>
      <trkpt lat="47.65009" lon="6.18092">
        <ele>239.85</ele>
        <time>2018-08-29T09:29:52Z</time>
      </trkpt>
      <trkpt lat="47.65005" lon="6.18092">
        <ele>240.03</ele>
        <time>2018-08-29T09:29:53Z</time>
      </trkpt>
      <trkpt lat="47.65" lon="6.18092">
        <ele>240.24</ele>
        <time>2018-08-29T09:29:54Z</time>
      </trkpt>
      <trkpt lat="47.64995" lon="6.18093">
        <ele>240.46</ele>
        <time>2018-08-29T09:29:55Z</time>
      </trkpt>
      <trkpt lat="47.64991" lon="6.18093">
        <ele>240.69</ele>
        <time>2018-08-29T09:29:56Z</time>
      </trkpt>
      <trkpt lat="47.64986" lon="6.18093">
        <ele>240.92</ele>
        <time>2018-08-29T09:29:57Z</time>
      </trkpt>
      <trkpt lat="47.64982" lon="6.18093">
        <ele>241.21</ele>
        <time>2018-08-29T09:29:58Z</time>
      </trkpt>
      <trkpt lat="47.64977" lon="6.18094">
        <ele>241.51</ele>
        <time>2018-08-29T09:29:59Z</time>
      </trkpt>
      <trkpt lat="47.64969" lon="6.18095">
        <ele>242.06</ele>
        <time>2018-08-29T09:30:01Z</time>
      </trkpt>
      <trkpt lat="47.64961" lon="6.18097">
        <ele>242.37</ele>
        <time>2018-08-29T09:30:03Z</time>
      </trkpt>
      <trkpt lat="47.64953" lon="6.18096">
        <ele>242.86</ele>
        <time>2018-08-29T09:30:05Z</time>
      </trkpt>
      <trkpt lat="47.64944" lon="6.18094">
        <ele>243.4</ele>
        <time>2018-08-29T09:30:07Z</time>
      </trkpt>
      <trkpt lat="47.64936" lon="6.18093">
        <ele>243.81</ele>
        <time>2018-08-29T09:30:09Z</time>
      </trkpt>
      <trkpt lat="47.64928" lon="6.18091">
        <ele>244.09</ele>
        <time>2018-08-29T09:30:11Z</time>
      </trkpt>
      <trkpt lat="47.64919" lon="6.18089">
        <ele>244.24</ele>
        <time>2018-08-29T09:30:13Z</time>
      </trkpt>
      <trkpt lat="47.6491" lon="6.18087">
        <ele>244.34</ele>
        <time>2018-08-29T09:30:15Z</time>
      </trkpt>
      <trkpt lat="47.64903" lon="6.18085">
        <ele>244.48</ele>
        <time>2018-08-29T09:30:17Z</time>
      </trkpt>
      <trkpt lat="47.64894" lon="6.18083">
        <ele>244.58</ele>
        <time>2018-08-29T09:30:19Z</time>
      </trkpt>
      <trkpt lat="47.64886" lon="6.18082">
        <ele>244.63</ele>
        <time>2018-08-29T09:30:21Z</time>
      </trkpt>
      <trkpt lat="47.64878" lon="6.1808">
        <ele>244.64</ele>
        <time>2018-08-29T09:30:23Z</time>
      </trkpt>
      <trkpt lat="47.64872" lon="6.18078">
        <ele>244.65</ele>
        <time>2018-08-29T09:30:25Z</time>
      </trkpt>
      <trkpt lat="47.64865" lon="6.18076">
        <ele>244.65</ele>
        <time>2018-08-29T09:30:26Z</time>
      </trkpt>
      <trkpt lat="47.6486" lon="6.18075">
        <ele>244.65</ele>
        <time>2018-08-29T09:30:28Z</time>
      </trkpt>
      <trkpt lat="47.64854" lon="6.18073">
        <ele>244.64</ele>
        <time>2018-08-29T09:30:30Z</time>
      </trkpt>
      <trkpt lat="47.64842" lon="6.18069">
        <ele>244.51</ele>
        <time>2018-08-29T09:30:32Z</time>
      </trkpt>
      <trkpt lat="47.64833" lon="6.18067">
        <ele>244.18</ele>
        <time>2018-08-29T09:30:34Z</time>
      </trkpt>
      <trkpt lat="47.64828" lon="6.18065">
        <ele>243.99</ele>
        <time>2018-08-29T09:30:35Z</time>
      </trkpt>
      <trkpt lat="47.64823" lon="6.18062">
        <ele>243.8</ele>
        <time>2018-08-29T09:30:36Z</time>
      </trkpt>
      <trkpt lat="47.64817" lon="6.18061">
        <ele>243.62</ele>
        <time>2018-08-29T09:30:37Z</time>
      </trkpt>
      <trkpt lat="47.64812" lon="6.1806">
        <ele>243.45</ele>
        <time>2018-08-29T09:30:38Z</time>
      </trkpt>
      <trkpt lat="47.64806" lon="6.1806">
        <ele>243.3</ele>
        <time>2018-08-29T09:30:39Z</time>
      </trkpt>
      <trkpt lat="47.64801" lon="6.18059">
        <ele>243.18</ele>
        <time>2018-08-29T09:30:40Z</time>
      </trkpt>
      <trkpt lat="47.64795" lon="6.18057">
        <ele>243.06</ele>
        <time>2018-08-29T09:30:41Z</time>
      </trkpt>
      <trkpt lat="47.6479" lon="6.18057">
        <ele>242.96</ele>
        <time>2018-08-29T09:30:42Z</time>
      </trkpt>
      <trkpt lat="47.64785" lon="6.18056">
        <ele>242.87</ele>
        <time>2018-08-29T09:30:43Z</time>
      </trkpt>
      <trkpt lat="47.6478" lon="6.18053">
        <ele>242.8</ele>
        <time>2018-08-29T09:30:44Z</time>
      </trkpt>
      <trkpt lat="47.64773" lon="6.18048">
        <ele>242.71</ele>
        <time>2018-08-29T09:30:46Z</time>
      </trkpt>
      <trkpt lat="47.64767" lon="6.18042">
        <ele>242.7</ele>
        <time>2018-08-29T09:30:48Z</time>
      </trkpt>
      <trkpt lat="47.64761" lon="6.18035">
        <ele>242.68</ele>
        <time>2018-08-29T09:30:50Z</time>
      </trkpt>
      <trkpt lat="47.64756" lon="6.18028">
        <ele>242.67</ele>
        <time>2018-08-29T09:30:52Z</time>
      </trkpt>
      <trkpt lat="47.64751" lon="6.18021">
        <ele>242.66</ele>
        <time>2018-08-29T09:30:54Z</time>
      </trkpt>
      <trkpt lat="47.64747" lon="6.18013">
        <ele>242.64</ele>
        <time>2018-08-29T09:30:56Z</time>
      </trkpt>
      <trkpt lat="47.64743" lon="6.18005">
        <ele>242.63</ele>
        <time>2018-08-29T09:30:58Z</time>
      </trkpt>
      <trkpt lat="47.64737" lon="6.17997">
        <ele>242.61</ele>
        <time>2018-08-29T09:31:00Z</time>
      </trkpt>
      <trkpt lat="47.64732" lon="6.17989">
        <ele>242.59</ele>
        <time>2018-08-29T09:31:02Z</time>
      </trkpt>
      <trkpt lat="47.64727" lon="6.17981">
        <ele>242.49</ele>
        <time>2018-08-29T09:31:04Z</time>
      </trkpt>
      <trkpt lat="47.64722" lon="6.17973">
        <ele>242.44</ele>
        <time>2018-08-29T09:31:06Z</time>
      </trkpt>
      <trkpt lat="47.64717" lon="6.17965">
        <ele>242.33</ele>
        <time>2018-08-29T09:31:08Z</time>
      </trkpt>
      <trkpt lat="47.64711" lon="6.17956">
        <ele>242.31</ele>
        <time>2018-08-29T09:31:10Z</time>
      </trkpt>
      <trkpt lat="47.64703" lon="6.17945">
        <ele>242.27</ele>
        <time>2018-08-29T09:31:13Z</time>
      </trkpt>
      <trkpt lat="47.64698" lon="6.17938">
        <ele>242.23</ele>
        <time>2018-08-29T09:31:16Z</time>
      </trkpt>
      <trkpt lat="47.64693" lon="6.17932">
        <ele>242.2</ele>
        <time>2018-08-29T09:31:18Z</time>
      </trkpt>
      <trkpt lat="47.64686" lon="6.17923">
        <ele>242.11</ele>
        <time>2018-08-29T09:31:19Z</time>
      </trkpt>
      <trkpt lat="47.64679" lon="6.17916">
        <ele>241.92</ele>
        <time>2018-08-29T09:31:21Z</time>
      </trkpt>
      <trkpt lat="47.64671" lon="6.1791">
        <ele>241.75</ele>
        <time>2018-08-29T09:31:23Z</time>
      </trkpt>
      <trkpt lat="47.64667" lon="6.17906">
        <ele>241.67</ele>
        <time>2018-08-29T09:31:24Z</time>
      </trkpt>
      <trkpt lat="47.64662" lon="6.17903">
        <ele>241.59</ele>
        <time>2018-08-29T09:31:25Z</time>
      </trkpt>
      <trkpt lat="47.64658" lon="6.17901">
        <ele>241.52</ele>
        <time>2018-08-29T09:31:26Z</time>
      </trkpt>
      <trkpt lat="47.64649" lon="6.17897">
        <ele>241.41</ele>
        <time>2018-08-29T09:31:28Z</time>
      </trkpt>
      <trkpt lat="47.64643" lon="6.17894">
        <ele>241.36</ele>
        <time>2018-08-29T09:31:29Z</time>
      </trkpt>
      <trkpt lat="47.64638" lon="6.17891">
        <ele>241.3</ele>
        <time>2018-08-29T09:31:30Z</time>
      </trkpt>
      <trkpt lat="47.64633" lon="6.17889">
        <ele>241.24</ele>
        <time>2018-08-29T09:31:31Z</time>
      </trkpt>
      <trkpt lat="47.64628" lon="6.17887">
        <ele>241.18</ele>
        <time>2018-08-29T09:31:32Z</time>
      </trkpt>
      <trkpt lat="47.64622" lon="6.17885">
        <ele>241.11</ele>
        <time>2018-08-29T09:31:33Z</time>
      </trkpt>
      <trkpt lat="47.64617" lon="6.17884">
        <ele>241.05</ele>
        <time>2018-08-29T09:31:34Z</time>
      </trkpt>
      <trkpt lat="47.64612" lon="6.17885">
        <ele>240.98</ele>
        <time>2018-08-29T09:31:35Z</time>
      </trkpt>
      <trkpt lat="47.64606" lon="6.17887">
        <ele>240.92</ele>
        <time>2018-08-29T09:31:36Z</time>
      </trkpt>
      <trkpt lat="47.64601" lon="6.17889">
        <ele>240.86</ele>
        <time>2018-08-29T09:31:37Z</time>
      </trkpt>
      <trkpt lat="47.64597" lon="6.17891">
        <ele>240.81</ele>
        <time>2018-08-29T09:31:38Z</time>
      </trkpt>
      <trkpt lat="47.64592" lon="6.17895">
        <ele>240.76</ele>
        <time>2018-08-29T09:31:39Z</time>
      </trkpt>
      <trkpt lat="47.64589" lon="6.17899">
        <ele>240.72</ele>
        <time>2018-08-29T09:31:40Z</time>
      </trkpt>
      <trkpt lat="47.64585" lon="6.17903">
        <ele>240.67</ele>
        <time>2018-08-29T09:31:41Z</time>
      </trkpt>
      <trkpt lat="47.64579" lon="6.17911">
        <ele>240.64</ele>
        <time>2018-08-29T09:31:43Z</time>
      </trkpt>
      <trkpt lat="47.64573" lon="6.17917">
        <ele>240.62</ele>
        <time>2018-08-29T09:31:45Z</time>
      </trkpt>
      <trkpt lat="47.64568" lon="6.17922">
        <ele>240.61</ele>
        <time>2018-08-29T09:31:47Z</time>
      </trkpt>
      <trkpt lat="47.64564" lon="6.17926">
        <ele>240.59</ele>
        <time>2018-08-29T09:31:49Z</time>
      </trkpt>
      <trkpt lat="47.6456" lon="6.17933">
        <ele>240.54</ele>
        <time>2018-08-29T09:31:52Z</time>
      </trkpt>
      <trkpt lat="47.64558" lon="6.17943">
        <ele>240.5</ele>
        <time>2018-08-29T09:31:55Z</time>
      </trkpt>
      <trkpt lat="47.64557" lon="6.1795">
        <ele>240.48</ele>
        <time>2018-08-29T09:31:57Z</time>
      </trkpt>
      <trkpt lat="47.64555" lon="6.17958">
        <ele>240.45</ele>
        <time>2018-08-29T09:31:59Z</time>
      </trkpt>
      <trkpt lat="47.64552" lon="6.17968">
        <ele>240.43</ele>
        <time>2018-08-29T09:32:01Z</time>
      </trkpt>
      <trkpt lat="47.6455" lon="6.17976">
        <ele>240.41</ele>
        <time>2018-08-29T09:32:03Z</time>
      </trkpt>
      <trkpt lat="47.64548" lon="6.17984">
        <ele>240.39</ele>
        <time>2018-08-29T09:32:05Z</time>
      </trkpt>
      <trkpt lat="47.64546" lon="6.1799">
        <ele>240.38</ele>
        <time>2018-08-29T09:32:07Z</time>
      </trkpt>
      <trkpt lat="47.64543" lon="6.17996">
        <ele>240.37</ele>
        <time>2018-08-29T09:32:09Z</time>
      </trkpt>
      <trkpt lat="47.6454" lon="6.18003">
        <ele>240.36</ele>
        <time>2018-08-29T09:32:11Z</time>
      </trkpt>
      <trkpt lat="47.64537" lon="6.1801">
        <ele>240.35</ele>
        <time>2018-08-29T09:32:13Z</time>
      </trkpt>
      <trkpt lat="47.64534" lon="6.18018">
        <ele>240.3</ele>
        <time>2018-08-29T09:32:15Z</time>
      </trkpt>
      <trkpt lat="47.64529" lon="6.18027">
        <ele>240.23</ele>
        <time>2018-08-29T09:32:17Z</time>
      </trkpt>
      <trkpt lat="47.64522" lon="6.18035">
        <ele>240.18</ele>
        <time>2018-08-29T09:32:19Z</time>
      </trkpt>
      <trkpt lat="47.64509" lon="6.18049">
        <ele>240.16</ele>
        <time>2018-08-29T09:32:20Z</time>
      </trkpt>
      <trkpt lat="47.64506" lon="6.18056">
        <ele>240.13</ele>
        <time>2018-08-29T09:32:21Z</time>
      </trkpt>
      <trkpt lat="47.64505" lon="6.18064">
        <ele>240.11</ele>
        <time>2018-08-29T09:32:22Z</time>
      </trkpt>
      <trkpt lat="47.64504" lon="6.18071">
        <ele>240.1</ele>
        <time>2018-08-29T09:32:23Z</time>
      </trkpt>
      <trkpt lat="47.64502" lon="6.18079">
        <ele>240.09</ele>
        <time>2018-08-29T09:32:24Z</time>
      </trkpt>
      <trkpt lat="47.645" lon="6.18087">
        <ele>240.06</ele>
        <time>2018-08-29T09:32:25Z</time>
      </trkpt>
      <trkpt lat="47.64499" lon="6.18095">
        <ele>240.04</ele>
        <time>2018-08-29T09:32:26Z</time>
      </trkpt>
      <trkpt lat="47.64497" lon="6.18103">
        <ele>240.02</ele>
        <time>2018-08-29T09:32:27Z</time>
      </trkpt>
      <trkpt lat="47.64495" lon="6.18111">
        <ele>239.99</ele>
        <time>2018-08-29T09:32:28Z</time>
      </trkpt>
      <trkpt lat="47.64494" lon="6.18118">
        <ele>239.96</ele>
        <time>2018-08-29T09:32:29Z</time>
      </trkpt>
      <trkpt lat="47.64492" lon="6.18126">
        <ele>239.94</ele>
        <time>2018-08-29T09:32:30Z</time>
      </trkpt>
      <trkpt lat="47.64491" lon="6.18134">
        <ele>239.92</ele>
        <time>2018-08-29T09:32:31Z</time>
      </trkpt>
      <trkpt lat="47.6449" lon="6.18141">
        <ele>239.89</ele>
        <time>2018-08-29T09:32:32Z</time>
      </trkpt>
      <trkpt lat="47.6449" lon="6.18149">
        <ele>239.86</ele>
        <time>2018-08-29T09:32:33Z</time>
      </trkpt>
      <trkpt lat="47.64491" lon="6.18157">
        <ele>239.85</ele>
        <time>2018-08-29T09:32:34Z</time>
      </trkpt>
      <trkpt lat="47.64494" lon="6.18167">
        <ele>239.8</ele>
        <time>2018-08-29T09:32:36Z</time>
      </trkpt>
      <trkpt lat="47.64497" lon="6.18178">
        <ele>239.79</ele>
        <time>2018-08-29T09:32:38Z</time>
      </trkpt>
      <trkpt lat="47.64496" lon="6.18185">
        <ele>239.79</ele>
        <time>2018-08-29T09:32:40Z</time>
      </trkpt>
      <trkpt lat="47.64493" lon="6.18195">
        <ele>239.79</ele>
        <time>2018-08-29T09:32:42Z</time>
      </trkpt>
      <trkpt lat="47.64492" lon="6.18204">
        <ele>239.79</ele>
        <time>2018-08-29T09:32:45Z</time>
      </trkpt>
      <trkpt lat="47.6449" lon="6.1821">
        <ele>239.79</ele>
        <time>2018-08-29T09:32:47Z</time>
      </trkpt>
      <trkpt lat="47.64487" lon="6.18218">
        <ele>239.79</ele>
        <time>2018-08-29T09:32:49Z</time>
      </trkpt>
      <trkpt lat="47.64483" lon="6.18227">
        <ele>239.79</ele>
        <time>2018-08-29T09:32:51Z</time>
      </trkpt>
      <trkpt lat="47.64478" lon="6.18239">
        <ele>239.78</ele>
        <time>2018-08-29T09:32:53Z</time>
      </trkpt>
      <trkpt lat="47.6447" lon="6.18257">
        <ele>239.78</ele>
        <time>2018-08-29T09:32:54Z</time>
      </trkpt>
      <trkpt lat="47.64467" lon="6.18262">
        <ele>239.77</ele>
        <time>2018-08-29T09:32:55Z</time>
      </trkpt>
      <trkpt lat="47.64462" lon="6.18271">
        <ele>239.77</ele>
        <time>2018-08-29T09:32:57Z</time>
      </trkpt>
      <trkpt lat="47.64458" lon="6.18277">
        <ele>239.76</ele>
        <time>2018-08-29T09:32:59Z</time>
      </trkpt>
      <trkpt lat="47.64452" lon="6.18283">
        <ele>239.76</ele>
        <time>2018-08-29T09:33:01Z</time>
      </trkpt>
      <trkpt lat="47.64446" lon="6.18289">
        <ele>239.76</ele>
        <time>2018-08-29T09:33:03Z</time>
      </trkpt>
      <trkpt lat="47.6444" lon="6.18295">
        <ele>239.76</ele>
        <time>2018-08-29T09:33:05Z</time>
      </trkpt>
      <trkpt lat="47.64438" lon="6.18302">
        <ele>239.75</ele>
        <time>2018-08-29T09:33:08Z</time>
      </trkpt>
      <trkpt lat="47.64438" lon="6.18311">
        <ele>239.74</ele>
        <time>2018-08-29T09:33:11Z</time>
      </trkpt>
      <trkpt lat="47.64436" lon="6.18319">
        <ele>239.73</ele>
        <time>2018-08-29T09:33:14Z</time>
      </trkpt>
    </trkseg>
  </trk>
</gpx>